<?xml version="1.0" encoding="UTF-8" standalone="no" ?>
<gpx xmlns="http://www.topografix.com/GPX/1/1" xmlns:xsi="http://www.w3.org/2001/XMLSchema-instance" xsi:schemaLocation="http://www.topografix.com/GPX/1/1 http://www.topografix.com/GPX/1/1/gpx.xsd" version="1.1" creator="VisuGPX - https://www.visugpx.com">
  <metadata>
    <name>Gigors Cyclisme</name>
    <desc><![CDATA[vincent, jeanpierre, thierry, michel, bruno, christian 
a refaire en rentrant à gigors par le puy]]></desc>
  </metadata>
  <trk>
    <name><![CDATA[Gigors Cyclisme]]></name>
    <trkseg>
      <trkpt lat="44.42023" lon="6.16993">
        <ele>843.40002441406</ele>
        <time>2021-09-01T06:33:02.000Z</time>
      </trkpt>
      <trkpt lat="44.42029" lon="6.16998">
        <ele>843</ele>
        <time>2021-09-01T06:33:02.002Z</time>
      </trkpt>
      <trkpt lat="44.4203" lon="6.17007">
        <ele>842.79998779297</ele>
        <time>2021-09-01T06:33:02.006Z</time>
      </trkpt>
      <trkpt lat="44.42026" lon="6.17008">
        <ele>842.79998779297</ele>
        <time>2021-09-01T06:33:02.011Z</time>
      </trkpt>
      <trkpt lat="44.42012" lon="6.16993">
        <ele>842.79998779297</ele>
        <time>2021-09-01T06:33:02.021Z</time>
      </trkpt>
      <trkpt lat="44.41994" lon="6.16966">
        <ele>839.40002441406</ele>
        <time>2021-09-01T06:33:02.039Z</time>
      </trkpt>
      <trkpt lat="44.41979" lon="6.16934">
        <ele>837.40002441406</ele>
        <time>2021-09-01T06:33:02.065Z</time>
      </trkpt>
      <trkpt lat="44.4197" lon="6.16918">
        <ele>836.59997558594</ele>
        <time>2021-09-01T06:33:02.095Z</time>
      </trkpt>
      <trkpt lat="44.41957" lon="6.16906">
        <ele>836.59997558594</ele>
        <time>2021-09-01T06:33:02.130Z</time>
      </trkpt>
      <trkpt lat="44.41949" lon="6.16903">
        <ele>835.59997558594</ele>
        <time>2021-09-01T06:33:02.167Z</time>
      </trkpt>
      <trkpt lat="44.41932" lon="6.16901">
        <ele>835.59997558594</ele>
        <time>2021-09-01T06:33:02.209Z</time>
      </trkpt>
      <trkpt lat="44.41892" lon="6.16904">
        <ele>835.59997558594</ele>
        <time>2021-09-01T06:33:02.262Z</time>
      </trkpt>
      <trkpt lat="44.41826" lon="6.16906">
        <ele>835.59997558594</ele>
        <time>2021-09-01T06:33:02.335Z</time>
      </trkpt>
      <trkpt lat="44.4181" lon="6.16906">
        <ele>835.59997558594</ele>
        <time>2021-09-01T06:33:02.412Z</time>
      </trkpt>
      <trkpt lat="44.41807" lon="6.16903">
        <ele>831.79998779297</ele>
        <time>2021-09-01T06:33:02.490Z</time>
      </trkpt>
      <trkpt lat="44.41808" lon="6.16891">
        <ele>831.79998779297</ele>
        <time>2021-09-01T06:33:02.571Z</time>
      </trkpt>
      <trkpt lat="44.4181" lon="6.16882">
        <ele>831.79998779297</ele>
        <time>2021-09-01T06:33:02.654Z</time>
      </trkpt>
      <trkpt lat="44.41829" lon="6.1685">
        <ele>833.20001220703</ele>
        <time>2021-09-01T06:33:02.746Z</time>
      </trkpt>
      <trkpt lat="44.41833" lon="6.16839">
        <ele>833.20001220703</ele>
        <time>2021-09-01T06:33:02.840Z</time>
      </trkpt>
      <trkpt lat="44.41845" lon="6.16752">
        <ele>833.79998779297</ele>
        <time>2021-09-01T06:33:02.953Z</time>
      </trkpt>
      <trkpt lat="44.41841" lon="6.16733">
        <ele>833.79998779297</ele>
        <time>2021-09-01T06:33:03.070Z</time>
      </trkpt>
      <trkpt lat="44.41842" lon="6.16701">
        <ele>833.79998779297</ele>
        <time>2021-09-01T06:33:03.193Z</time>
      </trkpt>
      <trkpt lat="44.4184" lon="6.16681">
        <ele>836</ele>
        <time>2021-09-01T06:33:03.321Z</time>
      </trkpt>
      <trkpt lat="44.41829" lon="6.1666">
        <ele>836.20001220703</ele>
        <time>2021-09-01T06:33:03.454Z</time>
      </trkpt>
      <trkpt lat="44.41818" lon="6.16644">
        <ele>836.20001220703</ele>
        <time>2021-09-01T06:33:03.592Z</time>
      </trkpt>
      <trkpt lat="44.41814" lon="6.16635">
        <ele>836.79998779297</ele>
        <time>2021-09-01T06:33:03.732Z</time>
      </trkpt>
      <trkpt lat="44.41812" lon="6.16626">
        <ele>836.79998779297</ele>
        <time>2021-09-01T06:33:03.874Z</time>
      </trkpt>
      <trkpt lat="44.41812" lon="6.16608">
        <ele>836.79998779297</ele>
        <time>2021-09-01T06:33:04.020Z</time>
      </trkpt>
      <trkpt lat="44.41803" lon="6.16589">
        <ele>839</ele>
        <time>2021-09-01T06:33:04.170Z</time>
      </trkpt>
      <trkpt lat="44.41788" lon="6.16564">
        <ele>840</ele>
        <time>2021-09-01T06:33:04.327Z</time>
      </trkpt>
      <trkpt lat="44.41764" lon="6.16533">
        <ele>841</ele>
        <time>2021-09-01T06:33:04.493Z</time>
      </trkpt>
      <trkpt lat="44.41742" lon="6.1651">
        <ele>842</ele>
        <time>2021-09-01T06:33:04.667Z</time>
      </trkpt>
      <trkpt lat="44.41736" lon="6.16505">
        <ele>842</ele>
        <time>2021-09-01T06:33:04.843Z</time>
      </trkpt>
      <trkpt lat="44.41714" lon="6.16499">
        <ele>843.20001220703</ele>
        <time>2021-09-01T06:33:05.026Z</time>
      </trkpt>
      <trkpt lat="44.41704" lon="6.16504">
        <ele>843.20001220703</ele>
        <time>2021-09-01T06:33:05.212Z</time>
      </trkpt>
      <trkpt lat="44.41679" lon="6.16511">
        <ele>843.20001220703</ele>
        <time>2021-09-01T06:33:05.405Z</time>
      </trkpt>
      <trkpt lat="44.41664" lon="6.16518">
        <ele>850.79998779297</ele>
        <time>2021-09-01T06:33:05.603Z</time>
      </trkpt>
      <trkpt lat="44.41655" lon="6.16518">
        <ele>851.79998779297</ele>
        <time>2021-09-01T06:33:05.804Z</time>
      </trkpt>
      <trkpt lat="44.41644" lon="6.16515">
        <ele>853</ele>
        <time>2021-09-01T06:33:06.008Z</time>
      </trkpt>
      <trkpt lat="44.41635" lon="6.16505">
        <ele>853</ele>
        <time>2021-09-01T06:33:06.215Z</time>
      </trkpt>
      <trkpt lat="44.41624" lon="6.16486">
        <ele>856.20001220703</ele>
        <time>2021-09-01T06:33:06.427Z</time>
      </trkpt>
      <trkpt lat="44.41619" lon="6.1648">
        <ele>856.20001220703</ele>
        <time>2021-09-01T06:33:06.641Z</time>
      </trkpt>
      <trkpt lat="44.4161" lon="6.16481">
        <ele>856.20001220703</ele>
        <time>2021-09-01T06:33:06.858Z</time>
      </trkpt>
      <trkpt lat="44.41584" lon="6.1651">
        <ele>859.59997558594</ele>
        <time>2021-09-01T06:33:07.084Z</time>
      </trkpt>
      <trkpt lat="44.41555" lon="6.1653">
        <ele>861.20001220703</ele>
        <time>2021-09-01T06:33:07.320Z</time>
      </trkpt>
      <trkpt lat="44.41535" lon="6.16557">
        <ele>861.20001220703</ele>
        <time>2021-09-01T06:33:07.564Z</time>
      </trkpt>
      <trkpt lat="44.41492" lon="6.16569">
        <ele>856.59997558594</ele>
        <time>2021-09-01T06:33:07.820Z</time>
      </trkpt>
      <trkpt lat="44.41459" lon="6.16567">
        <ele>855.40002441406</ele>
        <time>2021-09-01T06:33:08.086Z</time>
      </trkpt>
      <trkpt lat="44.41437" lon="6.16568">
        <ele>855.40002441406</ele>
        <time>2021-09-01T06:33:08.358Z</time>
      </trkpt>
      <trkpt lat="44.41401" lon="6.16591">
        <ele>858.79998779297</ele>
        <time>2021-09-01T06:33:08.642Z</time>
      </trkpt>
      <trkpt lat="44.41383" lon="6.16605">
        <ele>860</ele>
        <time>2021-09-01T06:33:08.932Z</time>
      </trkpt>
      <trkpt lat="44.41369" lon="6.16617">
        <ele>860</ele>
        <time>2021-09-01T06:33:09.227Z</time>
      </trkpt>
      <trkpt lat="44.41352" lon="6.16639">
        <ele>860.40002441406</ele>
        <time>2021-09-01T06:33:09.529Z</time>
      </trkpt>
      <trkpt lat="44.41347" lon="6.16643">
        <ele>860.59997558594</ele>
        <time>2021-09-01T06:33:09.832Z</time>
      </trkpt>
      <trkpt lat="44.41327" lon="6.16638">
        <ele>860.59997558594</ele>
        <time>2021-09-01T06:33:10.141Z</time>
      </trkpt>
      <trkpt lat="44.41324" lon="6.16639">
        <ele>860.59997558594</ele>
        <time>2021-09-01T06:33:10.451Z</time>
      </trkpt>
      <trkpt lat="44.41311" lon="6.16636">
        <ele>861.79998779297</ele>
        <time>2021-09-01T06:33:10.765Z</time>
      </trkpt>
      <trkpt lat="44.41308" lon="6.16633">
        <ele>861.79998779297</ele>
        <time>2021-09-01T06:33:11.080Z</time>
      </trkpt>
      <trkpt lat="44.41283" lon="6.16621">
        <ele>861.79998779297</ele>
        <time>2021-09-01T06:33:11.403Z</time>
      </trkpt>
      <trkpt lat="44.41275" lon="6.16614">
        <ele>863.20001220703</ele>
        <time>2021-09-01T06:33:11.728Z</time>
      </trkpt>
      <trkpt lat="44.4125" lon="6.16597">
        <ele>863.20001220703</ele>
        <time>2021-09-01T06:33:12.061Z</time>
      </trkpt>
      <trkpt lat="44.41241" lon="6.16586">
        <ele>864.59997558594</ele>
        <time>2021-09-01T06:33:12.398Z</time>
      </trkpt>
      <trkpt lat="44.41209" lon="6.16566">
        <ele>865.79998779297</ele>
        <time>2021-09-01T06:33:12.745Z</time>
      </trkpt>
      <trkpt lat="44.41195" lon="6.16538">
        <ele>865.79998779297</ele>
        <time>2021-09-01T06:33:13.099Z</time>
      </trkpt>
      <trkpt lat="44.41194" lon="6.16532">
        <ele>866.79998779297</ele>
        <time>2021-09-01T06:33:13.454Z</time>
      </trkpt>
      <trkpt lat="44.41186" lon="6.16529">
        <ele>866.79998779297</ele>
        <time>2021-09-01T06:33:13.812Z</time>
      </trkpt>
      <trkpt lat="44.41177" lon="6.16527">
        <ele>866.79998779297</ele>
        <time>2021-09-01T06:33:14.173Z</time>
      </trkpt>
      <trkpt lat="44.41158" lon="6.16518">
        <ele>868</ele>
        <time>2021-09-01T06:33:14.539Z</time>
      </trkpt>
      <trkpt lat="44.41128" lon="6.16499">
        <ele>873</ele>
        <time>2021-09-01T06:33:14.915Z</time>
      </trkpt>
      <trkpt lat="44.41116" lon="6.16493">
        <ele>875.40002441406</ele>
        <time>2021-09-01T06:33:15.295Z</time>
      </trkpt>
      <trkpt lat="44.41094" lon="6.165">
        <ele>875.40002441406</ele>
        <time>2021-09-01T06:33:15.681Z</time>
      </trkpt>
      <trkpt lat="44.41051" lon="6.16494">
        <ele>875.40002441406</ele>
        <time>2021-09-01T06:33:16.080Z</time>
      </trkpt>
      <trkpt lat="44.41037" lon="6.16491">
        <ele>875.40002441406</ele>
        <time>2021-09-01T06:33:16.483Z</time>
      </trkpt>
      <trkpt lat="44.41031" lon="6.1648">
        <ele>875.40002441406</ele>
        <time>2021-09-01T06:33:16.889Z</time>
      </trkpt>
      <trkpt lat="44.41029" lon="6.16471">
        <ele>881.59997558594</ele>
        <time>2021-09-01T06:33:17.297Z</time>
      </trkpt>
      <trkpt lat="44.41029" lon="6.16462">
        <ele>881.59997558594</ele>
        <time>2021-09-01T06:33:17.706Z</time>
      </trkpt>
      <trkpt lat="44.41047" lon="6.16421">
        <ele>881.59997558594</ele>
        <time>2021-09-01T06:33:18.125Z</time>
      </trkpt>
      <trkpt lat="44.41048" lon="6.16399">
        <ele>881.59997558594</ele>
        <time>2021-09-01T06:33:18.549Z</time>
      </trkpt>
      <trkpt lat="44.41042" lon="6.16365">
        <ele>887.40002441406</ele>
        <time>2021-09-01T06:33:18.980Z</time>
      </trkpt>
      <trkpt lat="44.41031" lon="6.16336">
        <ele>889.59997558594</ele>
        <time>2021-09-01T06:33:19.418Z</time>
      </trkpt>
      <trkpt lat="44.41024" lon="6.16322">
        <ele>889.59997558594</ele>
        <time>2021-09-01T06:33:19.860Z</time>
      </trkpt>
      <trkpt lat="44.4102" lon="6.16311">
        <ele>890.59997558594</ele>
        <time>2021-09-01T06:33:20.304Z</time>
      </trkpt>
      <trkpt lat="44.41021" lon="6.16288">
        <ele>890.59997558594</ele>
        <time>2021-09-01T06:33:20.753Z</time>
      </trkpt>
      <trkpt lat="44.41017" lon="6.16274">
        <ele>894</ele>
        <time>2021-09-01T06:33:21.205Z</time>
      </trkpt>
      <trkpt lat="44.41018" lon="6.1627">
        <ele>894</ele>
        <time>2021-09-01T06:33:21.658Z</time>
      </trkpt>
      <trkpt lat="44.41013" lon="6.16259">
        <ele>894.20001220703</ele>
        <time>2021-09-01T06:33:22.114Z</time>
      </trkpt>
      <trkpt lat="44.41011" lon="6.16248">
        <ele>894.20001220703</ele>
        <time>2021-09-01T06:33:22.572Z</time>
      </trkpt>
      <trkpt lat="44.41012" lon="6.16221">
        <ele>894.20001220703</ele>
        <time>2021-09-01T06:33:23.036Z</time>
      </trkpt>
      <trkpt lat="44.4101" lon="6.16177">
        <ele>894.40002441406</ele>
        <time>2021-09-01T06:33:23.509Z</time>
      </trkpt>
      <trkpt lat="44.41012" lon="6.1617">
        <ele>894.40002441406</ele>
        <time>2021-09-01T06:33:23.983Z</time>
      </trkpt>
      <trkpt lat="44.41023" lon="6.16153">
        <ele>897.20001220703</ele>
        <time>2021-09-01T06:33:24.462Z</time>
      </trkpt>
      <trkpt lat="44.4102" lon="6.16129">
        <ele>898.79998779297</ele>
        <time>2021-09-01T06:33:24.946Z</time>
      </trkpt>
      <trkpt lat="44.41015" lon="6.16118">
        <ele>900</ele>
        <time>2021-09-01T06:33:25.433Z</time>
      </trkpt>
      <trkpt lat="44.41002" lon="6.161">
        <ele>900</ele>
        <time>2021-09-01T06:33:25.925Z</time>
      </trkpt>
      <trkpt lat="44.40985" lon="6.16093">
        <ele>903.59997558594</ele>
        <time>2021-09-01T06:33:26.422Z</time>
      </trkpt>
      <trkpt lat="44.40973" lon="6.16071">
        <ele>903.40002441406</ele>
        <time>2021-09-01T06:33:26.925Z</time>
      </trkpt>
      <trkpt lat="44.4097" lon="6.1607">
        <ele>903.40002441406</ele>
        <time>2021-09-01T06:33:27.429Z</time>
      </trkpt>
      <trkpt lat="44.4096" lon="6.16074">
        <ele>903.40002441406</ele>
        <time>2021-09-01T06:33:27.936Z</time>
      </trkpt>
      <trkpt lat="44.40942" lon="6.16066">
        <ele>903.40002441406</ele>
        <time>2021-09-01T06:33:28.449Z</time>
      </trkpt>
      <trkpt lat="44.40926" lon="6.16054">
        <ele>905.79998779297</ele>
        <time>2021-09-01T06:33:28.967Z</time>
      </trkpt>
      <trkpt lat="44.40913" lon="6.16039">
        <ele>906.59997558594</ele>
        <time>2021-09-01T06:33:29.490Z</time>
      </trkpt>
      <trkpt lat="44.40892" lon="6.16007">
        <ele>907.40002441406</ele>
        <time>2021-09-01T06:33:30.022Z</time>
      </trkpt>
      <trkpt lat="44.40883" lon="6.15998">
        <ele>907.40002441406</ele>
        <time>2021-09-01T06:33:30.557Z</time>
      </trkpt>
      <trkpt lat="44.40865" lon="6.15989">
        <ele>907.40002441406</ele>
        <time>2021-09-01T06:33:31.098Z</time>
      </trkpt>
      <trkpt lat="44.40845" lon="6.15976">
        <ele>907.59997558594</ele>
        <time>2021-09-01T06:33:31.645Z</time>
      </trkpt>
      <trkpt lat="44.40837" lon="6.15959">
        <ele>907.59997558594</ele>
        <time>2021-09-01T06:33:32.196Z</time>
      </trkpt>
      <trkpt lat="44.40838" lon="6.15945">
        <ele>907.59997558594</ele>
        <time>2021-09-01T06:33:32.750Z</time>
      </trkpt>
      <trkpt lat="44.40837" lon="6.15933">
        <ele>913.40002441406</ele>
        <time>2021-09-01T06:33:33.307Z</time>
      </trkpt>
      <trkpt lat="44.40838" lon="6.15929">
        <ele>913.40002441406</ele>
        <time>2021-09-01T06:33:33.865Z</time>
      </trkpt>
      <trkpt lat="44.40837" lon="6.15926">
        <ele>913.40002441406</ele>
        <time>2021-09-01T06:33:34.423Z</time>
      </trkpt>
      <trkpt lat="44.4083" lon="6.15922">
        <ele>913.40002441406</ele>
        <time>2021-09-01T06:33:34.983Z</time>
      </trkpt>
      <trkpt lat="44.40819" lon="6.15923">
        <ele>915.79998779297</ele>
        <time>2021-09-01T06:33:35.547Z</time>
      </trkpt>
      <trkpt lat="44.40798" lon="6.15913">
        <ele>915.79998779297</ele>
        <time>2021-09-01T06:33:36.117Z</time>
      </trkpt>
      <trkpt lat="44.40786" lon="6.15901">
        <ele>915.59997558594</ele>
        <time>2021-09-01T06:33:36.691Z</time>
      </trkpt>
      <trkpt lat="44.40779" lon="6.15891">
        <ele>916</ele>
        <time>2021-09-01T06:33:37.268Z</time>
      </trkpt>
      <trkpt lat="44.40772" lon="6.1587">
        <ele>916</ele>
        <time>2021-09-01T06:33:37.850Z</time>
      </trkpt>
      <trkpt lat="44.4077" lon="6.15844">
        <ele>916</ele>
        <time>2021-09-01T06:33:38.438Z</time>
      </trkpt>
      <trkpt lat="44.4078" lon="6.15808">
        <ele>918.79998779297</ele>
        <time>2021-09-01T06:33:39.034Z</time>
      </trkpt>
      <trkpt lat="44.40781" lon="6.15799">
        <ele>918.79998779297</ele>
        <time>2021-09-01T06:33:39.632Z</time>
      </trkpt>
      <trkpt lat="44.40789" lon="6.15782">
        <ele>918.79998779297</ele>
        <time>2021-09-01T06:33:40.234Z</time>
      </trkpt>
      <trkpt lat="44.40786" lon="6.15757">
        <ele>918.79998779297</ele>
        <time>2021-09-01T06:33:40.841Z</time>
      </trkpt>
      <trkpt lat="44.40783" lon="6.15742">
        <ele>918.79998779297</ele>
        <time>2021-09-01T06:33:41.451Z</time>
      </trkpt>
      <trkpt lat="44.40784" lon="6.15716">
        <ele>918.79998779297</ele>
        <time>2021-09-01T06:33:42.067Z</time>
      </trkpt>
      <trkpt lat="44.40782" lon="6.15703">
        <ele>923.20001220703</ele>
        <time>2021-09-01T06:33:42.685Z</time>
      </trkpt>
      <trkpt lat="44.40771" lon="6.15689">
        <ele>927.59997558594</ele>
        <time>2021-09-01T06:33:43.308Z</time>
      </trkpt>
      <trkpt lat="44.40761" lon="6.15686">
        <ele>927.20001220703</ele>
        <time>2021-09-01T06:33:43.934Z</time>
      </trkpt>
      <trkpt lat="44.40755" lon="6.15688">
        <ele>927.20001220703</ele>
        <time>2021-09-01T06:33:44.561Z</time>
      </trkpt>
      <trkpt lat="44.4075" lon="6.15687">
        <ele>924.79998779297</ele>
        <time>2021-09-01T06:33:45.190Z</time>
      </trkpt>
      <trkpt lat="44.40742" lon="6.15681">
        <ele>924.79998779297</ele>
        <time>2021-09-01T06:33:45.822Z</time>
      </trkpt>
      <trkpt lat="44.40737" lon="6.1568">
        <ele>924.79998779297</ele>
        <time>2021-09-01T06:33:46.455Z</time>
      </trkpt>
      <trkpt lat="44.40727" lon="6.15696">
        <ele>920.79998779297</ele>
        <time>2021-09-01T06:33:47.092Z</time>
      </trkpt>
      <trkpt lat="44.40721" lon="6.157">
        <ele>921</ele>
        <time>2021-09-01T06:33:47.732Z</time>
      </trkpt>
      <trkpt lat="44.40714" lon="6.15712">
        <ele>921</ele>
        <time>2021-09-01T06:33:48.375Z</time>
      </trkpt>
      <trkpt lat="44.40708" lon="6.15718">
        <ele>921</ele>
        <time>2021-09-01T06:33:49.020Z</time>
      </trkpt>
      <trkpt lat="44.40705" lon="6.15727">
        <ele>921</ele>
        <time>2021-09-01T06:33:49.667Z</time>
      </trkpt>
      <trkpt lat="44.40695" lon="6.15731">
        <ele>922.79998779297</ele>
        <time>2021-09-01T06:33:50.317Z</time>
      </trkpt>
      <trkpt lat="44.40679" lon="6.15745">
        <ele>925.40002441406</ele>
        <time>2021-09-01T06:33:50.972Z</time>
      </trkpt>
      <trkpt lat="44.40651" lon="6.15724">
        <ele>925.40002441406</ele>
        <time>2021-09-01T06:33:51.637Z</time>
      </trkpt>
      <trkpt lat="44.40643" lon="6.15715">
        <ele>925.40002441406</ele>
        <time>2021-09-01T06:33:52.304Z</time>
      </trkpt>
      <trkpt lat="44.40635" lon="6.15713">
        <ele>925.40002441406</ele>
        <time>2021-09-01T06:33:52.974Z</time>
      </trkpt>
      <trkpt lat="44.40631" lon="6.15709">
        <ele>927.20001220703</ele>
        <time>2021-09-01T06:33:53.645Z</time>
      </trkpt>
      <trkpt lat="44.40624" lon="6.15699">
        <ele>927.20001220703</ele>
        <time>2021-09-01T06:33:54.319Z</time>
      </trkpt>
      <trkpt lat="44.40618" lon="6.15695">
        <ele>927.20001220703</ele>
        <time>2021-09-01T06:33:54.995Z</time>
      </trkpt>
      <trkpt lat="44.40614" lon="6.15644">
        <ele>938</ele>
        <time>2021-09-01T06:33:55.682Z</time>
      </trkpt>
      <trkpt lat="44.40604" lon="6.15633">
        <ele>937.40002441406</ele>
        <time>2021-09-01T06:33:56.373Z</time>
      </trkpt>
      <trkpt lat="44.40588" lon="6.15606">
        <ele>937</ele>
        <time>2021-09-01T06:33:57.071Z</time>
      </trkpt>
      <trkpt lat="44.40582" lon="6.15585">
        <ele>937.79998779297</ele>
        <time>2021-09-01T06:33:57.774Z</time>
      </trkpt>
      <trkpt lat="44.40577" lon="6.15577">
        <ele>937.79998779297</ele>
        <time>2021-09-01T06:33:58.479Z</time>
      </trkpt>
      <trkpt lat="44.40573" lon="6.15575">
        <ele>938</ele>
        <time>2021-09-01T06:33:59.185Z</time>
      </trkpt>
      <trkpt lat="44.40555" lon="6.15574">
        <ele>938.79998779297</ele>
        <time>2021-09-01T06:33:59.896Z</time>
      </trkpt>
      <trkpt lat="44.40551" lon="6.15559">
        <ele>943</ele>
        <time>2021-09-01T06:34:00.611Z</time>
      </trkpt>
      <trkpt lat="44.40538" lon="6.15541">
        <ele>943</ele>
        <time>2021-09-01T06:34:01.331Z</time>
      </trkpt>
      <trkpt lat="44.40536" lon="6.15532">
        <ele>951.20001220703</ele>
        <time>2021-09-01T06:34:02.053Z</time>
      </trkpt>
      <trkpt lat="44.40537" lon="6.1552">
        <ele>953.40002441406</ele>
        <time>2021-09-01T06:34:02.777Z</time>
      </trkpt>
      <trkpt lat="44.40531" lon="6.1549">
        <ele>953.40002441406</ele>
        <time>2021-09-01T06:34:03.508Z</time>
      </trkpt>
      <trkpt lat="44.4053" lon="6.15465">
        <ele>953.40002441406</ele>
        <time>2021-09-01T06:34:04.244Z</time>
      </trkpt>
      <trkpt lat="44.40516" lon="6.15462">
        <ele>953.40002441406</ele>
        <time>2021-09-01T06:34:04.984Z</time>
      </trkpt>
      <trkpt lat="44.40511" lon="6.15463">
        <ele>958.79998779297</ele>
        <time>2021-09-01T06:34:05.726Z</time>
      </trkpt>
      <trkpt lat="44.40506" lon="6.15462">
        <ele>958.79998779297</ele>
        <time>2021-09-01T06:34:06.469Z</time>
      </trkpt>
      <trkpt lat="44.4048" lon="6.15431">
        <ele>958.40002441406</ele>
        <time>2021-09-01T06:34:07.222Z</time>
      </trkpt>
      <trkpt lat="44.40462" lon="6.15404">
        <ele>959</ele>
        <time>2021-09-01T06:34:07.983Z</time>
      </trkpt>
      <trkpt lat="44.40449" lon="6.1539">
        <ele>960.20001220703</ele>
        <time>2021-09-01T06:34:08.749Z</time>
      </trkpt>
      <trkpt lat="44.40445" lon="6.15373">
        <ele>958.59997558594</ele>
        <time>2021-09-01T06:34:09.518Z</time>
      </trkpt>
      <trkpt lat="44.40444" lon="6.15354">
        <ele>958.59997558594</ele>
        <time>2021-09-01T06:34:10.291Z</time>
      </trkpt>
      <trkpt lat="44.40435" lon="6.15347">
        <ele>956.79998779297</ele>
        <time>2021-09-01T06:34:11.067Z</time>
      </trkpt>
      <trkpt lat="44.4043" lon="6.15352">
        <ele>956.40002441406</ele>
        <time>2021-09-01T06:34:11.845Z</time>
      </trkpt>
      <trkpt lat="44.4039" lon="6.15377">
        <ele>953</ele>
        <time>2021-09-01T06:34:12.636Z</time>
      </trkpt>
      <trkpt lat="44.4038" lon="6.15387">
        <ele>953</ele>
        <time>2021-09-01T06:34:13.430Z</time>
      </trkpt>
      <trkpt lat="44.40364" lon="6.15409">
        <ele>953.20001220703</ele>
        <time>2021-09-01T06:34:14.231Z</time>
      </trkpt>
      <trkpt lat="44.40351" lon="6.15411">
        <ele>953.20001220703</ele>
        <time>2021-09-01T06:34:15.036Z</time>
      </trkpt>
      <trkpt lat="44.40333" lon="6.15396">
        <ele>954</ele>
        <time>2021-09-01T06:34:15.847Z</time>
      </trkpt>
      <trkpt lat="44.40329" lon="6.15383">
        <ele>954</ele>
        <time>2021-09-01T06:34:16.661Z</time>
      </trkpt>
      <trkpt lat="44.40316" lon="6.15375">
        <ele>954</ele>
        <time>2021-09-01T06:34:17.479Z</time>
      </trkpt>
      <trkpt lat="44.40298" lon="6.15356">
        <ele>956.20001220703</ele>
        <time>2021-09-01T06:34:18.303Z</time>
      </trkpt>
      <trkpt lat="44.40292" lon="6.15355">
        <ele>956.20001220703</ele>
        <time>2021-09-01T06:34:19.129Z</time>
      </trkpt>
      <trkpt lat="44.40283" lon="6.15357">
        <ele>957.40002441406</ele>
        <time>2021-09-01T06:34:19.958Z</time>
      </trkpt>
      <trkpt lat="44.40277" lon="6.1536">
        <ele>957.40002441406</ele>
        <time>2021-09-01T06:34:20.788Z</time>
      </trkpt>
      <trkpt lat="44.40273" lon="6.15368">
        <ele>958.20001220703</ele>
        <time>2021-09-01T06:34:21.620Z</time>
      </trkpt>
      <trkpt lat="44.40271" lon="6.15386">
        <ele>958.79998779297</ele>
        <time>2021-09-01T06:34:22.456Z</time>
      </trkpt>
      <trkpt lat="44.4025" lon="6.15411">
        <ele>958.79998779297</ele>
        <time>2021-09-01T06:34:23.300Z</time>
      </trkpt>
      <trkpt lat="44.40225" lon="6.15428">
        <ele>958.79998779297</ele>
        <time>2021-09-01T06:34:24.152Z</time>
      </trkpt>
      <trkpt lat="44.40208" lon="6.15447">
        <ele>962</ele>
        <time>2021-09-01T06:34:25.011Z</time>
      </trkpt>
      <trkpt lat="44.402" lon="6.1545">
        <ele>962</ele>
        <time>2021-09-01T06:34:25.872Z</time>
      </trkpt>
      <trkpt lat="44.40186" lon="6.15446">
        <ele>963</ele>
        <time>2021-09-01T06:34:26.737Z</time>
      </trkpt>
      <trkpt lat="44.40173" lon="6.15445">
        <ele>964.20001220703</ele>
        <time>2021-09-01T06:34:27.606Z</time>
      </trkpt>
      <trkpt lat="44.40167" lon="6.15439">
        <ele>964.79998779297</ele>
        <time>2021-09-01T06:34:28.477Z</time>
      </trkpt>
      <trkpt lat="44.40158" lon="6.15439">
        <ele>964.79998779297</ele>
        <time>2021-09-01T06:34:29.351Z</time>
      </trkpt>
      <trkpt lat="44.40116" lon="6.15484">
        <ele>964.59997558594</ele>
        <time>2021-09-01T06:34:30.240Z</time>
      </trkpt>
      <trkpt lat="44.40073" lon="6.15515">
        <ele>966.79998779297</ele>
        <time>2021-09-01T06:34:31.143Z</time>
      </trkpt>
      <trkpt lat="44.40057" lon="6.15535">
        <ele>966.79998779297</ele>
        <time>2021-09-01T06:34:32.052Z</time>
      </trkpt>
      <trkpt lat="44.40053" lon="6.15548">
        <ele>966.79998779297</ele>
        <time>2021-09-01T06:34:32.965Z</time>
      </trkpt>
      <trkpt lat="44.4005" lon="6.15553">
        <ele>970.59997558594</ele>
        <time>2021-09-01T06:34:33.879Z</time>
      </trkpt>
      <trkpt lat="44.40046" lon="6.15556">
        <ele>970.59997558594</ele>
        <time>2021-09-01T06:34:34.794Z</time>
      </trkpt>
      <trkpt lat="44.40023" lon="6.15566">
        <ele>970.59997558594</ele>
        <time>2021-09-01T06:34:35.716Z</time>
      </trkpt>
      <trkpt lat="44.3999" lon="6.15554">
        <ele>970.59997558594</ele>
        <time>2021-09-01T06:34:36.648Z</time>
      </trkpt>
      <trkpt lat="44.39971" lon="6.15558">
        <ele>974.40002441406</ele>
        <time>2021-09-01T06:34:37.586Z</time>
      </trkpt>
      <trkpt lat="44.39927" lon="6.15569">
        <ele>974.40002441406</ele>
        <time>2021-09-01T06:34:38.537Z</time>
      </trkpt>
      <trkpt lat="44.39921" lon="6.15572">
        <ele>978.20001220703</ele>
        <time>2021-09-01T06:34:39.489Z</time>
      </trkpt>
      <trkpt lat="44.39912" lon="6.15583">
        <ele>977</ele>
        <time>2021-09-01T06:34:40.445Z</time>
      </trkpt>
      <trkpt lat="44.39906" lon="6.15593">
        <ele>975.79998779297</ele>
        <time>2021-09-01T06:34:41.404Z</time>
      </trkpt>
      <trkpt lat="44.39899" lon="6.15611">
        <ele>976.20001220703</ele>
        <time>2021-09-01T06:34:42.367Z</time>
      </trkpt>
      <trkpt lat="44.399" lon="6.15618">
        <ele>976.20001220703</ele>
        <time>2021-09-01T06:34:43.331Z</time>
      </trkpt>
      <trkpt lat="44.39909" lon="6.1564">
        <ele>979.59997558594</ele>
        <time>2021-09-01T06:34:44.301Z</time>
      </trkpt>
      <trkpt lat="44.3991" lon="6.15649">
        <ele>979.59997558594</ele>
        <time>2021-09-01T06:34:45.273Z</time>
      </trkpt>
      <trkpt lat="44.39915" lon="6.15659">
        <ele>979.59997558594</ele>
        <time>2021-09-01T06:34:46.247Z</time>
      </trkpt>
      <trkpt lat="44.3994" lon="6.15691">
        <ele>986</ele>
        <time>2021-09-01T06:34:47.231Z</time>
      </trkpt>
      <trkpt lat="44.39949" lon="6.15707">
        <ele>986</ele>
        <time>2021-09-01T06:34:48.219Z</time>
      </trkpt>
      <trkpt lat="44.39962" lon="6.15726">
        <ele>992.20001220703</ele>
        <time>2021-09-01T06:34:49.213Z</time>
      </trkpt>
      <trkpt lat="44.39974" lon="6.15734">
        <ele>994.59997558594</ele>
        <time>2021-09-01T06:34:50.210Z</time>
      </trkpt>
      <trkpt lat="44.39992" lon="6.1574">
        <ele>998.59997558594</ele>
        <time>2021-09-01T06:34:51.213Z</time>
      </trkpt>
      <trkpt lat="44.40039" lon="6.15709">
        <ele>1005</ele>
        <time>2021-09-01T06:34:52.231Z</time>
      </trkpt>
      <trkpt lat="44.40063" lon="6.15696">
        <ele>1005</ele>
        <time>2021-09-01T06:34:53.256Z</time>
      </trkpt>
      <trkpt lat="44.40084" lon="6.15689">
        <ele>1009</ele>
        <time>2021-09-01T06:34:54.288Z</time>
      </trkpt>
      <trkpt lat="44.40092" lon="6.15679">
        <ele>1010</ele>
        <time>2021-09-01T06:34:55.323Z</time>
      </trkpt>
      <trkpt lat="44.40112" lon="6.15636">
        <ele>1014.200012207</ele>
        <time>2021-09-01T06:34:56.368Z</time>
      </trkpt>
      <trkpt lat="44.40119" lon="6.15635">
        <ele>1014.200012207</ele>
        <time>2021-09-01T06:34:57.416Z</time>
      </trkpt>
      <trkpt lat="44.4012" lon="6.15645">
        <ele>1015.799987793</ele>
        <time>2021-09-01T06:34:58.466Z</time>
      </trkpt>
      <trkpt lat="44.40116" lon="6.1566">
        <ele>1015.799987793</ele>
        <time>2021-09-01T06:34:59.519Z</time>
      </trkpt>
      <trkpt lat="44.40105" lon="6.15697">
        <ele>1015.799987793</ele>
        <time>2021-09-01T06:35:00.580Z</time>
      </trkpt>
      <trkpt lat="44.40105" lon="6.1571">
        <ele>1020</ele>
        <time>2021-09-01T06:35:01.644Z</time>
      </trkpt>
      <trkpt lat="44.40114" lon="6.15726">
        <ele>1020</ele>
        <time>2021-09-01T06:35:02.712Z</time>
      </trkpt>
      <trkpt lat="44.40118" lon="6.15736">
        <ele>1020</ele>
        <time>2021-09-01T06:35:03.783Z</time>
      </trkpt>
      <trkpt lat="44.40125" lon="6.15746">
        <ele>1020</ele>
        <time>2021-09-01T06:35:04.857Z</time>
      </trkpt>
      <trkpt lat="44.40133" lon="6.15759">
        <ele>1025</ele>
        <time>2021-09-01T06:35:05.934Z</time>
      </trkpt>
      <trkpt lat="44.40129" lon="6.15772">
        <ele>1025</ele>
        <time>2021-09-01T06:35:07.014Z</time>
      </trkpt>
      <trkpt lat="44.40107" lon="6.15812">
        <ele>1025</ele>
        <time>2021-09-01T06:35:08.104Z</time>
      </trkpt>
      <trkpt lat="44.40091" lon="6.15855">
        <ele>1025</ele>
        <time>2021-09-01T06:35:09.204Z</time>
      </trkpt>
      <trkpt lat="44.40085" lon="6.15877">
        <ele>1026.8000488281</ele>
        <time>2021-09-01T06:35:10.309Z</time>
      </trkpt>
      <trkpt lat="44.40078" lon="6.15896">
        <ele>1026.8000488281</ele>
        <time>2021-09-01T06:35:11.419Z</time>
      </trkpt>
      <trkpt lat="44.40077" lon="6.15927">
        <ele>1023.4000244141</ele>
        <time>2021-09-01T06:35:12.535Z</time>
      </trkpt>
      <trkpt lat="44.40068" lon="6.15938">
        <ele>1023.4000244141</ele>
        <time>2021-09-01T06:35:13.655Z</time>
      </trkpt>
      <trkpt lat="44.40055" lon="6.15937">
        <ele>1022.799987793</ele>
        <time>2021-09-01T06:35:14.779Z</time>
      </trkpt>
      <trkpt lat="44.40044" lon="6.15921">
        <ele>1022.799987793</ele>
        <time>2021-09-01T06:35:15.907Z</time>
      </trkpt>
      <trkpt lat="44.40031" lon="6.15895">
        <ele>1022.799987793</ele>
        <time>2021-09-01T06:35:17.042Z</time>
      </trkpt>
      <trkpt lat="44.40018" lon="6.15889">
        <ele>1020.5999755859</ele>
        <time>2021-09-01T06:35:18.181Z</time>
      </trkpt>
      <trkpt lat="44.40002" lon="6.15893">
        <ele>1019.5999755859</ele>
        <time>2021-09-01T06:35:19.324Z</time>
      </trkpt>
      <trkpt lat="44.39999" lon="6.15893">
        <ele>1019.5999755859</ele>
        <time>2021-09-01T06:35:20.468Z</time>
      </trkpt>
      <trkpt lat="44.39994" lon="6.1589">
        <ele>1019.4000244141</ele>
        <time>2021-09-01T06:35:21.614Z</time>
      </trkpt>
      <trkpt lat="44.3998" lon="6.15858">
        <ele>1019.4000244141</ele>
        <time>2021-09-01T06:35:22.768Z</time>
      </trkpt>
      <trkpt lat="44.3996" lon="6.1584">
        <ele>1019</ele>
        <time>2021-09-01T06:35:23.929Z</time>
      </trkpt>
      <trkpt lat="44.3995" lon="6.15833">
        <ele>1019</ele>
        <time>2021-09-01T06:35:25.093Z</time>
      </trkpt>
      <trkpt lat="44.39898" lon="6.15804">
        <ele>1019</ele>
        <time>2021-09-01T06:35:26.273Z</time>
      </trkpt>
      <trkpt lat="44.39885" lon="6.15799">
        <ele>1019</ele>
        <time>2021-09-01T06:35:27.457Z</time>
      </trkpt>
      <trkpt lat="44.39873" lon="6.15801">
        <ele>1016.799987793</ele>
        <time>2021-09-01T06:35:28.645Z</time>
      </trkpt>
      <trkpt lat="44.39859" lon="6.15828">
        <ele>1016.200012207</ele>
        <time>2021-09-01T06:35:29.840Z</time>
      </trkpt>
      <trkpt lat="44.39844" lon="6.1585">
        <ele>1016.200012207</ele>
        <time>2021-09-01T06:35:31.041Z</time>
      </trkpt>
      <trkpt lat="44.39809" lon="6.15879">
        <ele>1016.200012207</ele>
        <time>2021-09-01T06:35:32.254Z</time>
      </trkpt>
      <trkpt lat="44.39774" lon="6.15893">
        <ele>1015.200012207</ele>
        <time>2021-09-01T06:35:33.477Z</time>
      </trkpt>
      <trkpt lat="44.39755" lon="6.15898">
        <ele>1015.200012207</ele>
        <time>2021-09-01T06:35:34.706Z</time>
      </trkpt>
      <trkpt lat="44.39742" lon="6.15895">
        <ele>1015.200012207</ele>
        <time>2021-09-01T06:35:35.939Z</time>
      </trkpt>
      <trkpt lat="44.39737" lon="6.15897">
        <ele>1014.5999755859</ele>
        <time>2021-09-01T06:35:37.173Z</time>
      </trkpt>
      <trkpt lat="44.39721" lon="6.1591">
        <ele>1014.5999755859</ele>
        <time>2021-09-01T06:35:38.413Z</time>
      </trkpt>
      <trkpt lat="44.39702" lon="6.15916">
        <ele>1015.5999755859</ele>
        <time>2021-09-01T06:35:39.658Z</time>
      </trkpt>
      <trkpt lat="44.39691" lon="6.15915">
        <ele>1015.5999755859</ele>
        <time>2021-09-01T06:35:40.907Z</time>
      </trkpt>
      <trkpt lat="44.39681" lon="6.15911">
        <ele>1017.200012207</ele>
        <time>2021-09-01T06:35:42.159Z</time>
      </trkpt>
      <trkpt lat="44.3966" lon="6.15899">
        <ele>1017.200012207</ele>
        <time>2021-09-01T06:35:43.417Z</time>
      </trkpt>
      <trkpt lat="44.39635" lon="6.15889">
        <ele>1022.4000244141</ele>
        <time>2021-09-01T06:35:44.683Z</time>
      </trkpt>
      <trkpt lat="44.39625" lon="6.1588">
        <ele>1022.4000244141</ele>
        <time>2021-09-01T06:35:45.952Z</time>
      </trkpt>
      <trkpt lat="44.39624" lon="6.15868">
        <ele>1022.4000244141</ele>
        <time>2021-09-01T06:35:47.223Z</time>
      </trkpt>
      <trkpt lat="44.39633" lon="6.15838">
        <ele>1022.4000244141</ele>
        <time>2021-09-01T06:35:48.501Z</time>
      </trkpt>
      <trkpt lat="44.39638" lon="6.15787">
        <ele>1022.4000244141</ele>
        <time>2021-09-01T06:35:49.790Z</time>
      </trkpt>
      <trkpt lat="44.39654" lon="6.15718">
        <ele>1022.4000244141</ele>
        <time>2021-09-01T06:35:51.094Z</time>
      </trkpt>
      <trkpt lat="44.39653" lon="6.15697">
        <ele>1022.4000244141</ele>
        <time>2021-09-01T06:35:52.402Z</time>
      </trkpt>
      <trkpt lat="44.39631" lon="6.15628">
        <ele>1038.4000244141</ele>
        <time>2021-09-01T06:35:53.726Z</time>
      </trkpt>
      <trkpt lat="44.396" lon="6.15557">
        <ele>1038.4000244141</ele>
        <time>2021-09-01T06:35:55.068Z</time>
      </trkpt>
      <trkpt lat="44.39581" lon="6.15477">
        <ele>1035.4000244141</ele>
        <time>2021-09-01T06:35:56.427Z</time>
      </trkpt>
      <trkpt lat="44.3958" lon="6.15461">
        <ele>1035.1999511719</ele>
        <time>2021-09-01T06:35:57.789Z</time>
      </trkpt>
      <trkpt lat="44.39573" lon="6.15439">
        <ele>1035.1999511719</ele>
        <time>2021-09-01T06:35:59.156Z</time>
      </trkpt>
      <trkpt lat="44.39566" lon="6.15427">
        <ele>1035.1999511719</ele>
        <time>2021-09-01T06:36:00.527Z</time>
      </trkpt>
      <trkpt lat="44.39553" lon="6.15414">
        <ele>1035.1999511719</ele>
        <time>2021-09-01T06:36:01.902Z</time>
      </trkpt>
      <trkpt lat="44.39545" lon="6.15393">
        <ele>1032.8000488281</ele>
        <time>2021-09-01T06:36:03.282Z</time>
      </trkpt>
      <trkpt lat="44.3955" lon="6.15375">
        <ele>1032.4000244141</ele>
        <time>2021-09-01T06:36:04.666Z</time>
      </trkpt>
      <trkpt lat="44.39584" lon="6.1536">
        <ele>1032.4000244141</ele>
        <time>2021-09-01T06:36:06.061Z</time>
      </trkpt>
      <trkpt lat="44.39587" lon="6.15352">
        <ele>1032.4000244141</ele>
        <time>2021-09-01T06:36:07.457Z</time>
      </trkpt>
      <trkpt lat="44.39588" lon="6.15309">
        <ele>1036.8000488281</ele>
        <time>2021-09-01T06:36:08.862Z</time>
      </trkpt>
      <trkpt lat="44.39576" lon="6.15272">
        <ele>1036.8000488281</ele>
        <time>2021-09-01T06:36:10.276Z</time>
      </trkpt>
      <trkpt lat="44.39573" lon="6.15259">
        <ele>1037.5999755859</ele>
        <time>2021-09-01T06:36:11.693Z</time>
      </trkpt>
      <trkpt lat="44.39571" lon="6.15218">
        <ele>1037.5999755859</ele>
        <time>2021-09-01T06:36:13.118Z</time>
      </trkpt>
      <trkpt lat="44.39566" lon="6.15195">
        <ele>1037.1999511719</ele>
        <time>2021-09-01T06:36:14.548Z</time>
      </trkpt>
      <trkpt lat="44.3955" lon="6.15181">
        <ele>1037.1999511719</ele>
        <time>2021-09-01T06:36:15.983Z</time>
      </trkpt>
      <trkpt lat="44.39536" lon="6.15187">
        <ele>1036.8000488281</ele>
        <time>2021-09-01T06:36:17.423Z</time>
      </trkpt>
      <trkpt lat="44.39521" lon="6.15197">
        <ele>1036.5999755859</ele>
        <time>2021-09-01T06:36:18.868Z</time>
      </trkpt>
      <trkpt lat="44.3951" lon="6.15199">
        <ele>1036.5999755859</ele>
        <time>2021-09-01T06:36:20.316Z</time>
      </trkpt>
      <trkpt lat="44.3949" lon="6.15191">
        <ele>1036.1999511719</ele>
        <time>2021-09-01T06:36:21.770Z</time>
      </trkpt>
      <trkpt lat="44.39476" lon="6.15181">
        <ele>1036.1999511719</ele>
        <time>2021-09-01T06:36:23.228Z</time>
      </trkpt>
      <trkpt lat="44.39467" lon="6.15171">
        <ele>1035.8000488281</ele>
        <time>2021-09-01T06:36:24.690Z</time>
      </trkpt>
      <trkpt lat="44.39456" lon="6.15143">
        <ele>1035.1999511719</ele>
        <time>2021-09-01T06:36:26.158Z</time>
      </trkpt>
      <trkpt lat="44.39451" lon="6.15107">
        <ele>1035.1999511719</ele>
        <time>2021-09-01T06:36:27.634Z</time>
      </trkpt>
      <trkpt lat="44.39448" lon="6.15057">
        <ele>1036.1999511719</ele>
        <time>2021-09-01T06:36:29.120Z</time>
      </trkpt>
      <trkpt lat="44.39449" lon="6.1503">
        <ele>1036.5999755859</ele>
        <time>2021-09-01T06:36:30.612Z</time>
      </trkpt>
      <trkpt lat="44.39453" lon="6.15011">
        <ele>1036.5999755859</ele>
        <time>2021-09-01T06:36:32.108Z</time>
      </trkpt>
      <trkpt lat="44.39458" lon="6.14999">
        <ele>1037.4000244141</ele>
        <time>2021-09-01T06:36:33.607Z</time>
      </trkpt>
      <trkpt lat="44.39477" lon="6.14976">
        <ele>1037.8000488281</ele>
        <time>2021-09-01T06:36:35.113Z</time>
      </trkpt>
      <trkpt lat="44.39481" lon="6.14961">
        <ele>1038.8000488281</ele>
        <time>2021-09-01T06:36:36.623Z</time>
      </trkpt>
      <trkpt lat="44.39477" lon="6.14918">
        <ele>1038.8000488281</ele>
        <time>2021-09-01T06:36:38.142Z</time>
      </trkpt>
      <trkpt lat="44.3948" lon="6.14876">
        <ele>1044.1999511719</ele>
        <time>2021-09-01T06:36:39.669Z</time>
      </trkpt>
      <trkpt lat="44.39478" lon="6.14867">
        <ele>1044.1999511719</ele>
        <time>2021-09-01T06:36:41.198Z</time>
      </trkpt>
      <trkpt lat="44.3947" lon="6.14847">
        <ele>1044.1999511719</ele>
        <time>2021-09-01T06:36:42.732Z</time>
      </trkpt>
      <trkpt lat="44.39454" lon="6.14818">
        <ele>1044.1999511719</ele>
        <time>2021-09-01T06:36:44.274Z</time>
      </trkpt>
      <trkpt lat="44.3945" lon="6.1479">
        <ele>1051.4000244141</ele>
        <time>2021-09-01T06:36:45.822Z</time>
      </trkpt>
      <trkpt lat="44.39451" lon="6.14766">
        <ele>1053</ele>
        <time>2021-09-01T06:36:47.375Z</time>
      </trkpt>
      <trkpt lat="44.39456" lon="6.14739">
        <ele>1053</ele>
        <time>2021-09-01T06:36:48.934Z</time>
      </trkpt>
      <trkpt lat="44.39462" lon="6.14725">
        <ele>1053</ele>
        <time>2021-09-01T06:36:50.496Z</time>
      </trkpt>
      <trkpt lat="44.39475" lon="6.14708">
        <ele>1053</ele>
        <time>2021-09-01T06:36:52.063Z</time>
      </trkpt>
      <trkpt lat="44.39481" lon="6.14691">
        <ele>1053</ele>
        <time>2021-09-01T06:36:53.634Z</time>
      </trkpt>
      <trkpt lat="44.39482" lon="6.14664">
        <ele>1053</ele>
        <time>2021-09-01T06:36:55.211Z</time>
      </trkpt>
      <trkpt lat="44.39475" lon="6.14632">
        <ele>1063.4000244141</ele>
        <time>2021-09-01T06:36:56.795Z</time>
      </trkpt>
      <trkpt lat="44.39474" lon="6.14617">
        <ele>1064.8000488281</ele>
        <time>2021-09-01T06:36:58.382Z</time>
      </trkpt>
      <trkpt lat="44.39476" lon="6.14587">
        <ele>1064.8000488281</ele>
        <time>2021-09-01T06:36:59.975Z</time>
      </trkpt>
      <trkpt lat="44.39482" lon="6.14573">
        <ele>1064.8000488281</ele>
        <time>2021-09-01T06:37:01.571Z</time>
      </trkpt>
      <trkpt lat="44.39489" lon="6.14566">
        <ele>1068.8000488281</ele>
        <time>2021-09-01T06:37:03.170Z</time>
      </trkpt>
      <trkpt lat="44.39502" lon="6.14557">
        <ele>1069.8000488281</ele>
        <time>2021-09-01T06:37:04.773Z</time>
      </trkpt>
      <trkpt lat="44.39518" lon="6.14543">
        <ele>1070.5999755859</ele>
        <time>2021-09-01T06:37:06.381Z</time>
      </trkpt>
      <trkpt lat="44.3955" lon="6.14518">
        <ele>1073</ele>
        <time>2021-09-01T06:37:08.000Z</time>
      </trkpt>
      <trkpt lat="44.3956" lon="6.14504">
        <ele>1073.8000488281</ele>
        <time>2021-09-01T06:37:09.623Z</time>
      </trkpt>
      <trkpt lat="44.39582" lon="6.1448">
        <ele>1073.8000488281</ele>
        <time>2021-09-01T06:37:11.254Z</time>
      </trkpt>
      <trkpt lat="44.39583" lon="6.14475">
        <ele>1075.1999511719</ele>
        <time>2021-09-01T06:37:12.887Z</time>
      </trkpt>
      <trkpt lat="44.39581" lon="6.14467">
        <ele>1075.1999511719</ele>
        <time>2021-09-01T06:37:14.521Z</time>
      </trkpt>
      <trkpt lat="44.39576" lon="6.14465">
        <ele>1076.4000244141</ele>
        <time>2021-09-01T06:37:16.157Z</time>
      </trkpt>
      <trkpt lat="44.39565" lon="6.14466">
        <ele>1076.4000244141</ele>
        <time>2021-09-01T06:37:17.796Z</time>
      </trkpt>
      <trkpt lat="44.39556" lon="6.14462">
        <ele>1078.8000488281</ele>
        <time>2021-09-01T06:37:19.438Z</time>
      </trkpt>
      <trkpt lat="44.39549" lon="6.14455">
        <ele>1080.4000244141</ele>
        <time>2021-09-01T06:37:21.082Z</time>
      </trkpt>
      <trkpt lat="44.39549" lon="6.14453">
        <ele>1080.4000244141</ele>
        <time>2021-09-01T06:37:22.727Z</time>
      </trkpt>
      <trkpt lat="44.39568" lon="6.14443">
        <ele>1080.4000244141</ele>
        <time>2021-09-01T06:37:24.377Z</time>
      </trkpt>
      <trkpt lat="44.39569" lon="6.14441">
        <ele>1082.8000488281</ele>
        <time>2021-09-01T06:37:26.028Z</time>
      </trkpt>
      <trkpt lat="44.39573" lon="6.14405">
        <ele>1082.8000488281</ele>
        <time>2021-09-01T06:37:27.686Z</time>
      </trkpt>
      <trkpt lat="44.39571" lon="6.1437">
        <ele>1091</ele>
        <time>2021-09-01T06:37:29.352Z</time>
      </trkpt>
      <trkpt lat="44.39573" lon="6.14352">
        <ele>1091</ele>
        <time>2021-09-01T06:37:31.021Z</time>
      </trkpt>
      <trkpt lat="44.39575" lon="6.14343">
        <ele>1094.8000488281</ele>
        <time>2021-09-01T06:37:32.692Z</time>
      </trkpt>
      <trkpt lat="44.39592" lon="6.14297">
        <ele>1098.8000488281</ele>
        <time>2021-09-01T06:37:34.374Z</time>
      </trkpt>
      <trkpt lat="44.39592" lon="6.14293">
        <ele>1099.5999755859</ele>
        <time>2021-09-01T06:37:36.057Z</time>
      </trkpt>
      <trkpt lat="44.39588" lon="6.14284">
        <ele>1099.5999755859</ele>
        <time>2021-09-01T06:37:37.742Z</time>
      </trkpt>
      <trkpt lat="44.39585" lon="6.14267">
        <ele>1099.5999755859</ele>
        <time>2021-09-01T06:37:39.431Z</time>
      </trkpt>
      <trkpt lat="44.3959" lon="6.14216">
        <ele>1099.5999755859</ele>
        <time>2021-09-01T06:37:41.131Z</time>
      </trkpt>
      <trkpt lat="44.3959" lon="6.14169">
        <ele>1099.5999755859</ele>
        <time>2021-09-01T06:37:42.840Z</time>
      </trkpt>
      <trkpt lat="44.39585" lon="6.14162">
        <ele>1088.1999511719</ele>
        <time>2021-09-01T06:37:44.552Z</time>
      </trkpt>
      <trkpt lat="44.39576" lon="6.14161">
        <ele>1088.1999511719</ele>
        <time>2021-09-01T06:37:46.266Z</time>
      </trkpt>
      <trkpt lat="44.39571" lon="6.14152">
        <ele>1088.1999511719</ele>
        <time>2021-09-01T06:37:47.982Z</time>
      </trkpt>
      <trkpt lat="44.39561" lon="6.14146">
        <ele>1091.4000244141</ele>
        <time>2021-09-01T06:37:49.702Z</time>
      </trkpt>
      <trkpt lat="44.39556" lon="6.14147">
        <ele>1091.4000244141</ele>
        <time>2021-09-01T06:37:51.423Z</time>
      </trkpt>
      <trkpt lat="44.39533" lon="6.14163">
        <ele>1091.4000244141</ele>
        <time>2021-09-01T06:37:53.151Z</time>
      </trkpt>
      <trkpt lat="44.39527" lon="6.14165">
        <ele>1097.8000488281</ele>
        <time>2021-09-01T06:37:54.881Z</time>
      </trkpt>
      <trkpt lat="44.39516" lon="6.14166">
        <ele>1097.8000488281</ele>
        <time>2021-09-01T06:37:56.614Z</time>
      </trkpt>
      <trkpt lat="44.39509" lon="6.1416">
        <ele>1097.8000488281</ele>
        <time>2021-09-01T06:37:58.350Z</time>
      </trkpt>
      <trkpt lat="44.39505" lon="6.1415">
        <ele>1097.8000488281</ele>
        <time>2021-09-01T06:38:00.088Z</time>
      </trkpt>
      <trkpt lat="44.39505" lon="6.14135">
        <ele>1097.8000488281</ele>
        <time>2021-09-01T06:38:01.829Z</time>
      </trkpt>
      <trkpt lat="44.39523" lon="6.14073">
        <ele>1106</ele>
        <time>2021-09-01T06:38:03.584Z</time>
      </trkpt>
      <trkpt lat="44.39523" lon="6.14054">
        <ele>1106</ele>
        <time>2021-09-01T06:38:05.343Z</time>
      </trkpt>
      <trkpt lat="44.39515" lon="6.14028">
        <ele>1105.5999755859</ele>
        <time>2021-09-01T06:38:07.108Z</time>
      </trkpt>
      <trkpt lat="44.39504" lon="6.14003">
        <ele>1105.5999755859</ele>
        <time>2021-09-01T06:38:08.879Z</time>
      </trkpt>
      <trkpt lat="44.39494" lon="6.13984">
        <ele>1105.4000244141</ele>
        <time>2021-09-01T06:38:10.655Z</time>
      </trkpt>
      <trkpt lat="44.39482" lon="6.13969">
        <ele>1106.8000488281</ele>
        <time>2021-09-01T06:38:12.436Z</time>
      </trkpt>
      <trkpt lat="44.39466" lon="6.13956">
        <ele>1106.8000488281</ele>
        <time>2021-09-01T06:38:14.222Z</time>
      </trkpt>
      <trkpt lat="44.39452" lon="6.13955">
        <ele>1112.1999511719</ele>
        <time>2021-09-01T06:38:16.012Z</time>
      </trkpt>
      <trkpt lat="44.39441" lon="6.13944">
        <ele>1113.5999755859</ele>
        <time>2021-09-01T06:38:17.806Z</time>
      </trkpt>
      <trkpt lat="44.39429" lon="6.13946">
        <ele>1113.5999755859</ele>
        <time>2021-09-01T06:38:19.604Z</time>
      </trkpt>
      <trkpt lat="44.39416" lon="6.13954">
        <ele>1119.8000488281</ele>
        <time>2021-09-01T06:38:21.406Z</time>
      </trkpt>
      <trkpt lat="44.3941" lon="6.13951">
        <ele>1123.1999511719</ele>
        <time>2021-09-01T06:38:23.210Z</time>
      </trkpt>
      <trkpt lat="44.394" lon="6.13958">
        <ele>1124.5999755859</ele>
        <time>2021-09-01T06:38:25.017Z</time>
      </trkpt>
      <trkpt lat="44.39395" lon="6.1396">
        <ele>1124.5999755859</ele>
        <time>2021-09-01T06:38:26.825Z</time>
      </trkpt>
      <trkpt lat="44.39388" lon="6.13971">
        <ele>1124.5999755859</ele>
        <time>2021-09-01T06:38:28.636Z</time>
      </trkpt>
      <trkpt lat="44.39385" lon="6.1397">
        <ele>1126</ele>
        <time>2021-09-01T06:38:30.448Z</time>
      </trkpt>
      <trkpt lat="44.3938" lon="6.13965">
        <ele>1126</ele>
        <time>2021-09-01T06:38:32.262Z</time>
      </trkpt>
      <trkpt lat="44.39373" lon="6.13939">
        <ele>1131.5999755859</ele>
        <time>2021-09-01T06:38:34.082Z</time>
      </trkpt>
      <trkpt lat="44.39364" lon="6.13918">
        <ele>1135</ele>
        <time>2021-09-01T06:38:35.907Z</time>
      </trkpt>
      <trkpt lat="44.39355" lon="6.13887">
        <ele>1135</ele>
        <time>2021-09-01T06:38:37.739Z</time>
      </trkpt>
      <trkpt lat="44.39346" lon="6.13877">
        <ele>1135</ele>
        <time>2021-09-01T06:38:39.574Z</time>
      </trkpt>
      <trkpt lat="44.39344" lon="6.13871">
        <ele>1135</ele>
        <time>2021-09-01T06:38:41.411Z</time>
      </trkpt>
      <trkpt lat="44.39344" lon="6.13857">
        <ele>1142</ele>
        <time>2021-09-01T06:38:43.250Z</time>
      </trkpt>
      <trkpt lat="44.39348" lon="6.13833">
        <ele>1145.8000488281</ele>
        <time>2021-09-01T06:38:45.095Z</time>
      </trkpt>
      <trkpt lat="44.39354" lon="6.13824">
        <ele>1147.5999755859</ele>
        <time>2021-09-01T06:38:46.942Z</time>
      </trkpt>
      <trkpt lat="44.39361" lon="6.13804">
        <ele>1147.5999755859</ele>
        <time>2021-09-01T06:38:48.794Z</time>
      </trkpt>
      <trkpt lat="44.39368" lon="6.13761">
        <ele>1154.1999511719</ele>
        <time>2021-09-01T06:38:50.655Z</time>
      </trkpt>
      <trkpt lat="44.39383" lon="6.1374">
        <ele>1160.1999511719</ele>
        <time>2021-09-01T06:38:52.522Z</time>
      </trkpt>
      <trkpt lat="44.39396" lon="6.13729">
        <ele>1160.1999511719</ele>
        <time>2021-09-01T06:38:54.394Z</time>
      </trkpt>
      <trkpt lat="44.39413" lon="6.13703">
        <ele>1169.8000488281</ele>
        <time>2021-09-01T06:38:56.273Z</time>
      </trkpt>
      <trkpt lat="44.3942" lon="6.13672">
        <ele>1174</ele>
        <time>2021-09-01T06:38:58.159Z</time>
      </trkpt>
      <trkpt lat="44.3943" lon="6.13651">
        <ele>1176.8000488281</ele>
        <time>2021-09-01T06:39:00.050Z</time>
      </trkpt>
      <trkpt lat="44.39442" lon="6.13632">
        <ele>1181</ele>
        <time>2021-09-01T06:39:01.946Z</time>
      </trkpt>
      <trkpt lat="44.39443" lon="6.13622">
        <ele>1182.5999755859</ele>
        <time>2021-09-01T06:39:03.844Z</time>
      </trkpt>
      <trkpt lat="44.3944" lon="6.13612">
        <ele>1182.5999755859</ele>
        <time>2021-09-01T06:39:05.745Z</time>
      </trkpt>
      <trkpt lat="44.39441" lon="6.13601">
        <ele>1183.8000488281</ele>
        <time>2021-09-01T06:39:07.648Z</time>
      </trkpt>
      <trkpt lat="44.39446" lon="6.13583">
        <ele>1184.5999755859</ele>
        <time>2021-09-01T06:39:09.555Z</time>
      </trkpt>
      <trkpt lat="44.39436" lon="6.1358">
        <ele>1184.5999755859</ele>
        <time>2021-09-01T06:39:11.465Z</time>
      </trkpt>
      <trkpt lat="44.3944" lon="6.13565">
        <ele>1184.8000488281</ele>
        <time>2021-09-01T06:39:13.378Z</time>
      </trkpt>
      <trkpt lat="44.39444" lon="6.1356">
        <ele>1184.8000488281</ele>
        <time>2021-09-01T06:39:15.293Z</time>
      </trkpt>
      <trkpt lat="44.39469" lon="6.13544">
        <ele>1184.8000488281</ele>
        <time>2021-09-01T06:39:17.215Z</time>
      </trkpt>
      <trkpt lat="44.39479" lon="6.13531">
        <ele>1178</ele>
        <time>2021-09-01T06:39:19.142Z</time>
      </trkpt>
      <trkpt lat="44.39492" lon="6.13499">
        <ele>1178</ele>
        <time>2021-09-01T06:39:21.076Z</time>
      </trkpt>
      <trkpt lat="44.39505" lon="6.13484">
        <ele>1186</ele>
        <time>2021-09-01T06:39:23.015Z</time>
      </trkpt>
      <trkpt lat="44.39517" lon="6.13454">
        <ele>1186</ele>
        <time>2021-09-01T06:39:24.961Z</time>
      </trkpt>
      <trkpt lat="44.39527" lon="6.13439">
        <ele>1195.1999511719</ele>
        <time>2021-09-01T06:39:26.912Z</time>
      </trkpt>
      <trkpt lat="44.39528" lon="6.13434">
        <ele>1195.1999511719</ele>
        <time>2021-09-01T06:39:28.864Z</time>
      </trkpt>
      <trkpt lat="44.39524" lon="6.13432">
        <ele>1195.1999511719</ele>
        <time>2021-09-01T06:39:30.817Z</time>
      </trkpt>
      <trkpt lat="44.39508" lon="6.13438">
        <ele>1195.1999511719</ele>
        <time>2021-09-01T06:39:32.775Z</time>
      </trkpt>
      <trkpt lat="44.39498" lon="6.13445">
        <ele>1205</ele>
        <time>2021-09-01T06:39:34.736Z</time>
      </trkpt>
      <trkpt lat="44.39495" lon="6.13444">
        <ele>1205</ele>
        <time>2021-09-01T06:39:36.698Z</time>
      </trkpt>
      <trkpt lat="44.39494" lon="6.13441">
        <ele>1207.1999511719</ele>
        <time>2021-09-01T06:39:38.660Z</time>
      </trkpt>
      <trkpt lat="44.39496" lon="6.13436">
        <ele>1207.1999511719</ele>
        <time>2021-09-01T06:39:40.623Z</time>
      </trkpt>
      <trkpt lat="44.39505" lon="6.13422">
        <ele>1207.1999511719</ele>
        <time>2021-09-01T06:39:42.590Z</time>
      </trkpt>
      <trkpt lat="44.39512" lon="6.13407">
        <ele>1207.1999511719</ele>
        <time>2021-09-01T06:39:44.561Z</time>
      </trkpt>
      <trkpt lat="44.39518" lon="6.13396">
        <ele>1207.1999511719</ele>
        <time>2021-09-01T06:39:46.535Z</time>
      </trkpt>
      <trkpt lat="44.39527" lon="6.13386">
        <ele>1218.5999755859</ele>
        <time>2021-09-01T06:39:48.512Z</time>
      </trkpt>
      <trkpt lat="44.39531" lon="6.13377">
        <ele>1218.5999755859</ele>
        <time>2021-09-01T06:39:50.492Z</time>
      </trkpt>
      <trkpt lat="44.39541" lon="6.1337">
        <ele>1223.1999511719</ele>
        <time>2021-09-01T06:39:52.475Z</time>
      </trkpt>
      <trkpt lat="44.39545" lon="6.13371">
        <ele>1224.4000244141</ele>
        <time>2021-09-01T06:39:54.459Z</time>
      </trkpt>
      <trkpt lat="44.39562" lon="6.13381">
        <ele>1224.4000244141</ele>
        <time>2021-09-01T06:39:56.448Z</time>
      </trkpt>
      <trkpt lat="44.39583" lon="6.13388">
        <ele>1224.4000244141</ele>
        <time>2021-09-01T06:39:58.444Z</time>
      </trkpt>
      <trkpt lat="44.39593" lon="6.13386">
        <ele>1224.4000244141</ele>
        <time>2021-09-01T06:40:00.442Z</time>
      </trkpt>
      <trkpt lat="44.39598" lon="6.13383">
        <ele>1224.4000244141</ele>
        <time>2021-09-01T06:40:02.442Z</time>
      </trkpt>
      <trkpt lat="44.39602" lon="6.13378">
        <ele>1224.4000244141</ele>
        <time>2021-09-01T06:40:04.444Z</time>
      </trkpt>
      <trkpt lat="44.39604" lon="6.1337">
        <ele>1224.4000244141</ele>
        <time>2021-09-01T06:40:06.447Z</time>
      </trkpt>
      <trkpt lat="44.39601" lon="6.13364">
        <ele>1224.4000244141</ele>
        <time>2021-09-01T06:40:08.452Z</time>
      </trkpt>
      <trkpt lat="44.39596" lon="6.13359">
        <ele>1224.4000244141</ele>
        <time>2021-09-01T06:40:10.459Z</time>
      </trkpt>
      <trkpt lat="44.39585" lon="6.13354">
        <ele>1224.4000244141</ele>
        <time>2021-09-01T06:40:12.469Z</time>
      </trkpt>
      <trkpt lat="44.39569" lon="6.13332">
        <ele>1247.1999511719</ele>
        <time>2021-09-01T06:40:14.486Z</time>
      </trkpt>
      <trkpt lat="44.39559" lon="6.13322">
        <ele>1249.4000244141</ele>
        <time>2021-09-01T06:40:16.506Z</time>
      </trkpt>
      <trkpt lat="44.39532" lon="6.1331">
        <ele>1255.4000244141</ele>
        <time>2021-09-01T06:40:18.535Z</time>
      </trkpt>
      <trkpt lat="44.39523" lon="6.13309">
        <ele>1255.4000244141</ele>
        <time>2021-09-01T06:40:20.566Z</time>
      </trkpt>
      <trkpt lat="44.39516" lon="6.13311">
        <ele>1255.4000244141</ele>
        <time>2021-09-01T06:40:22.599Z</time>
      </trkpt>
      <trkpt lat="44.39512" lon="6.1331">
        <ele>1261.1999511719</ele>
        <time>2021-09-01T06:40:24.633Z</time>
      </trkpt>
      <trkpt lat="44.39512" lon="6.13306">
        <ele>1261.1999511719</ele>
        <time>2021-09-01T06:40:26.668Z</time>
      </trkpt>
      <trkpt lat="44.39529" lon="6.13286">
        <ele>1268.5999755859</ele>
        <time>2021-09-01T06:40:28.709Z</time>
      </trkpt>
      <trkpt lat="44.3954" lon="6.13276">
        <ele>1268.5999755859</ele>
        <time>2021-09-01T06:40:30.754Z</time>
      </trkpt>
      <trkpt lat="44.39543" lon="6.13269">
        <ele>1275.4000244141</ele>
        <time>2021-09-01T06:40:32.801Z</time>
      </trkpt>
      <trkpt lat="44.39564" lon="6.13256">
        <ele>1283.4000244141</ele>
        <time>2021-09-01T06:40:34.855Z</time>
      </trkpt>
      <trkpt lat="44.39575" lon="6.13246">
        <ele>1286.5999755859</ele>
        <time>2021-09-01T06:40:36.912Z</time>
      </trkpt>
      <trkpt lat="44.39581" lon="6.13236">
        <ele>1287.5999755859</ele>
        <time>2021-09-01T06:40:38.972Z</time>
      </trkpt>
      <trkpt lat="44.39596" lon="6.13226">
        <ele>1288.5999755859</ele>
        <time>2021-09-01T06:40:41.037Z</time>
      </trkpt>
      <trkpt lat="44.39607" lon="6.13215">
        <ele>1288.5999755859</ele>
        <time>2021-09-01T06:40:43.106Z</time>
      </trkpt>
      <trkpt lat="44.39611" lon="6.13195">
        <ele>1288.5999755859</ele>
        <time>2021-09-01T06:40:45.179Z</time>
      </trkpt>
      <trkpt lat="44.39615" lon="6.13189">
        <ele>1288.5999755859</ele>
        <time>2021-09-01T06:40:47.254Z</time>
      </trkpt>
      <trkpt lat="44.39635" lon="6.13194">
        <ele>1288.5999755859</ele>
        <time>2021-09-01T06:40:49.335Z</time>
      </trkpt>
      <trkpt lat="44.39646" lon="6.1319">
        <ele>1288.5999755859</ele>
        <time>2021-09-01T06:40:51.419Z</time>
      </trkpt>
      <trkpt lat="44.39656" lon="6.1318">
        <ele>1288.5999755859</ele>
        <time>2021-09-01T06:40:53.507Z</time>
      </trkpt>
      <trkpt lat="44.39661" lon="6.13181">
        <ele>1294</ele>
        <time>2021-09-01T06:40:55.596Z</time>
      </trkpt>
      <trkpt lat="44.39673" lon="6.13178">
        <ele>1292.5999755859</ele>
        <time>2021-09-01T06:40:57.689Z</time>
      </trkpt>
      <trkpt lat="44.39688" lon="6.1318">
        <ele>1291.5999755859</ele>
        <time>2021-09-01T06:40:59.786Z</time>
      </trkpt>
      <trkpt lat="44.39701" lon="6.13188">
        <ele>1291.5999755859</ele>
        <time>2021-09-01T06:41:01.887Z</time>
      </trkpt>
      <trkpt lat="44.39708" lon="6.13198">
        <ele>1291.5999755859</ele>
        <time>2021-09-01T06:41:03.991Z</time>
      </trkpt>
      <trkpt lat="44.39713" lon="6.13218">
        <ele>1289.1999511719</ele>
        <time>2021-09-01T06:41:06.100Z</time>
      </trkpt>
      <trkpt lat="44.39714" lon="6.13207">
        <ele>1289</ele>
        <time>2021-09-01T06:41:08.211Z</time>
      </trkpt>
      <trkpt lat="44.39722" lon="6.13179">
        <ele>1290.5999755859</ele>
        <time>2021-09-01T06:41:10.328Z</time>
      </trkpt>
      <trkpt lat="44.39728" lon="6.13172">
        <ele>1290.5999755859</ele>
        <time>2021-09-01T06:41:12.447Z</time>
      </trkpt>
      <trkpt lat="44.39755" lon="6.1316">
        <ele>1290.5999755859</ele>
        <time>2021-09-01T06:41:14.575Z</time>
      </trkpt>
      <trkpt lat="44.3976" lon="6.13155">
        <ele>1293.1999511719</ele>
        <time>2021-09-01T06:41:16.704Z</time>
      </trkpt>
      <trkpt lat="44.39764" lon="6.13147">
        <ele>1293.8000488281</ele>
        <time>2021-09-01T06:41:18.835Z</time>
      </trkpt>
      <trkpt lat="44.3977" lon="6.13147">
        <ele>1293.8000488281</ele>
        <time>2021-09-01T06:41:20.968Z</time>
      </trkpt>
      <trkpt lat="44.39778" lon="6.13151">
        <ele>1293.8000488281</ele>
        <time>2021-09-01T06:41:23.103Z</time>
      </trkpt>
      <trkpt lat="44.39782" lon="6.13163">
        <ele>1293.1999511719</ele>
        <time>2021-09-01T06:41:25.241Z</time>
      </trkpt>
      <trkpt lat="44.39781" lon="6.13177">
        <ele>1293.1999511719</ele>
        <time>2021-09-01T06:41:27.382Z</time>
      </trkpt>
      <trkpt lat="44.39787" lon="6.13185">
        <ele>1293</ele>
        <time>2021-09-01T06:41:29.526Z</time>
      </trkpt>
      <trkpt lat="44.39791" lon="6.13186">
        <ele>1293</ele>
        <time>2021-09-01T06:41:31.671Z</time>
      </trkpt>
      <trkpt lat="44.39803" lon="6.13179">
        <ele>1293</ele>
        <time>2021-09-01T06:41:33.819Z</time>
      </trkpt>
      <trkpt lat="44.3982" lon="6.13153">
        <ele>1293</ele>
        <time>2021-09-01T06:41:35.975Z</time>
      </trkpt>
      <trkpt lat="44.39846" lon="6.13108">
        <ele>1293</ele>
        <time>2021-09-01T06:41:38.143Z</time>
      </trkpt>
      <trkpt lat="44.3987" lon="6.1308">
        <ele>1294.5999755859</ele>
        <time>2021-09-01T06:41:40.320Z</time>
      </trkpt>
      <trkpt lat="44.39904" lon="6.13027">
        <ele>1289</ele>
        <time>2021-09-01T06:41:42.512Z</time>
      </trkpt>
      <trkpt lat="44.39917" lon="6.13013">
        <ele>1287</ele>
        <time>2021-09-01T06:41:44.708Z</time>
      </trkpt>
      <trkpt lat="44.39936" lon="6.13001">
        <ele>1287</ele>
        <time>2021-09-01T06:41:46.911Z</time>
      </trkpt>
      <trkpt lat="44.3994" lon="6.12996">
        <ele>1285.4000244141</ele>
        <time>2021-09-01T06:41:49.115Z</time>
      </trkpt>
      <trkpt lat="44.39983" lon="6.12936">
        <ele>1283.8000488281</ele>
        <time>2021-09-01T06:41:51.337Z</time>
      </trkpt>
      <trkpt lat="44.39987" lon="6.12919">
        <ele>1283</ele>
        <time>2021-09-01T06:41:53.562Z</time>
      </trkpt>
      <trkpt lat="44.40003" lon="6.12886">
        <ele>1283.1999511719</ele>
        <time>2021-09-01T06:41:55.796Z</time>
      </trkpt>
      <trkpt lat="44.40003" lon="6.12853">
        <ele>1281.8000488281</ele>
        <time>2021-09-01T06:41:58.037Z</time>
      </trkpt>
      <trkpt lat="44.40021" lon="6.12766">
        <ele>1281.8000488281</ele>
        <time>2021-09-01T06:42:00.297Z</time>
      </trkpt>
      <trkpt lat="44.40028" lon="6.12747">
        <ele>1276.5999755859</ele>
        <time>2021-09-01T06:42:02.561Z</time>
      </trkpt>
      <trkpt lat="44.40042" lon="6.12742">
        <ele>1276.5999755859</ele>
        <time>2021-09-01T06:42:04.829Z</time>
      </trkpt>
      <trkpt lat="44.40049" lon="6.12746">
        <ele>1274.4000244141</ele>
        <time>2021-09-01T06:42:07.100Z</time>
      </trkpt>
      <trkpt lat="44.40066" lon="6.12759">
        <ele>1271.1999511719</ele>
        <time>2021-09-01T06:42:09.376Z</time>
      </trkpt>
      <trkpt lat="44.40074" lon="6.12761">
        <ele>1268.4000244141</ele>
        <time>2021-09-01T06:42:11.654Z</time>
      </trkpt>
      <trkpt lat="44.40087" lon="6.12741">
        <ele>1264.5999755859</ele>
        <time>2021-09-01T06:42:13.938Z</time>
      </trkpt>
      <trkpt lat="44.40091" lon="6.12726">
        <ele>1264.5999755859</ele>
        <time>2021-09-01T06:42:16.225Z</time>
      </trkpt>
      <trkpt lat="44.40092" lon="6.12709">
        <ele>1264.4000244141</ele>
        <time>2021-09-01T06:42:18.516Z</time>
      </trkpt>
      <trkpt lat="44.40096" lon="6.12701">
        <ele>1264.4000244141</ele>
        <time>2021-09-01T06:42:20.809Z</time>
      </trkpt>
      <trkpt lat="44.40102" lon="6.12691">
        <ele>1263.8000488281</ele>
        <time>2021-09-01T06:42:23.105Z</time>
      </trkpt>
      <trkpt lat="44.40116" lon="6.12681">
        <ele>1263.8000488281</ele>
        <time>2021-09-01T06:42:25.405Z</time>
      </trkpt>
      <trkpt lat="44.40118" lon="6.12672">
        <ele>1260.4000244141</ele>
        <time>2021-09-01T06:42:27.707Z</time>
      </trkpt>
      <trkpt lat="44.40116" lon="6.1265">
        <ele>1260.8000488281</ele>
        <time>2021-09-01T06:42:30.014Z</time>
      </trkpt>
      <trkpt lat="44.40117" lon="6.12634">
        <ele>1260.8000488281</ele>
        <time>2021-09-01T06:42:32.324Z</time>
      </trkpt>
      <trkpt lat="44.40128" lon="6.12609">
        <ele>1260.8000488281</ele>
        <time>2021-09-01T06:42:34.640Z</time>
      </trkpt>
      <trkpt lat="44.40139" lon="6.12573">
        <ele>1260.8000488281</ele>
        <time>2021-09-01T06:42:36.964Z</time>
      </trkpt>
      <trkpt lat="44.40141" lon="6.12561">
        <ele>1261.1999511719</ele>
        <time>2021-09-01T06:42:39.291Z</time>
      </trkpt>
      <trkpt lat="44.4015" lon="6.12534">
        <ele>1261.1999511719</ele>
        <time>2021-09-01T06:42:41.624Z</time>
      </trkpt>
      <trkpt lat="44.40157" lon="6.1252">
        <ele>1261.1999511719</ele>
        <time>2021-09-01T06:42:43.961Z</time>
      </trkpt>
      <trkpt lat="44.4017" lon="6.12498">
        <ele>1261.1999511719</ele>
        <time>2021-09-01T06:42:46.304Z</time>
      </trkpt>
      <trkpt lat="44.40175" lon="6.12494">
        <ele>1263</ele>
        <time>2021-09-01T06:42:48.648Z</time>
      </trkpt>
      <trkpt lat="44.40186" lon="6.12492">
        <ele>1263</ele>
        <time>2021-09-01T06:42:50.995Z</time>
      </trkpt>
      <trkpt lat="44.40211" lon="6.12496">
        <ele>1263</ele>
        <time>2021-09-01T06:42:53.350Z</time>
      </trkpt>
      <trkpt lat="44.40224" lon="6.12501">
        <ele>1263</ele>
        <time>2021-09-01T06:42:55.709Z</time>
      </trkpt>
      <trkpt lat="44.40261" lon="6.12522">
        <ele>1263</ele>
        <time>2021-09-01T06:42:58.079Z</time>
      </trkpt>
      <trkpt lat="44.40271" lon="6.12521">
        <ele>1254.1999511719</ele>
        <time>2021-09-01T06:43:00.452Z</time>
      </trkpt>
      <trkpt lat="44.40277" lon="6.12511">
        <ele>1254.1999511719</ele>
        <time>2021-09-01T06:43:02.828Z</time>
      </trkpt>
      <trkpt lat="44.40283" lon="6.12499">
        <ele>1258.4000244141</ele>
        <time>2021-09-01T06:43:05.207Z</time>
      </trkpt>
      <trkpt lat="44.40294" lon="6.12491">
        <ele>1261.1999511719</ele>
        <time>2021-09-01T06:43:07.590Z</time>
      </trkpt>
      <trkpt lat="44.40298" lon="6.12488">
        <ele>1262.1999511719</ele>
        <time>2021-09-01T06:43:09.974Z</time>
      </trkpt>
      <trkpt lat="44.40307" lon="6.12489">
        <ele>1263.1999511719</ele>
        <time>2021-09-01T06:43:12.361Z</time>
      </trkpt>
      <trkpt lat="44.40322" lon="6.12487">
        <ele>1263.1999511719</ele>
        <time>2021-09-01T06:43:14.752Z</time>
      </trkpt>
      <trkpt lat="44.40326" lon="6.12484">
        <ele>1265.8000488281</ele>
        <time>2021-09-01T06:43:17.144Z</time>
      </trkpt>
      <trkpt lat="44.40334" lon="6.12461">
        <ele>1265.8000488281</ele>
        <time>2021-09-01T06:43:19.542Z</time>
      </trkpt>
      <trkpt lat="44.40339" lon="6.12414">
        <ele>1265.8000488281</ele>
        <time>2021-09-01T06:43:21.950Z</time>
      </trkpt>
      <trkpt lat="44.40337" lon="6.12399">
        <ele>1281.5999755859</ele>
        <time>2021-09-01T06:43:24.361Z</time>
      </trkpt>
      <trkpt lat="44.40341" lon="6.12392">
        <ele>1283.5999755859</ele>
        <time>2021-09-01T06:43:26.774Z</time>
      </trkpt>
      <trkpt lat="44.40357" lon="6.12387">
        <ele>1283.5999755859</ele>
        <time>2021-09-01T06:43:29.191Z</time>
      </trkpt>
      <trkpt lat="44.40374" lon="6.12387">
        <ele>1283.5999755859</ele>
        <time>2021-09-01T06:43:31.613Z</time>
      </trkpt>
      <trkpt lat="44.40398" lon="6.12397">
        <ele>1296.4000244141</ele>
        <time>2021-09-01T06:43:34.043Z</time>
      </trkpt>
      <trkpt lat="44.4041" lon="6.12398">
        <ele>1297.4000244141</ele>
        <time>2021-09-01T06:43:36.476Z</time>
      </trkpt>
      <trkpt lat="44.40422" lon="6.12401">
        <ele>1299.1999511719</ele>
        <time>2021-09-01T06:43:38.912Z</time>
      </trkpt>
      <trkpt lat="44.40431" lon="6.12401">
        <ele>1299.1999511719</ele>
        <time>2021-09-01T06:43:41.351Z</time>
      </trkpt>
      <trkpt lat="44.40462" lon="6.12394">
        <ele>1302.1999511719</ele>
        <time>2021-09-01T06:43:43.799Z</time>
      </trkpt>
      <trkpt lat="44.40471" lon="6.12394">
        <ele>1302.8000488281</ele>
        <time>2021-09-01T06:43:46.250Z</time>
      </trkpt>
      <trkpt lat="44.40476" lon="6.12392">
        <ele>1302.8000488281</ele>
        <time>2021-09-01T06:43:48.703Z</time>
      </trkpt>
      <trkpt lat="44.40483" lon="6.12381">
        <ele>1302.8000488281</ele>
        <time>2021-09-01T06:43:51.159Z</time>
      </trkpt>
      <trkpt lat="44.40488" lon="6.12363">
        <ele>1302.8000488281</ele>
        <time>2021-09-01T06:43:53.619Z</time>
      </trkpt>
      <trkpt lat="44.40493" lon="6.12357">
        <ele>1302.8000488281</ele>
        <time>2021-09-01T06:43:56.080Z</time>
      </trkpt>
      <trkpt lat="44.40524" lon="6.12363">
        <ele>1302.8000488281</ele>
        <time>2021-09-01T06:43:58.551Z</time>
      </trkpt>
      <trkpt lat="44.40552" lon="6.1235">
        <ele>1302.8000488281</ele>
        <time>2021-09-01T06:44:01.030Z</time>
      </trkpt>
      <trkpt lat="44.40565" lon="6.12343">
        <ele>1302.8000488281</ele>
        <time>2021-09-01T06:44:03.513Z</time>
      </trkpt>
      <trkpt lat="44.40579" lon="6.1233">
        <ele>1331.8000488281</ele>
        <time>2021-09-01T06:44:06.001Z</time>
      </trkpt>
      <trkpt lat="44.40597" lon="6.12305">
        <ele>1337.8000488281</ele>
        <time>2021-09-01T06:44:08.496Z</time>
      </trkpt>
      <trkpt lat="44.40611" lon="6.12288">
        <ele>1337.8000488281</ele>
        <time>2021-09-01T06:44:10.997Z</time>
      </trkpt>
      <trkpt lat="44.40618" lon="6.12282">
        <ele>1342.1999511719</ele>
        <time>2021-09-01T06:44:13.500Z</time>
      </trkpt>
      <trkpt lat="44.40631" lon="6.12268">
        <ele>1345</ele>
        <time>2021-09-01T06:44:16.008Z</time>
      </trkpt>
      <trkpt lat="44.40637" lon="6.12263">
        <ele>1346.4000244141</ele>
        <time>2021-09-01T06:44:18.518Z</time>
      </trkpt>
      <trkpt lat="44.40639" lon="6.12265">
        <ele>1346.4000244141</ele>
        <time>2021-09-01T06:44:21.029Z</time>
      </trkpt>
      <trkpt lat="44.40635" lon="6.12274">
        <ele>1346.4000244141</ele>
        <time>2021-09-01T06:44:23.542Z</time>
      </trkpt>
      <trkpt lat="44.4062" lon="6.12321">
        <ele>1355</ele>
        <time>2021-09-01T06:44:26.066Z</time>
      </trkpt>
      <trkpt lat="44.4061" lon="6.12367">
        <ele>1366.1999511719</ele>
        <time>2021-09-01T06:44:28.600Z</time>
      </trkpt>
      <trkpt lat="44.40613" lon="6.12373">
        <ele>1365.8000488281</ele>
        <time>2021-09-01T06:44:31.135Z</time>
      </trkpt>
      <trkpt lat="44.40615" lon="6.12382">
        <ele>1365.8000488281</ele>
        <time>2021-09-01T06:44:33.672Z</time>
      </trkpt>
      <trkpt lat="44.40625" lon="6.12397">
        <ele>1363.1999511719</ele>
        <time>2021-09-01T06:44:36.213Z</time>
      </trkpt>
      <trkpt lat="44.40631" lon="6.12399">
        <ele>1363</ele>
        <time>2021-09-01T06:44:38.756Z</time>
      </trkpt>
      <trkpt lat="44.40634" lon="6.12408">
        <ele>1362.5999755859</ele>
        <time>2021-09-01T06:44:41.301Z</time>
      </trkpt>
      <trkpt lat="44.4063" lon="6.12436">
        <ele>1362</ele>
        <time>2021-09-01T06:44:43.852Z</time>
      </trkpt>
      <trkpt lat="44.40629" lon="6.12456">
        <ele>1362</ele>
        <time>2021-09-01T06:44:46.407Z</time>
      </trkpt>
      <trkpt lat="44.40628" lon="6.12496">
        <ele>1362</ele>
        <time>2021-09-01T06:44:48.971Z</time>
      </trkpt>
      <trkpt lat="44.4063" lon="6.12504">
        <ele>1360.1999511719</ele>
        <time>2021-09-01T06:44:51.537Z</time>
      </trkpt>
      <trkpt lat="44.40635" lon="6.12512">
        <ele>1360.1999511719</ele>
        <time>2021-09-01T06:44:54.105Z</time>
      </trkpt>
      <trkpt lat="44.40638" lon="6.12515">
        <ele>1359.4000244141</ele>
        <time>2021-09-01T06:44:56.674Z</time>
      </trkpt>
      <trkpt lat="44.40658" lon="6.12522">
        <ele>1359.4000244141</ele>
        <time>2021-09-01T06:44:59.249Z</time>
      </trkpt>
      <trkpt lat="44.40667" lon="6.12538">
        <ele>1357.8000488281</ele>
        <time>2021-09-01T06:45:01.828Z</time>
      </trkpt>
      <trkpt lat="44.40671" lon="6.12576">
        <ele>1356.5999755859</ele>
        <time>2021-09-01T06:45:04.415Z</time>
      </trkpt>
      <trkpt lat="44.40675" lon="6.12601">
        <ele>1356.5999755859</ele>
        <time>2021-09-01T06:45:07.007Z</time>
      </trkpt>
      <trkpt lat="44.40685" lon="6.12635">
        <ele>1356.5999755859</ele>
        <time>2021-09-01T06:45:09.607Z</time>
      </trkpt>
      <trkpt lat="44.40695" lon="6.1265">
        <ele>1356.5999755859</ele>
        <time>2021-09-01T06:45:12.211Z</time>
      </trkpt>
      <trkpt lat="44.40703" lon="6.12657">
        <ele>1353</ele>
        <time>2021-09-01T06:45:14.818Z</time>
      </trkpt>
      <trkpt lat="44.4071" lon="6.12661">
        <ele>1353</ele>
        <time>2021-09-01T06:45:17.427Z</time>
      </trkpt>
      <trkpt lat="44.40726" lon="6.1266">
        <ele>1353</ele>
        <time>2021-09-01T06:45:20.041Z</time>
      </trkpt>
      <trkpt lat="44.40756" lon="6.12653">
        <ele>1350.5999755859</ele>
        <time>2021-09-01T06:45:22.664Z</time>
      </trkpt>
      <trkpt lat="44.40764" lon="6.12659">
        <ele>1350.5999755859</ele>
        <time>2021-09-01T06:45:25.289Z</time>
      </trkpt>
      <trkpt lat="44.4077" lon="6.12669">
        <ele>1349.5999755859</ele>
        <time>2021-09-01T06:45:27.917Z</time>
      </trkpt>
      <trkpt lat="44.40792" lon="6.12709">
        <ele>1347.8000488281</ele>
        <time>2021-09-01T06:45:30.555Z</time>
      </trkpt>
      <trkpt lat="44.40801" lon="6.12722">
        <ele>1347.8000488281</ele>
        <time>2021-09-01T06:45:33.197Z</time>
      </trkpt>
      <trkpt lat="44.40812" lon="6.12729">
        <ele>1347.8000488281</ele>
        <time>2021-09-01T06:45:35.843Z</time>
      </trkpt>
      <trkpt lat="44.40819" lon="6.1273">
        <ele>1346.8000488281</ele>
        <time>2021-09-01T06:45:38.491Z</time>
      </trkpt>
      <trkpt lat="44.40844" lon="6.1273">
        <ele>1346.8000488281</ele>
        <time>2021-09-01T06:45:41.146Z</time>
      </trkpt>
      <trkpt lat="44.40858" lon="6.12742">
        <ele>1345</ele>
        <time>2021-09-01T06:45:43.806Z</time>
      </trkpt>
      <trkpt lat="44.40875" lon="6.12764">
        <ele>1345</ele>
        <time>2021-09-01T06:45:46.472Z</time>
      </trkpt>
      <trkpt lat="44.40888" lon="6.12771">
        <ele>1343.4000244141</ele>
        <time>2021-09-01T06:45:49.142Z</time>
      </trkpt>
      <trkpt lat="44.40908" lon="6.12775">
        <ele>1343</ele>
        <time>2021-09-01T06:45:51.818Z</time>
      </trkpt>
      <trkpt lat="44.40913" lon="6.12774">
        <ele>1343</ele>
        <time>2021-09-01T06:45:54.496Z</time>
      </trkpt>
      <trkpt lat="44.40936" lon="6.12765">
        <ele>1343</ele>
        <time>2021-09-01T06:45:57.181Z</time>
      </trkpt>
      <trkpt lat="44.4094" lon="6.12765">
        <ele>1340.8000488281</ele>
        <time>2021-09-01T06:45:59.867Z</time>
      </trkpt>
      <trkpt lat="44.40945" lon="6.1277">
        <ele>1340.8000488281</ele>
        <time>2021-09-01T06:46:02.555Z</time>
      </trkpt>
      <trkpt lat="44.40946" lon="6.12774">
        <ele>1339.5999755859</ele>
        <time>2021-09-01T06:46:05.244Z</time>
      </trkpt>
      <trkpt lat="44.40935" lon="6.12806">
        <ele>1338.4000244141</ele>
        <time>2021-09-01T06:46:07.940Z</time>
      </trkpt>
      <trkpt lat="44.4093" lon="6.1284">
        <ele>1338.4000244141</ele>
        <time>2021-09-01T06:46:10.643Z</time>
      </trkpt>
      <trkpt lat="44.40924" lon="6.12852">
        <ele>1336.5999755859</ele>
        <time>2021-09-01T06:46:13.349Z</time>
      </trkpt>
      <trkpt lat="44.40912" lon="6.1287">
        <ele>1335.4000244141</ele>
        <time>2021-09-01T06:46:16.060Z</time>
      </trkpt>
      <trkpt lat="44.40905" lon="6.1289">
        <ele>1335.4000244141</ele>
        <time>2021-09-01T06:46:18.776Z</time>
      </trkpt>
      <trkpt lat="44.40896" lon="6.12939">
        <ele>1333.5999755859</ele>
        <time>2021-09-01T06:46:21.503Z</time>
      </trkpt>
      <trkpt lat="44.40898" lon="6.12957">
        <ele>1333.5999755859</ele>
        <time>2021-09-01T06:46:24.233Z</time>
      </trkpt>
      <trkpt lat="44.40903" lon="6.12974">
        <ele>1332.4000244141</ele>
        <time>2021-09-01T06:46:26.967Z</time>
      </trkpt>
      <trkpt lat="44.40913" lon="6.12987">
        <ele>1331.1999511719</ele>
        <time>2021-09-01T06:46:29.705Z</time>
      </trkpt>
      <trkpt lat="44.40919" lon="6.12989">
        <ele>1331.1999511719</ele>
        <time>2021-09-01T06:46:32.445Z</time>
      </trkpt>
      <trkpt lat="44.40932" lon="6.1299">
        <ele>1330</ele>
        <time>2021-09-01T06:46:35.189Z</time>
      </trkpt>
      <trkpt lat="44.4095" lon="6.12998">
        <ele>1329.5999755859</ele>
        <time>2021-09-01T06:46:37.938Z</time>
      </trkpt>
      <trkpt lat="44.40968" lon="6.12993">
        <ele>1329.5999755859</ele>
        <time>2021-09-01T06:46:40.693Z</time>
      </trkpt>
      <trkpt lat="44.40988" lon="6.12991">
        <ele>1327</ele>
        <time>2021-09-01T06:46:43.453Z</time>
      </trkpt>
      <trkpt lat="44.40994" lon="6.12995">
        <ele>1327</ele>
        <time>2021-09-01T06:46:46.215Z</time>
      </trkpt>
      <trkpt lat="44.41007" lon="6.13013">
        <ele>1327</ele>
        <time>2021-09-01T06:46:48.983Z</time>
      </trkpt>
      <trkpt lat="44.4103" lon="6.13035">
        <ele>1327</ele>
        <time>2021-09-01T06:46:51.759Z</time>
      </trkpt>
      <trkpt lat="44.41041" lon="6.1305">
        <ele>1323.4000244141</ele>
        <time>2021-09-01T06:46:54.539Z</time>
      </trkpt>
      <trkpt lat="44.41053" lon="6.13061">
        <ele>1323.4000244141</ele>
        <time>2021-09-01T06:46:57.323Z</time>
      </trkpt>
      <trkpt lat="44.41079" lon="6.1308">
        <ele>1321.4000244141</ele>
        <time>2021-09-01T06:47:00.116Z</time>
      </trkpt>
      <trkpt lat="44.41087" lon="6.13096">
        <ele>1321.4000244141</ele>
        <time>2021-09-01T06:47:02.913Z</time>
      </trkpt>
      <trkpt lat="44.4109" lon="6.13125">
        <ele>1319.1999511719</ele>
        <time>2021-09-01T06:47:05.716Z</time>
      </trkpt>
      <trkpt lat="44.41094" lon="6.13143">
        <ele>1318.4000244141</ele>
        <time>2021-09-01T06:47:08.523Z</time>
      </trkpt>
      <trkpt lat="44.41124" lon="6.13218">
        <ele>1314.1999511719</ele>
        <time>2021-09-01T06:47:11.348Z</time>
      </trkpt>
      <trkpt lat="44.41126" lon="6.13228">
        <ele>1314.1999511719</ele>
        <time>2021-09-01T06:47:14.175Z</time>
      </trkpt>
      <trkpt lat="44.41127" lon="6.13249">
        <ele>1313.4000244141</ele>
        <time>2021-09-01T06:47:17.006Z</time>
      </trkpt>
      <trkpt lat="44.41114" lon="6.13299">
        <ele>1311.4000244141</ele>
        <time>2021-09-01T06:47:19.848Z</time>
      </trkpt>
      <trkpt lat="44.41094" lon="6.13328">
        <ele>1311.4000244141</ele>
        <time>2021-09-01T06:47:22.699Z</time>
      </trkpt>
      <trkpt lat="44.41064" lon="6.13391">
        <ele>1306.8000488281</ele>
        <time>2021-09-01T06:47:25.565Z</time>
      </trkpt>
      <trkpt lat="44.41054" lon="6.13409">
        <ele>1306.8000488281</ele>
        <time>2021-09-01T06:47:28.436Z</time>
      </trkpt>
      <trkpt lat="44.41034" lon="6.13425">
        <ele>1306.8000488281</ele>
        <time>2021-09-01T06:47:31.314Z</time>
      </trkpt>
      <trkpt lat="44.41027" lon="6.1344">
        <ele>1302.8000488281</ele>
        <time>2021-09-01T06:47:34.195Z</time>
      </trkpt>
      <trkpt lat="44.41028" lon="6.13448">
        <ele>1302.8000488281</ele>
        <time>2021-09-01T06:47:37.078Z</time>
      </trkpt>
      <trkpt lat="44.41037" lon="6.13479">
        <ele>1301.8000488281</ele>
        <time>2021-09-01T06:47:39.968Z</time>
      </trkpt>
      <trkpt lat="44.41051" lon="6.13512">
        <ele>1301.8000488281</ele>
        <time>2021-09-01T06:47:42.866Z</time>
      </trkpt>
      <trkpt lat="44.41054" lon="6.13516">
        <ele>1301.4000244141</ele>
        <time>2021-09-01T06:47:45.765Z</time>
      </trkpt>
      <trkpt lat="44.41064" lon="6.1352">
        <ele>1301.5999755859</ele>
        <time>2021-09-01T06:47:48.667Z</time>
      </trkpt>
      <trkpt lat="44.41069" lon="6.13521">
        <ele>1301.5999755859</ele>
        <time>2021-09-01T06:47:51.571Z</time>
      </trkpt>
      <trkpt lat="44.41077" lon="6.13518">
        <ele>1301.5999755859</ele>
        <time>2021-09-01T06:47:54.477Z</time>
      </trkpt>
      <trkpt lat="44.41082" lon="6.13521">
        <ele>1301</ele>
        <time>2021-09-01T06:47:57.385Z</time>
      </trkpt>
      <trkpt lat="44.41082" lon="6.13523">
        <ele>1301</ele>
        <time>2021-09-01T06:48:00.293Z</time>
      </trkpt>
      <trkpt lat="44.41081" lon="6.13516">
        <ele>1301</ele>
        <time>2021-09-01T06:48:03.202Z</time>
      </trkpt>
      <trkpt lat="44.41065" lon="6.13512">
        <ele>1301</ele>
        <time>2021-09-01T06:48:06.116Z</time>
      </trkpt>
      <trkpt lat="44.41063" lon="6.13511">
        <ele>1301</ele>
        <time>2021-09-01T06:48:09.031Z</time>
      </trkpt>
      <trkpt lat="44.41061" lon="6.13506">
        <ele>1299.8000488281</ele>
        <time>2021-09-01T06:48:11.947Z</time>
      </trkpt>
      <trkpt lat="44.41066" lon="6.13498">
        <ele>1299.8000488281</ele>
        <time>2021-09-01T06:48:14.865Z</time>
      </trkpt>
      <trkpt lat="44.41074" lon="6.13492">
        <ele>1299.8000488281</ele>
        <time>2021-09-01T06:48:17.786Z</time>
      </trkpt>
      <trkpt lat="44.41076" lon="6.13489">
        <ele>1299.8000488281</ele>
        <time>2021-09-01T06:48:20.708Z</time>
      </trkpt>
      <trkpt lat="44.41064" lon="6.13476">
        <ele>1292.1999511719</ele>
        <time>2021-09-01T06:48:23.634Z</time>
      </trkpt>
      <trkpt lat="44.41067" lon="6.13472">
        <ele>1292.1999511719</ele>
        <time>2021-09-01T06:48:26.561Z</time>
      </trkpt>
      <trkpt lat="44.41079" lon="6.1347">
        <ele>1287</ele>
        <time>2021-09-01T06:48:29.492Z</time>
      </trkpt>
      <trkpt lat="44.41084" lon="6.13465">
        <ele>1287</ele>
        <time>2021-09-01T06:48:32.424Z</time>
      </trkpt>
      <trkpt lat="44.41088" lon="6.13465">
        <ele>1287</ele>
        <time>2021-09-01T06:48:35.357Z</time>
      </trkpt>
      <trkpt lat="44.41094" lon="6.13468">
        <ele>1287</ele>
        <time>2021-09-01T06:48:38.292Z</time>
      </trkpt>
      <trkpt lat="44.41104" lon="6.13459">
        <ele>1279.5999755859</ele>
        <time>2021-09-01T06:48:41.231Z</time>
      </trkpt>
      <trkpt lat="44.41117" lon="6.13451">
        <ele>1279.5999755859</ele>
        <time>2021-09-01T06:48:44.174Z</time>
      </trkpt>
      <trkpt lat="44.41126" lon="6.13438">
        <ele>1279.5999755859</ele>
        <time>2021-09-01T06:48:47.121Z</time>
      </trkpt>
      <trkpt lat="44.4113" lon="6.13438">
        <ele>1268.4000244141</ele>
        <time>2021-09-01T06:48:50.069Z</time>
      </trkpt>
      <trkpt lat="44.41135" lon="6.13434">
        <ele>1268.4000244141</ele>
        <time>2021-09-01T06:48:53.018Z</time>
      </trkpt>
      <trkpt lat="44.41158" lon="6.13408">
        <ele>1261.8000488281</ele>
        <time>2021-09-01T06:48:55.976Z</time>
      </trkpt>
      <trkpt lat="44.41189" lon="6.1339">
        <ele>1249.8000488281</ele>
        <time>2021-09-01T06:48:58.944Z</time>
      </trkpt>
      <trkpt lat="44.41207" lon="6.13386">
        <ele>1249.8000488281</ele>
        <time>2021-09-01T06:49:01.917Z</time>
      </trkpt>
      <trkpt lat="44.41218" lon="6.13395">
        <ele>1241.8000488281</ele>
        <time>2021-09-01T06:49:04.894Z</time>
      </trkpt>
      <trkpt lat="44.41229" lon="6.13399">
        <ele>1238.8000488281</ele>
        <time>2021-09-01T06:49:07.874Z</time>
      </trkpt>
      <trkpt lat="44.41238" lon="6.13408">
        <ele>1238.8000488281</ele>
        <time>2021-09-01T06:49:10.857Z</time>
      </trkpt>
      <trkpt lat="44.41245" lon="6.13413">
        <ele>1233</ele>
        <time>2021-09-01T06:49:13.843Z</time>
      </trkpt>
      <trkpt lat="44.41259" lon="6.13416">
        <ele>1230</ele>
        <time>2021-09-01T06:49:16.833Z</time>
      </trkpt>
      <trkpt lat="44.4128" lon="6.13407">
        <ele>1230</ele>
        <time>2021-09-01T06:49:19.829Z</time>
      </trkpt>
      <trkpt lat="44.41308" lon="6.13404">
        <ele>1230</ele>
        <time>2021-09-01T06:49:22.833Z</time>
      </trkpt>
      <trkpt lat="44.41314" lon="6.13401">
        <ele>1220.1999511719</ele>
        <time>2021-09-01T06:49:25.839Z</time>
      </trkpt>
      <trkpt lat="44.41334" lon="6.13389">
        <ele>1214.8000488281</ele>
        <time>2021-09-01T06:49:28.851Z</time>
      </trkpt>
      <trkpt lat="44.41355" lon="6.1338">
        <ele>1213.5999755859</ele>
        <time>2021-09-01T06:49:31.870Z</time>
      </trkpt>
      <trkpt lat="44.4137" lon="6.13362">
        <ele>1212.1999511719</ele>
        <time>2021-09-01T06:49:34.894Z</time>
      </trkpt>
      <trkpt lat="44.41375" lon="6.13359">
        <ele>1212.1999511719</ele>
        <time>2021-09-01T06:49:37.920Z</time>
      </trkpt>
      <trkpt lat="44.41409" lon="6.13348">
        <ele>1205</ele>
        <time>2021-09-01T06:49:40.956Z</time>
      </trkpt>
      <trkpt lat="44.41418" lon="6.13349">
        <ele>1205</ele>
        <time>2021-09-01T06:49:43.995Z</time>
      </trkpt>
      <trkpt lat="44.41433" lon="6.13358">
        <ele>1199.4000244141</ele>
        <time>2021-09-01T06:49:47.039Z</time>
      </trkpt>
      <trkpt lat="44.41444" lon="6.13374">
        <ele>1199.4000244141</ele>
        <time>2021-09-01T06:49:50.087Z</time>
      </trkpt>
      <trkpt lat="44.41451" lon="6.13396">
        <ele>1199.4000244141</ele>
        <time>2021-09-01T06:49:53.140Z</time>
      </trkpt>
      <trkpt lat="44.41451" lon="6.13413">
        <ele>1188.1999511719</ele>
        <time>2021-09-01T06:49:56.197Z</time>
      </trkpt>
      <trkpt lat="44.41453" lon="6.13423">
        <ele>1188.1999511719</ele>
        <time>2021-09-01T06:49:59.256Z</time>
      </trkpt>
      <trkpt lat="44.41461" lon="6.13441">
        <ele>1188.1999511719</ele>
        <time>2021-09-01T06:50:02.319Z</time>
      </trkpt>
      <trkpt lat="44.41464" lon="6.13455">
        <ele>1188.1999511719</ele>
        <time>2021-09-01T06:50:05.385Z</time>
      </trkpt>
      <trkpt lat="44.41467" lon="6.13458">
        <ele>1188.1999511719</ele>
        <time>2021-09-01T06:50:08.452Z</time>
      </trkpt>
      <trkpt lat="44.41499" lon="6.13401">
        <ele>1162</ele>
        <time>2021-09-01T06:50:11.534Z</time>
      </trkpt>
      <trkpt lat="44.41506" lon="6.13374">
        <ele>1155.5999755859</ele>
        <time>2021-09-01T06:50:14.622Z</time>
      </trkpt>
      <trkpt lat="44.41512" lon="6.13393">
        <ele>1155.5999755859</ele>
        <time>2021-09-01T06:50:17.715Z</time>
      </trkpt>
      <trkpt lat="44.41513" lon="6.13402">
        <ele>1155.5999755859</ele>
        <time>2021-09-01T06:50:20.810Z</time>
      </trkpt>
      <trkpt lat="44.41516" lon="6.13401">
        <ele>1147.8000488281</ele>
        <time>2021-09-01T06:50:23.906Z</time>
      </trkpt>
      <trkpt lat="44.41517" lon="6.13396">
        <ele>1146.8000488281</ele>
        <time>2021-09-01T06:50:27.003Z</time>
      </trkpt>
      <trkpt lat="44.4152" lon="6.13397">
        <ele>1146.8000488281</ele>
        <time>2021-09-01T06:50:30.101Z</time>
      </trkpt>
      <trkpt lat="44.41529" lon="6.13412">
        <ele>1146.8000488281</ele>
        <time>2021-09-01T06:50:33.203Z</time>
      </trkpt>
      <trkpt lat="44.4153" lon="6.13419">
        <ele>1140.1999511719</ele>
        <time>2021-09-01T06:50:36.306Z</time>
      </trkpt>
      <trkpt lat="44.41529" lon="6.13458">
        <ele>1131.1999511719</ele>
        <time>2021-09-01T06:50:39.417Z</time>
      </trkpt>
      <trkpt lat="44.41546" lon="6.13496">
        <ele>1131.1999511719</ele>
        <time>2021-09-01T06:50:42.538Z</time>
      </trkpt>
      <trkpt lat="44.41548" lon="6.13496">
        <ele>1121.1999511719</ele>
        <time>2021-09-01T06:50:45.659Z</time>
      </trkpt>
      <trkpt lat="44.41551" lon="6.13491">
        <ele>1121.1999511719</ele>
        <time>2021-09-01T06:50:48.782Z</time>
      </trkpt>
      <trkpt lat="44.41556" lon="6.13473">
        <ele>1117.8000488281</ele>
        <time>2021-09-01T06:50:51.909Z</time>
      </trkpt>
      <trkpt lat="44.41555" lon="6.13457">
        <ele>1116.8000488281</ele>
        <time>2021-09-01T06:50:55.039Z</time>
      </trkpt>
      <trkpt lat="44.41558" lon="6.13452">
        <ele>1116.8000488281</ele>
        <time>2021-09-01T06:50:58.170Z</time>
      </trkpt>
      <trkpt lat="44.41564" lon="6.13455">
        <ele>1115.1999511719</ele>
        <time>2021-09-01T06:51:01.303Z</time>
      </trkpt>
      <trkpt lat="44.41565" lon="6.13459">
        <ele>1115.1999511719</ele>
        <time>2021-09-01T06:51:04.437Z</time>
      </trkpt>
      <trkpt lat="44.41563" lon="6.13471">
        <ele>1114.5999755859</ele>
        <time>2021-09-01T06:51:07.573Z</time>
      </trkpt>
      <trkpt lat="44.41564" lon="6.13512">
        <ele>1112.1999511719</ele>
        <time>2021-09-01T06:51:10.718Z</time>
      </trkpt>
      <trkpt lat="44.41566" lon="6.13515">
        <ele>1112.1999511719</ele>
        <time>2021-09-01T06:51:13.864Z</time>
      </trkpt>
      <trkpt lat="44.41577" lon="6.13495">
        <ele>1112.1999511719</ele>
        <time>2021-09-01T06:51:17.015Z</time>
      </trkpt>
      <trkpt lat="44.41582" lon="6.135">
        <ele>1105.5999755859</ele>
        <time>2021-09-01T06:51:20.168Z</time>
      </trkpt>
      <trkpt lat="44.41585" lon="6.13523">
        <ele>1105.5999755859</ele>
        <time>2021-09-01T06:51:23.326Z</time>
      </trkpt>
      <trkpt lat="44.41589" lon="6.13534">
        <ele>1105.5999755859</ele>
        <time>2021-09-01T06:51:26.486Z</time>
      </trkpt>
      <trkpt lat="44.41595" lon="6.13542">
        <ele>1099.1999511719</ele>
        <time>2021-09-01T06:51:29.649Z</time>
      </trkpt>
      <trkpt lat="44.41596" lon="6.13546">
        <ele>1099.1999511719</ele>
        <time>2021-09-01T06:51:32.812Z</time>
      </trkpt>
      <trkpt lat="44.41597" lon="6.13562">
        <ele>1099.1999511719</ele>
        <time>2021-09-01T06:51:35.979Z</time>
      </trkpt>
      <trkpt lat="44.416" lon="6.1358">
        <ele>1092.5999755859</ele>
        <time>2021-09-01T06:51:39.150Z</time>
      </trkpt>
      <trkpt lat="44.41611" lon="6.13618">
        <ele>1092.5999755859</ele>
        <time>2021-09-01T06:51:42.329Z</time>
      </trkpt>
      <trkpt lat="44.41613" lon="6.13633">
        <ele>1080.5999755859</ele>
        <time>2021-09-01T06:51:45.511Z</time>
      </trkpt>
      <trkpt lat="44.41613" lon="6.13645">
        <ele>1080.5999755859</ele>
        <time>2021-09-01T06:51:48.696Z</time>
      </trkpt>
      <trkpt lat="44.41615" lon="6.13657">
        <ele>1080.5999755859</ele>
        <time>2021-09-01T06:51:51.883Z</time>
      </trkpt>
      <trkpt lat="44.41618" lon="6.13659">
        <ele>1078.8000488281</ele>
        <time>2021-09-01T06:51:55.071Z</time>
      </trkpt>
      <trkpt lat="44.41628" lon="6.13685">
        <ele>1078.8000488281</ele>
        <time>2021-09-01T06:51:58.265Z</time>
      </trkpt>
      <trkpt lat="44.4163" lon="6.137">
        <ele>1078.8000488281</ele>
        <time>2021-09-01T06:52:01.463Z</time>
      </trkpt>
      <trkpt lat="44.41638" lon="6.13712">
        <ele>1078.8000488281</ele>
        <time>2021-09-01T06:52:04.664Z</time>
      </trkpt>
      <trkpt lat="44.41648" lon="6.13723">
        <ele>1071.5999755859</ele>
        <time>2021-09-01T06:52:07.869Z</time>
      </trkpt>
      <trkpt lat="44.41663" lon="6.13731">
        <ele>1071.5999755859</ele>
        <time>2021-09-01T06:52:11.079Z</time>
      </trkpt>
      <trkpt lat="44.41677" lon="6.13742">
        <ele>1064.5999755859</ele>
        <time>2021-09-01T06:52:14.293Z</time>
      </trkpt>
      <trkpt lat="44.41692" lon="6.1376">
        <ele>1064.5999755859</ele>
        <time>2021-09-01T06:52:17.513Z</time>
      </trkpt>
      <trkpt lat="44.41718" lon="6.13785">
        <ele>1056.4000244141</ele>
        <time>2021-09-01T06:52:20.742Z</time>
      </trkpt>
      <trkpt lat="44.41734" lon="6.13793">
        <ele>1056.4000244141</ele>
        <time>2021-09-01T06:52:23.976Z</time>
      </trkpt>
      <trkpt lat="44.41744" lon="6.13803">
        <ele>1056.4000244141</ele>
        <time>2021-09-01T06:52:27.214Z</time>
      </trkpt>
      <trkpt lat="44.41764" lon="6.13818">
        <ele>1056.4000244141</ele>
        <time>2021-09-01T06:52:30.458Z</time>
      </trkpt>
      <trkpt lat="44.41772" lon="6.13829">
        <ele>1045.8000488281</ele>
        <time>2021-09-01T06:52:33.705Z</time>
      </trkpt>
      <trkpt lat="44.41778" lon="6.13841">
        <ele>1045</ele>
        <time>2021-09-01T06:52:36.955Z</time>
      </trkpt>
      <trkpt lat="44.41783" lon="6.13858">
        <ele>1045</ele>
        <time>2021-09-01T06:52:40.209Z</time>
      </trkpt>
      <trkpt lat="44.41782" lon="6.13914">
        <ele>1045</ele>
        <time>2021-09-01T06:52:43.475Z</time>
      </trkpt>
      <trkpt lat="44.41784" lon="6.13944">
        <ele>1045</ele>
        <time>2021-09-01T06:52:46.747Z</time>
      </trkpt>
      <trkpt lat="44.41793" lon="6.13987">
        <ele>1044</ele>
        <time>2021-09-01T06:52:50.028Z</time>
      </trkpt>
      <trkpt lat="44.41804" lon="6.13993">
        <ele>1041.1999511719</ele>
        <time>2021-09-01T06:52:53.313Z</time>
      </trkpt>
      <trkpt lat="44.41808" lon="6.14001">
        <ele>1041.1999511719</ele>
        <time>2021-09-01T06:52:56.600Z</time>
      </trkpt>
      <trkpt lat="44.41808" lon="6.14011">
        <ele>1038.1999511719</ele>
        <time>2021-09-01T06:52:59.889Z</time>
      </trkpt>
      <trkpt lat="44.41805" lon="6.14018">
        <ele>1037.1999511719</ele>
        <time>2021-09-01T06:53:03.179Z</time>
      </trkpt>
      <trkpt lat="44.41807" lon="6.14022">
        <ele>1037.1999511719</ele>
        <time>2021-09-01T06:53:06.470Z</time>
      </trkpt>
      <trkpt lat="44.41814" lon="6.14019">
        <ele>1037.1999511719</ele>
        <time>2021-09-01T06:53:09.764Z</time>
      </trkpt>
      <trkpt lat="44.41817" lon="6.14021">
        <ele>1037.1999511719</ele>
        <time>2021-09-01T06:53:13.058Z</time>
      </trkpt>
      <trkpt lat="44.41812" lon="6.14031">
        <ele>1029</ele>
        <time>2021-09-01T06:53:16.355Z</time>
      </trkpt>
      <trkpt lat="44.41813" lon="6.14034">
        <ele>1029</ele>
        <time>2021-09-01T06:53:19.652Z</time>
      </trkpt>
      <trkpt lat="44.41815" lon="6.14035">
        <ele>1027.8000488281</ele>
        <time>2021-09-01T06:53:22.950Z</time>
      </trkpt>
      <trkpt lat="44.41823" lon="6.1403">
        <ele>1027.8000488281</ele>
        <time>2021-09-01T06:53:26.251Z</time>
      </trkpt>
      <trkpt lat="44.41824" lon="6.14032">
        <ele>1024</ele>
        <time>2021-09-01T06:53:29.552Z</time>
      </trkpt>
      <trkpt lat="44.41824" lon="6.14043">
        <ele>1024</ele>
        <time>2021-09-01T06:53:32.855Z</time>
      </trkpt>
      <trkpt lat="44.41828" lon="6.1405">
        <ele>1020.799987793</ele>
        <time>2021-09-01T06:53:36.160Z</time>
      </trkpt>
      <trkpt lat="44.4183" lon="6.14052">
        <ele>1020.799987793</ele>
        <time>2021-09-01T06:53:39.466Z</time>
      </trkpt>
      <trkpt lat="44.41835" lon="6.14051">
        <ele>1020.799987793</ele>
        <time>2021-09-01T06:53:42.773Z</time>
      </trkpt>
      <trkpt lat="44.41844" lon="6.14038">
        <ele>1020.799987793</ele>
        <time>2021-09-01T06:53:46.084Z</time>
      </trkpt>
      <trkpt lat="44.41848" lon="6.14042">
        <ele>1009.5999755859</ele>
        <time>2021-09-01T06:53:49.397Z</time>
      </trkpt>
      <trkpt lat="44.41851" lon="6.1404">
        <ele>1009.5999755859</ele>
        <time>2021-09-01T06:53:52.711Z</time>
      </trkpt>
      <trkpt lat="44.41852" lon="6.14033">
        <ele>1009.5999755859</ele>
        <time>2021-09-01T06:53:56.026Z</time>
      </trkpt>
      <trkpt lat="44.41854" lon="6.14033">
        <ele>1009.5999755859</ele>
        <time>2021-09-01T06:53:59.342Z</time>
      </trkpt>
      <trkpt lat="44.41857" lon="6.14038">
        <ele>1009.5999755859</ele>
        <time>2021-09-01T06:54:02.659Z</time>
      </trkpt>
      <trkpt lat="44.41859" lon="6.14037">
        <ele>1003.5999755859</ele>
        <time>2021-09-01T06:54:05.977Z</time>
      </trkpt>
      <trkpt lat="44.41859" lon="6.14026">
        <ele>1002.4000244141</ele>
        <time>2021-09-01T06:54:09.297Z</time>
      </trkpt>
      <trkpt lat="44.41863" lon="6.1402">
        <ele>1001.5999755859</ele>
        <time>2021-09-01T06:54:12.618Z</time>
      </trkpt>
      <trkpt lat="44.41865" lon="6.14008">
        <ele>999.59997558594</ele>
        <time>2021-09-01T06:54:15.942Z</time>
      </trkpt>
      <trkpt lat="44.41867" lon="6.13971">
        <ele>995.59997558594</ele>
        <time>2021-09-01T06:54:19.274Z</time>
      </trkpt>
      <trkpt lat="44.41869" lon="6.13984">
        <ele>995.59997558594</ele>
        <time>2021-09-01T06:54:22.608Z</time>
      </trkpt>
      <trkpt lat="44.41871" lon="6.13984">
        <ele>992.20001220703</ele>
        <time>2021-09-01T06:54:25.943Z</time>
      </trkpt>
      <trkpt lat="44.41878" lon="6.13976">
        <ele>988.79998779297</ele>
        <time>2021-09-01T06:54:29.281Z</time>
      </trkpt>
      <trkpt lat="44.41883" lon="6.13995">
        <ele>983.40002441406</ele>
        <time>2021-09-01T06:54:32.623Z</time>
      </trkpt>
      <trkpt lat="44.419" lon="6.14028">
        <ele>983.40002441406</ele>
        <time>2021-09-01T06:54:35.973Z</time>
      </trkpt>
      <trkpt lat="44.41904" lon="6.14025">
        <ele>983.40002441406</ele>
        <time>2021-09-01T06:54:39.325Z</time>
      </trkpt>
      <trkpt lat="44.41907" lon="6.14005">
        <ele>983.40002441406</ele>
        <time>2021-09-01T06:54:42.681Z</time>
      </trkpt>
      <trkpt lat="44.41915" lon="6.14019">
        <ele>962.79998779297</ele>
        <time>2021-09-01T06:54:46.041Z</time>
      </trkpt>
      <trkpt lat="44.41918" lon="6.14018">
        <ele>962.79998779297</ele>
        <time>2021-09-01T06:54:49.402Z</time>
      </trkpt>
      <trkpt lat="44.41921" lon="6.14015">
        <ele>960</ele>
        <time>2021-09-01T06:54:52.764Z</time>
      </trkpt>
      <trkpt lat="44.41933" lon="6.14046">
        <ele>960</ele>
        <time>2021-09-01T06:54:56.133Z</time>
      </trkpt>
      <trkpt lat="44.41933" lon="6.14055">
        <ele>952</ele>
        <time>2021-09-01T06:54:59.504Z</time>
      </trkpt>
      <trkpt lat="44.41936" lon="6.14061">
        <ele>952</ele>
        <time>2021-09-01T06:55:02.876Z</time>
      </trkpt>
      <trkpt lat="44.41938" lon="6.14062">
        <ele>950.20001220703</ele>
        <time>2021-09-01T06:55:06.249Z</time>
      </trkpt>
      <trkpt lat="44.41941" lon="6.14059">
        <ele>948.20001220703</ele>
        <time>2021-09-01T06:55:09.623Z</time>
      </trkpt>
      <trkpt lat="44.41948" lon="6.14041">
        <ele>948.20001220703</ele>
        <time>2021-09-01T06:55:13.001Z</time>
      </trkpt>
      <trkpt lat="44.41954" lon="6.14017">
        <ele>948.20001220703</ele>
        <time>2021-09-01T06:55:16.385Z</time>
      </trkpt>
      <trkpt lat="44.41956" lon="6.13995">
        <ele>948.20001220703</ele>
        <time>2021-09-01T06:55:19.773Z</time>
      </trkpt>
      <trkpt lat="44.41952" lon="6.13983">
        <ele>948.20001220703</ele>
        <time>2021-09-01T06:55:23.164Z</time>
      </trkpt>
      <trkpt lat="44.41954" lon="6.13972">
        <ele>948.20001220703</ele>
        <time>2021-09-01T06:55:26.557Z</time>
      </trkpt>
      <trkpt lat="44.41958" lon="6.13962">
        <ele>946</ele>
        <time>2021-09-01T06:55:29.953Z</time>
      </trkpt>
      <trkpt lat="44.41965" lon="6.13957">
        <ele>946</ele>
        <time>2021-09-01T06:55:33.351Z</time>
      </trkpt>
      <trkpt lat="44.41969" lon="6.13969">
        <ele>944.79998779297</ele>
        <time>2021-09-01T06:55:36.752Z</time>
      </trkpt>
      <trkpt lat="44.41968" lon="6.13994">
        <ele>944.79998779297</ele>
        <time>2021-09-01T06:55:40.158Z</time>
      </trkpt>
      <trkpt lat="44.42001" lon="6.14072">
        <ele>938.20001220703</ele>
        <time>2021-09-01T06:55:43.583Z</time>
      </trkpt>
      <trkpt lat="44.42002" lon="6.14086">
        <ele>938.20001220703</ele>
        <time>2021-09-01T06:55:47.011Z</time>
      </trkpt>
      <trkpt lat="44.41995" lon="6.14127">
        <ele>938.20001220703</ele>
        <time>2021-09-01T06:55:50.447Z</time>
      </trkpt>
      <trkpt lat="44.41988" lon="6.14152">
        <ele>932.40002441406</ele>
        <time>2021-09-01T06:55:53.889Z</time>
      </trkpt>
      <trkpt lat="44.41967" lon="6.14206">
        <ele>928.59997558594</ele>
        <time>2021-09-01T06:55:57.344Z</time>
      </trkpt>
      <trkpt lat="44.41961" lon="6.14254">
        <ele>928.59997558594</ele>
        <time>2021-09-01T06:56:00.809Z</time>
      </trkpt>
      <trkpt lat="44.41962" lon="6.14273">
        <ele>928.59997558594</ele>
        <time>2021-09-01T06:56:04.278Z</time>
      </trkpt>
      <trkpt lat="44.41958" lon="6.14321">
        <ele>920.20001220703</ele>
        <time>2021-09-01T06:56:07.757Z</time>
      </trkpt>
      <trkpt lat="44.41963" lon="6.14368">
        <ele>920.20001220703</ele>
        <time>2021-09-01T06:56:11.246Z</time>
      </trkpt>
      <trkpt lat="44.41965" lon="6.14486">
        <ele>912.20001220703</ele>
        <time>2021-09-01T06:56:14.759Z</time>
      </trkpt>
      <trkpt lat="44.41974" lon="6.14522">
        <ele>910.79998779297</ele>
        <time>2021-09-01T06:56:18.280Z</time>
      </trkpt>
      <trkpt lat="44.41979" lon="6.14548">
        <ele>909.79998779297</ele>
        <time>2021-09-01T06:56:21.807Z</time>
      </trkpt>
      <trkpt lat="44.41988" lon="6.14618">
        <ele>908.40002441406</ele>
        <time>2021-09-01T06:56:25.349Z</time>
      </trkpt>
      <trkpt lat="44.41992" lon="6.14675">
        <ele>907.20001220703</ele>
        <time>2021-09-01T06:56:28.903Z</time>
      </trkpt>
      <trkpt lat="44.41993" lon="6.14701">
        <ele>907.20001220703</ele>
        <time>2021-09-01T06:56:32.462Z</time>
      </trkpt>
      <trkpt lat="44.41991" lon="6.14736">
        <ele>905.59997558594</ele>
        <time>2021-09-01T06:56:36.028Z</time>
      </trkpt>
      <trkpt lat="44.41979" lon="6.14838">
        <ele>905.59997558594</ele>
        <time>2021-09-01T06:56:39.616Z</time>
      </trkpt>
      <trkpt lat="44.41979" lon="6.14868">
        <ele>905.59997558594</ele>
        <time>2021-09-01T06:56:43.210Z</time>
      </trkpt>
      <trkpt lat="44.41988" lon="6.149">
        <ele>901.59997558594</ele>
        <time>2021-09-01T06:56:46.811Z</time>
      </trkpt>
      <trkpt lat="44.41987" lon="6.14906">
        <ele>901.59997558594</ele>
        <time>2021-09-01T06:56:50.413Z</time>
      </trkpt>
      <trkpt lat="44.41978" lon="6.14921">
        <ele>902</ele>
        <time>2021-09-01T06:56:54.020Z</time>
      </trkpt>
      <trkpt lat="44.41953" lon="6.14932">
        <ele>905.59997558594</ele>
        <time>2021-09-01T06:56:57.634Z</time>
      </trkpt>
      <trkpt lat="44.41949" lon="6.14942">
        <ele>906.59997558594</ele>
        <time>2021-09-01T06:57:01.250Z</time>
      </trkpt>
      <trkpt lat="44.41951" lon="6.15019">
        <ele>906.59997558594</ele>
        <time>2021-09-01T06:57:04.882Z</time>
      </trkpt>
      <trkpt lat="44.41949" lon="6.15054">
        <ele>906.59997558594</ele>
        <time>2021-09-01T06:57:08.522Z</time>
      </trkpt>
      <trkpt lat="44.41955" lon="6.15088">
        <ele>911.20001220703</ele>
        <time>2021-09-01T06:57:12.169Z</time>
      </trkpt>
      <trkpt lat="44.41968" lon="6.15125">
        <ele>911.20001220703</ele>
        <time>2021-09-01T06:57:15.824Z</time>
      </trkpt>
      <trkpt lat="44.41975" lon="6.15152">
        <ele>910.79998779297</ele>
        <time>2021-09-01T06:57:19.485Z</time>
      </trkpt>
      <trkpt lat="44.41973" lon="6.15171">
        <ele>910.79998779297</ele>
        <time>2021-09-01T06:57:23.150Z</time>
      </trkpt>
      <trkpt lat="44.41954" lon="6.15234">
        <ele>910.79998779297</ele>
        <time>2021-09-01T06:57:26.830Z</time>
      </trkpt>
      <trkpt lat="44.41942" lon="6.15288">
        <ele>907.79998779297</ele>
        <time>2021-09-01T06:57:30.521Z</time>
      </trkpt>
      <trkpt lat="44.4192" lon="6.15431">
        <ele>907.79998779297</ele>
        <time>2021-09-01T06:57:34.243Z</time>
      </trkpt>
      <trkpt lat="44.41898" lon="6.15588">
        <ele>895.59997558594</ele>
        <time>2021-09-01T06:57:37.998Z</time>
      </trkpt>
      <trkpt lat="44.41896" lon="6.15614">
        <ele>895.59997558594</ele>
        <time>2021-09-01T06:57:41.759Z</time>
      </trkpt>
      <trkpt lat="44.41903" lon="6.15714">
        <ele>891</ele>
        <time>2021-09-01T06:57:45.540Z</time>
      </trkpt>
      <trkpt lat="44.41904" lon="6.15759">
        <ele>889.20001220703</ele>
        <time>2021-09-01T06:57:49.331Z</time>
      </trkpt>
      <trkpt lat="44.4189" lon="6.1593">
        <ele>889.20001220703</ele>
        <time>2021-09-01T06:57:53.157Z</time>
      </trkpt>
      <trkpt lat="44.41881" lon="6.15984">
        <ele>881.59997558594</ele>
        <time>2021-09-01T06:57:56.995Z</time>
      </trkpt>
      <trkpt lat="44.41866" lon="6.16046">
        <ele>881</ele>
        <time>2021-09-01T06:58:00.847Z</time>
      </trkpt>
      <trkpt lat="44.41865" lon="6.16061">
        <ele>881</ele>
        <time>2021-09-01T06:58:04.702Z</time>
      </trkpt>
      <trkpt lat="44.41873" lon="6.16095">
        <ele>881.40002441406</ele>
        <time>2021-09-01T06:58:08.564Z</time>
      </trkpt>
      <trkpt lat="44.41878" lon="6.16109">
        <ele>881.40002441406</ele>
        <time>2021-09-01T06:58:12.429Z</time>
      </trkpt>
      <trkpt lat="44.41876" lon="6.16115">
        <ele>881.59997558594</ele>
        <time>2021-09-01T06:58:16.296Z</time>
      </trkpt>
      <trkpt lat="44.41868" lon="6.16118">
        <ele>881.59997558594</ele>
        <time>2021-09-01T06:58:20.165Z</time>
      </trkpt>
      <trkpt lat="44.41866" lon="6.16135">
        <ele>879.79998779297</ele>
        <time>2021-09-01T06:58:24.038Z</time>
      </trkpt>
      <trkpt lat="44.41866" lon="6.16237">
        <ele>879.79998779297</ele>
        <time>2021-09-01T06:58:27.932Z</time>
      </trkpt>
      <trkpt lat="44.41865" lon="6.16276">
        <ele>875.40002441406</ele>
        <time>2021-09-01T06:58:31.834Z</time>
      </trkpt>
      <trkpt lat="44.41859" lon="6.16328">
        <ele>875.40002441406</ele>
        <time>2021-09-01T06:58:35.747Z</time>
      </trkpt>
      <trkpt lat="44.41857" lon="6.1637">
        <ele>871.79998779297</ele>
        <time>2021-09-01T06:58:39.669Z</time>
      </trkpt>
      <trkpt lat="44.41861" lon="6.16414">
        <ele>871.79998779297</ele>
        <time>2021-09-01T06:58:43.600Z</time>
      </trkpt>
      <trkpt lat="44.41868" lon="6.16447">
        <ele>871.79998779297</ele>
        <time>2021-09-01T06:58:47.538Z</time>
      </trkpt>
      <trkpt lat="44.41892" lon="6.165">
        <ele>871.79998779297</ele>
        <time>2021-09-01T06:58:51.489Z</time>
      </trkpt>
      <trkpt lat="44.41899" lon="6.16524">
        <ele>865</ele>
        <time>2021-09-01T06:58:55.446Z</time>
      </trkpt>
      <trkpt lat="44.41921" lon="6.1661">
        <ele>860.79998779297</ele>
        <time>2021-09-01T06:58:59.422Z</time>
      </trkpt>
      <trkpt lat="44.41944" lon="6.16668">
        <ele>858.20001220703</ele>
        <time>2021-09-01T06:59:03.411Z</time>
      </trkpt>
      <trkpt lat="44.41955" lon="6.16704">
        <ele>858.20001220703</ele>
        <time>2021-09-01T06:59:07.408Z</time>
      </trkpt>
      <trkpt lat="44.41978" lon="6.16803">
        <ele>858.20001220703</ele>
        <time>2021-09-01T06:59:11.427Z</time>
      </trkpt>
      <trkpt lat="44.4199" lon="6.16877">
        <ele>850</ele>
        <time>2021-09-01T06:59:15.462Z</time>
      </trkpt>
      <trkpt lat="44.42005" lon="6.16934">
        <ele>850</ele>
        <time>2021-09-01T06:59:19.510Z</time>
      </trkpt>
      <trkpt lat="44.42016" lon="6.16966">
        <ele>846.79998779297</ele>
        <time>2021-09-01T06:59:23.565Z</time>
      </trkpt>
      <trkpt lat="44.4205" lon="6.17025">
        <ele>844.40002441406</ele>
        <time>2021-09-01T06:59:27.636Z</time>
      </trkpt>
      <trkpt lat="44.42052" lon="6.17035">
        <ele>844.40002441406</ele>
        <time>2021-09-01T06:59:31.709Z</time>
      </trkpt>
      <trkpt lat="44.42051" lon="6.17055">
        <ele>843</ele>
        <time>2021-09-01T06:59:35.786Z</time>
      </trkpt>
      <trkpt lat="44.42045" lon="6.17086">
        <ele>841.79998779297</ele>
        <time>2021-09-01T06:59:39.870Z</time>
      </trkpt>
      <trkpt lat="44.42046" lon="6.1713">
        <ele>840</ele>
        <time>2021-09-01T06:59:43.963Z</time>
      </trkpt>
      <trkpt lat="44.42043" lon="6.17164">
        <ele>838.79998779297</ele>
        <time>2021-09-01T06:59:48.063Z</time>
      </trkpt>
      <trkpt lat="44.42044" lon="6.17187">
        <ele>838.79998779297</ele>
        <time>2021-09-01T06:59:52.168Z</time>
      </trkpt>
      <trkpt lat="44.42049" lon="6.17209">
        <ele>837</ele>
        <time>2021-09-01T06:59:56.278Z</time>
      </trkpt>
      <trkpt lat="44.42057" lon="6.1723">
        <ele>837</ele>
        <time>2021-09-01T07:00:00.392Z</time>
      </trkpt>
      <trkpt lat="44.42073" lon="6.17258">
        <ele>837</ele>
        <time>2021-09-01T07:00:04.514Z</time>
      </trkpt>
      <trkpt lat="44.42101" lon="6.17303">
        <ele>832.40002441406</ele>
        <time>2021-09-01T07:00:08.648Z</time>
      </trkpt>
      <trkpt lat="44.42104" lon="6.17314">
        <ele>832.40002441406</ele>
        <time>2021-09-01T07:00:12.785Z</time>
      </trkpt>
      <trkpt lat="44.42096" lon="6.17371">
        <ele>832.40002441406</ele>
        <time>2021-09-01T07:00:16.934Z</time>
      </trkpt>
      <trkpt lat="44.42108" lon="6.17417">
        <ele>832.40002441406</ele>
        <time>2021-09-01T07:00:21.093Z</time>
      </trkpt>
      <trkpt lat="44.42117" lon="6.17468">
        <ele>826.20001220703</ele>
        <time>2021-09-01T07:00:25.263Z</time>
      </trkpt>
      <trkpt lat="44.42129" lon="6.17506">
        <ele>826.20001220703</ele>
        <time>2021-09-01T07:00:29.441Z</time>
      </trkpt>
      <trkpt lat="44.42132" lon="6.17533">
        <ele>822.20001220703</ele>
        <time>2021-09-01T07:00:33.625Z</time>
      </trkpt>
      <trkpt lat="44.42126" lon="6.1756">
        <ele>822.20001220703</ele>
        <time>2021-09-01T07:00:37.815Z</time>
      </trkpt>
      <trkpt lat="44.42125" lon="6.17574">
        <ele>820.40002441406</ele>
        <time>2021-09-01T07:00:42.008Z</time>
      </trkpt>
      <trkpt lat="44.42125" lon="6.17589">
        <ele>820.40002441406</ele>
        <time>2021-09-01T07:00:46.204Z</time>
      </trkpt>
      <trkpt lat="44.42131" lon="6.17616">
        <ele>819</ele>
        <time>2021-09-01T07:00:50.406Z</time>
      </trkpt>
      <trkpt lat="44.42138" lon="6.17641">
        <ele>819</ele>
        <time>2021-09-01T07:00:54.614Z</time>
      </trkpt>
      <trkpt lat="44.42161" lon="6.17702">
        <ele>819</ele>
        <time>2021-09-01T07:00:58.836Z</time>
      </trkpt>
      <trkpt lat="44.42167" lon="6.17727">
        <ele>819</ele>
        <time>2021-09-01T07:01:03.063Z</time>
      </trkpt>
      <trkpt lat="44.42169" lon="6.17808">
        <ele>819</ele>
        <time>2021-09-01T07:01:07.307Z</time>
      </trkpt>
      <trkpt lat="44.42177" lon="6.17831">
        <ele>819</ele>
        <time>2021-09-01T07:01:11.557Z</time>
      </trkpt>
      <trkpt lat="44.42178" lon="6.17851">
        <ele>810.59997558594</ele>
        <time>2021-09-01T07:01:15.811Z</time>
      </trkpt>
      <trkpt lat="44.42181" lon="6.1788">
        <ele>810.59997558594</ele>
        <time>2021-09-01T07:01:20.071Z</time>
      </trkpt>
      <trkpt lat="44.42184" lon="6.17929">
        <ele>810.59997558594</ele>
        <time>2021-09-01T07:01:24.341Z</time>
      </trkpt>
      <trkpt lat="44.42198" lon="6.17957">
        <ele>810.59997558594</ele>
        <time>2021-09-01T07:01:28.618Z</time>
      </trkpt>
      <trkpt lat="44.42208" lon="6.17965">
        <ele>813.59997558594</ele>
        <time>2021-09-01T07:01:32.898Z</time>
      </trkpt>
      <trkpt lat="44.42237" lon="6.17983">
        <ele>813.59997558594</ele>
        <time>2021-09-01T07:01:37.188Z</time>
      </trkpt>
      <trkpt lat="44.42285" lon="6.1802">
        <ele>821.79998779297</ele>
        <time>2021-09-01T07:01:41.493Z</time>
      </trkpt>
      <trkpt lat="44.42294" lon="6.18034">
        <ele>821.79998779297</ele>
        <time>2021-09-01T07:01:45.802Z</time>
      </trkpt>
      <trkpt lat="44.42318" lon="6.18089">
        <ele>821.79998779297</ele>
        <time>2021-09-01T07:01:50.125Z</time>
      </trkpt>
      <trkpt lat="44.42329" lon="6.18101">
        <ele>826</ele>
        <time>2021-09-01T07:01:54.452Z</time>
      </trkpt>
      <trkpt lat="44.42332" lon="6.18101">
        <ele>826</ele>
        <time>2021-09-01T07:01:58.780Z</time>
      </trkpt>
      <trkpt lat="44.42342" lon="6.18094">
        <ele>826</ele>
        <time>2021-09-01T07:02:03.111Z</time>
      </trkpt>
      <trkpt lat="44.42352" lon="6.18072">
        <ele>829.79998779297</ele>
        <time>2021-09-01T07:02:07.447Z</time>
      </trkpt>
      <trkpt lat="44.42369" lon="6.18045">
        <ele>829.79998779297</ele>
        <time>2021-09-01T07:02:11.791Z</time>
      </trkpt>
      <trkpt lat="44.42399" lon="6.18008">
        <ele>829.79998779297</ele>
        <time>2021-09-01T07:02:16.146Z</time>
      </trkpt>
      <trkpt lat="44.42406" lon="6.17997">
        <ele>829.79998779297</ele>
        <time>2021-09-01T07:02:20.505Z</time>
      </trkpt>
      <trkpt lat="44.42426" lon="6.17955">
        <ele>839.40002441406</ele>
        <time>2021-09-01T07:02:24.874Z</time>
      </trkpt>
      <trkpt lat="44.42438" lon="6.1792">
        <ele>841.79998779297</ele>
        <time>2021-09-01T07:02:29.251Z</time>
      </trkpt>
      <trkpt lat="44.42445" lon="6.17908">
        <ele>841.79998779297</ele>
        <time>2021-09-01T07:02:33.631Z</time>
      </trkpt>
      <trkpt lat="44.42449" lon="6.17905">
        <ele>843.20001220703</ele>
        <time>2021-09-01T07:02:38.012Z</time>
      </trkpt>
      <trkpt lat="44.42461" lon="6.17905">
        <ele>843.20001220703</ele>
        <time>2021-09-01T07:02:42.397Z</time>
      </trkpt>
      <trkpt lat="44.42484" lon="6.17915">
        <ele>843.20001220703</ele>
        <time>2021-09-01T07:02:46.789Z</time>
      </trkpt>
      <trkpt lat="44.42531" lon="6.17929">
        <ele>843.20001220703</ele>
        <time>2021-09-01T07:02:51.195Z</time>
      </trkpt>
      <trkpt lat="44.42552" lon="6.1794">
        <ele>850</ele>
        <time>2021-09-01T07:02:55.607Z</time>
      </trkpt>
      <trkpt lat="44.42576" lon="6.1796">
        <ele>850</ele>
        <time>2021-09-01T07:03:00.028Z</time>
      </trkpt>
      <trkpt lat="44.42606" lon="6.17971">
        <ele>850</ele>
        <time>2021-09-01T07:03:04.458Z</time>
      </trkpt>
      <trkpt lat="44.42631" lon="6.17984">
        <ele>850</ele>
        <time>2021-09-01T07:03:08.895Z</time>
      </trkpt>
      <trkpt lat="44.42683" lon="6.18007">
        <ele>854.59997558594</ele>
        <time>2021-09-01T07:03:13.348Z</time>
      </trkpt>
      <trkpt lat="44.42692" lon="6.18007">
        <ele>855.40002441406</ele>
        <time>2021-09-01T07:03:17.804Z</time>
      </trkpt>
      <trkpt lat="44.42714" lon="6.18005">
        <ele>856.59997558594</ele>
        <time>2021-09-01T07:03:22.266Z</time>
      </trkpt>
      <trkpt lat="44.42736" lon="6.18009">
        <ele>858</ele>
        <time>2021-09-01T07:03:26.735Z</time>
      </trkpt>
      <trkpt lat="44.4275" lon="6.18008">
        <ele>858</ele>
        <time>2021-09-01T07:03:31.208Z</time>
      </trkpt>
      <trkpt lat="44.4278" lon="6.17998">
        <ele>861.59997558594</ele>
        <time>2021-09-01T07:03:35.690Z</time>
      </trkpt>
      <trkpt lat="44.42816" lon="6.17997">
        <ele>861.59997558594</ele>
        <time>2021-09-01T07:03:40.182Z</time>
      </trkpt>
      <trkpt lat="44.42824" lon="6.17993">
        <ele>861.59997558594</ele>
        <time>2021-09-01T07:03:44.677Z</time>
      </trkpt>
      <trkpt lat="44.42832" lon="6.17986">
        <ele>867</ele>
        <time>2021-09-01T07:03:49.174Z</time>
      </trkpt>
      <trkpt lat="44.42874" lon="6.17933">
        <ele>867</ele>
        <time>2021-09-01T07:03:53.688Z</time>
      </trkpt>
      <trkpt lat="44.42895" lon="6.17909">
        <ele>871.20001220703</ele>
        <time>2021-09-01T07:03:58.210Z</time>
      </trkpt>
      <trkpt lat="44.42915" lon="6.17849">
        <ele>874.79998779297</ele>
        <time>2021-09-01T07:04:02.745Z</time>
      </trkpt>
      <trkpt lat="44.42916" lon="6.1783">
        <ele>876</ele>
        <time>2021-09-01T07:04:07.284Z</time>
      </trkpt>
      <trkpt lat="44.42908" lon="6.17799">
        <ele>876</ele>
        <time>2021-09-01T07:04:11.830Z</time>
      </trkpt>
      <trkpt lat="44.42914" lon="6.17787">
        <ele>878.40002441406</ele>
        <time>2021-09-01T07:04:16.379Z</time>
      </trkpt>
      <trkpt lat="44.42927" lon="6.17774">
        <ele>879.40002441406</ele>
        <time>2021-09-01T07:04:20.933Z</time>
      </trkpt>
      <trkpt lat="44.42937" lon="6.1775">
        <ele>880.59997558594</ele>
        <time>2021-09-01T07:04:25.493Z</time>
      </trkpt>
      <trkpt lat="44.42942" lon="6.17728">
        <ele>880.59997558594</ele>
        <time>2021-09-01T07:04:30.058Z</time>
      </trkpt>
      <trkpt lat="44.42946" lon="6.17693">
        <ele>884.20001220703</ele>
        <time>2021-09-01T07:04:34.630Z</time>
      </trkpt>
      <trkpt lat="44.42952" lon="6.17676">
        <ele>884.20001220703</ele>
        <time>2021-09-01T07:04:39.206Z</time>
      </trkpt>
      <trkpt lat="44.42959" lon="6.17662">
        <ele>886.40002441406</ele>
        <time>2021-09-01T07:04:43.785Z</time>
      </trkpt>
      <trkpt lat="44.42965" lon="6.17641">
        <ele>887.59997558594</ele>
        <time>2021-09-01T07:04:48.369Z</time>
      </trkpt>
      <trkpt lat="44.42956" lon="6.17607">
        <ele>889.59997558594</ele>
        <time>2021-09-01T07:04:52.961Z</time>
      </trkpt>
      <trkpt lat="44.42955" lon="6.17583">
        <ele>890.59997558594</ele>
        <time>2021-09-01T07:04:57.558Z</time>
      </trkpt>
      <trkpt lat="44.42961" lon="6.17573">
        <ele>891.59997558594</ele>
        <time>2021-09-01T07:05:02.157Z</time>
      </trkpt>
      <trkpt lat="44.42988" lon="6.17563">
        <ele>891.59997558594</ele>
        <time>2021-09-01T07:05:06.765Z</time>
      </trkpt>
      <trkpt lat="44.42994" lon="6.17553">
        <ele>891.59997558594</ele>
        <time>2021-09-01T07:05:11.375Z</time>
      </trkpt>
      <trkpt lat="44.42991" lon="6.17512">
        <ele>891.59997558594</ele>
        <time>2021-09-01T07:05:15.994Z</time>
      </trkpt>
      <trkpt lat="44.42995" lon="6.17488">
        <ele>891.59997558594</ele>
        <time>2021-09-01T07:05:20.618Z</time>
      </trkpt>
      <trkpt lat="44.42997" lon="6.17454">
        <ele>891.59997558594</ele>
        <time>2021-09-01T07:05:25.249Z</time>
      </trkpt>
      <trkpt lat="44.43007" lon="6.17419">
        <ele>891.59997558594</ele>
        <time>2021-09-01T07:05:29.888Z</time>
      </trkpt>
      <trkpt lat="44.43" lon="6.17369">
        <ele>891.59997558594</ele>
        <time>2021-09-01T07:05:34.537Z</time>
      </trkpt>
      <trkpt lat="44.43" lon="6.17365">
        <ele>906.40002441406</ele>
        <time>2021-09-01T07:05:39.187Z</time>
      </trkpt>
      <trkpt lat="44.43005" lon="6.17353">
        <ele>906.40002441406</ele>
        <time>2021-09-01T07:05:43.840Z</time>
      </trkpt>
      <trkpt lat="44.43013" lon="6.17348">
        <ele>907.59997558594</ele>
        <time>2021-09-01T07:05:48.496Z</time>
      </trkpt>
      <trkpt lat="44.43034" lon="6.17344">
        <ele>907.59997558594</ele>
        <time>2021-09-01T07:05:53.157Z</time>
      </trkpt>
      <trkpt lat="44.43055" lon="6.17331">
        <ele>907.59997558594</ele>
        <time>2021-09-01T07:05:57.825Z</time>
      </trkpt>
      <trkpt lat="44.4308" lon="6.17324">
        <ele>907.59997558594</ele>
        <time>2021-09-01T07:06:02.501Z</time>
      </trkpt>
      <trkpt lat="44.43095" lon="6.17322">
        <ele>907.59997558594</ele>
        <time>2021-09-01T07:06:07.181Z</time>
      </trkpt>
      <trkpt lat="44.4311" lon="6.17322">
        <ele>914.59997558594</ele>
        <time>2021-09-01T07:06:11.865Z</time>
      </trkpt>
      <trkpt lat="44.43124" lon="6.17318">
        <ele>914.59997558594</ele>
        <time>2021-09-01T07:06:16.553Z</time>
      </trkpt>
      <trkpt lat="44.43146" lon="6.17303">
        <ele>917.79998779297</ele>
        <time>2021-09-01T07:06:21.249Z</time>
      </trkpt>
      <trkpt lat="44.4316" lon="6.17285">
        <ele>919.20001220703</ele>
        <time>2021-09-01T07:06:25.950Z</time>
      </trkpt>
      <trkpt lat="44.43168" lon="6.1727">
        <ele>920.40002441406</ele>
        <time>2021-09-01T07:06:30.655Z</time>
      </trkpt>
      <trkpt lat="44.43177" lon="6.17258">
        <ele>921.79998779297</ele>
        <time>2021-09-01T07:06:35.364Z</time>
      </trkpt>
      <trkpt lat="44.43202" lon="6.17247">
        <ele>921.79998779297</ele>
        <time>2021-09-01T07:06:40.080Z</time>
      </trkpt>
      <trkpt lat="44.43227" lon="6.17221">
        <ele>925.59997558594</ele>
        <time>2021-09-01T07:06:44.805Z</time>
      </trkpt>
      <trkpt lat="44.43255" lon="6.17201">
        <ele>928.40002441406</ele>
        <time>2021-09-01T07:06:49.540Z</time>
      </trkpt>
      <trkpt lat="44.43276" lon="6.17177">
        <ele>928.40002441406</ele>
        <time>2021-09-01T07:06:54.282Z</time>
      </trkpt>
      <trkpt lat="44.43287" lon="6.1716">
        <ele>928.40002441406</ele>
        <time>2021-09-01T07:06:59.029Z</time>
      </trkpt>
      <trkpt lat="44.43295" lon="6.17146">
        <ele>932.40002441406</ele>
        <time>2021-09-01T07:07:03.780Z</time>
      </trkpt>
      <trkpt lat="44.43308" lon="6.17099">
        <ele>932.40002441406</ele>
        <time>2021-09-01T07:07:08.541Z</time>
      </trkpt>
      <trkpt lat="44.43315" lon="6.17085">
        <ele>932.40002441406</ele>
        <time>2021-09-01T07:07:13.306Z</time>
      </trkpt>
      <trkpt lat="44.43326" lon="6.1707">
        <ele>932.40002441406</ele>
        <time>2021-09-01T07:07:18.075Z</time>
      </trkpt>
      <trkpt lat="44.43342" lon="6.17055">
        <ele>932.40002441406</ele>
        <time>2021-09-01T07:07:22.850Z</time>
      </trkpt>
      <trkpt lat="44.43349" lon="6.17044">
        <ele>939.59997558594</ele>
        <time>2021-09-01T07:07:27.628Z</time>
      </trkpt>
      <trkpt lat="44.43346" lon="6.17037">
        <ele>940</ele>
        <time>2021-09-01T07:07:32.408Z</time>
      </trkpt>
      <trkpt lat="44.4334" lon="6.17036">
        <ele>940</ele>
        <time>2021-09-01T07:07:37.189Z</time>
      </trkpt>
      <trkpt lat="44.43298" lon="6.17065">
        <ele>943.79998779297</ele>
        <time>2021-09-01T07:07:41.984Z</time>
      </trkpt>
      <trkpt lat="44.43279" lon="6.17081">
        <ele>943.79998779297</ele>
        <time>2021-09-01T07:07:46.786Z</time>
      </trkpt>
      <trkpt lat="44.43259" lon="6.17105">
        <ele>948</ele>
        <time>2021-09-01T07:07:51.595Z</time>
      </trkpt>
      <trkpt lat="44.43235" lon="6.1713">
        <ele>950.59997558594</ele>
        <time>2021-09-01T07:07:56.413Z</time>
      </trkpt>
      <trkpt lat="44.43203" lon="6.17154">
        <ele>953</ele>
        <time>2021-09-01T07:08:01.241Z</time>
      </trkpt>
      <trkpt lat="44.43181" lon="6.17165">
        <ele>954.59997558594</ele>
        <time>2021-09-01T07:08:06.076Z</time>
      </trkpt>
      <trkpt lat="44.43218" lon="6.17107">
        <ele>954.59997558594</ele>
        <time>2021-09-01T07:08:10.927Z</time>
      </trkpt>
      <trkpt lat="44.43226" lon="6.17083">
        <ele>954.59997558594</ele>
        <time>2021-09-01T07:08:15.784Z</time>
      </trkpt>
      <trkpt lat="44.43239" lon="6.17058">
        <ele>954.59997558594</ele>
        <time>2021-09-01T07:08:20.647Z</time>
      </trkpt>
      <trkpt lat="44.43252" lon="6.17045">
        <ele>954.59997558594</ele>
        <time>2021-09-01T07:08:25.515Z</time>
      </trkpt>
      <trkpt lat="44.43256" lon="6.17038">
        <ele>973.59997558594</ele>
        <time>2021-09-01T07:08:30.385Z</time>
      </trkpt>
      <trkpt lat="44.43262" lon="6.17021">
        <ele>973.59997558594</ele>
        <time>2021-09-01T07:08:35.259Z</time>
      </trkpt>
      <trkpt lat="44.43267" lon="6.16991">
        <ele>973.59997558594</ele>
        <time>2021-09-01T07:08:40.139Z</time>
      </trkpt>
      <trkpt lat="44.43273" lon="6.16975">
        <ele>981.40002441406</ele>
        <time>2021-09-01T07:08:45.023Z</time>
      </trkpt>
      <trkpt lat="44.43277" lon="6.16955">
        <ele>981.40002441406</ele>
        <time>2021-09-01T07:08:49.911Z</time>
      </trkpt>
      <trkpt lat="44.43274" lon="6.16951">
        <ele>981.40002441406</ele>
        <time>2021-09-01T07:08:54.800Z</time>
      </trkpt>
      <trkpt lat="44.4327" lon="6.16949">
        <ele>988.59997558594</ele>
        <time>2021-09-01T07:08:59.690Z</time>
      </trkpt>
      <trkpt lat="44.43258" lon="6.16954">
        <ele>988.59997558594</ele>
        <time>2021-09-01T07:09:04.584Z</time>
      </trkpt>
      <trkpt lat="44.43245" lon="6.16967">
        <ele>994.59997558594</ele>
        <time>2021-09-01T07:09:09.483Z</time>
      </trkpt>
      <trkpt lat="44.43236" lon="6.16981">
        <ele>994.59997558594</ele>
        <time>2021-09-01T07:09:14.386Z</time>
      </trkpt>
      <trkpt lat="44.43223" lon="6.16991">
        <ele>995</ele>
        <time>2021-09-01T07:09:19.293Z</time>
      </trkpt>
      <trkpt lat="44.43196" lon="6.16999">
        <ele>995</ele>
        <time>2021-09-01T07:09:24.208Z</time>
      </trkpt>
      <trkpt lat="44.43176" lon="6.17016">
        <ele>995</ele>
        <time>2021-09-01T07:09:29.130Z</time>
      </trkpt>
      <trkpt lat="44.43168" lon="6.1702">
        <ele>994</ele>
        <time>2021-09-01T07:09:34.054Z</time>
      </trkpt>
      <trkpt lat="44.43154" lon="6.17026">
        <ele>994</ele>
        <time>2021-09-01T07:09:38.982Z</time>
      </trkpt>
      <trkpt lat="44.43138" lon="6.17035">
        <ele>995.20001220703</ele>
        <time>2021-09-01T07:09:43.915Z</time>
      </trkpt>
      <trkpt lat="44.43123" lon="6.17047">
        <ele>997.20001220703</ele>
        <time>2021-09-01T07:09:48.853Z</time>
      </trkpt>
      <trkpt lat="44.43121" lon="6.17047">
        <ele>998.40002441406</ele>
        <time>2021-09-01T07:09:53.792Z</time>
      </trkpt>
      <trkpt lat="44.4312" lon="6.17046">
        <ele>999</ele>
        <time>2021-09-01T07:09:58.731Z</time>
      </trkpt>
      <trkpt lat="44.43123" lon="6.17036">
        <ele>999</ele>
        <time>2021-09-01T07:10:03.672Z</time>
      </trkpt>
      <trkpt lat="44.43141" lon="6.17002">
        <ele>1003.5999755859</ele>
        <time>2021-09-01T07:10:08.622Z</time>
      </trkpt>
      <trkpt lat="44.43149" lon="6.1699">
        <ele>1005.200012207</ele>
        <time>2021-09-01T07:10:13.575Z</time>
      </trkpt>
      <trkpt lat="44.43158" lon="6.16984">
        <ele>1006.799987793</ele>
        <time>2021-09-01T07:10:18.531Z</time>
      </trkpt>
      <trkpt lat="44.43168" lon="6.16973">
        <ele>1006.799987793</ele>
        <time>2021-09-01T07:10:23.491Z</time>
      </trkpt>
      <trkpt lat="44.43171" lon="6.16965">
        <ele>1009.4000244141</ele>
        <time>2021-09-01T07:10:28.453Z</time>
      </trkpt>
      <trkpt lat="44.4317" lon="6.1696">
        <ele>1010.4000244141</ele>
        <time>2021-09-01T07:10:33.416Z</time>
      </trkpt>
      <trkpt lat="44.43165" lon="6.16954">
        <ele>1010.4000244141</ele>
        <time>2021-09-01T07:10:38.381Z</time>
      </trkpt>
      <trkpt lat="44.43158" lon="6.16953">
        <ele>1010.4000244141</ele>
        <time>2021-09-01T07:10:43.348Z</time>
      </trkpt>
      <trkpt lat="44.4314" lon="6.16959">
        <ele>1010.4000244141</ele>
        <time>2021-09-01T07:10:48.320Z</time>
      </trkpt>
      <trkpt lat="44.43123" lon="6.16969">
        <ele>1017.5999755859</ele>
        <time>2021-09-01T07:10:53.298Z</time>
      </trkpt>
      <trkpt lat="44.4311" lon="6.16982">
        <ele>1017.5999755859</ele>
        <time>2021-09-01T07:10:58.280Z</time>
      </trkpt>
      <trkpt lat="44.43096" lon="6.16992">
        <ele>1017.5999755859</ele>
        <time>2021-09-01T07:11:03.267Z</time>
      </trkpt>
      <trkpt lat="44.43056" lon="6.17037">
        <ele>1022.200012207</ele>
        <time>2021-09-01T07:11:08.269Z</time>
      </trkpt>
      <trkpt lat="44.4303" lon="6.17055">
        <ele>1022.200012207</ele>
        <time>2021-09-01T07:11:13.279Z</time>
      </trkpt>
      <trkpt lat="44.43015" lon="6.17062">
        <ele>1023.4000244141</ele>
        <time>2021-09-01T07:11:18.294Z</time>
      </trkpt>
      <trkpt lat="44.43" lon="6.17066">
        <ele>1024.8000488281</ele>
        <time>2021-09-01T07:11:23.313Z</time>
      </trkpt>
      <trkpt lat="44.42983" lon="6.17068">
        <ele>1026.1999511719</ele>
        <time>2021-09-01T07:11:28.337Z</time>
      </trkpt>
      <trkpt lat="44.42935" lon="6.17083">
        <ele>1026.1999511719</ele>
        <time>2021-09-01T07:11:33.376Z</time>
      </trkpt>
      <trkpt lat="44.42918" lon="6.17081">
        <ele>1026.1999511719</ele>
        <time>2021-09-01T07:11:38.420Z</time>
      </trkpt>
      <trkpt lat="44.42918" lon="6.17079">
        <ele>1034.4000244141</ele>
        <time>2021-09-01T07:11:43.464Z</time>
      </trkpt>
      <trkpt lat="44.42963" lon="6.17047">
        <ele>1039.4000244141</ele>
        <time>2021-09-01T07:11:48.523Z</time>
      </trkpt>
      <trkpt lat="44.42975" lon="6.17041">
        <ele>1040.4000244141</ele>
        <time>2021-09-01T07:11:53.586Z</time>
      </trkpt>
      <trkpt lat="44.43001" lon="6.17033">
        <ele>1040.4000244141</ele>
        <time>2021-09-01T07:11:58.656Z</time>
      </trkpt>
      <trkpt lat="44.43013" lon="6.17025">
        <ele>1042.5999755859</ele>
        <time>2021-09-01T07:12:03.730Z</time>
      </trkpt>
      <trkpt lat="44.43025" lon="6.17012">
        <ele>1042.5999755859</ele>
        <time>2021-09-01T07:12:08.809Z</time>
      </trkpt>
      <trkpt lat="44.43027" lon="6.17001">
        <ele>1042.5999755859</ele>
        <time>2021-09-01T07:12:13.890Z</time>
      </trkpt>
      <trkpt lat="44.43023" lon="6.16998">
        <ele>1045.4000244141</ele>
        <time>2021-09-01T07:12:18.972Z</time>
      </trkpt>
      <trkpt lat="44.43014" lon="6.17001">
        <ele>1045.4000244141</ele>
        <time>2021-09-01T07:12:24.057Z</time>
      </trkpt>
      <trkpt lat="44.43" lon="6.17015">
        <ele>1047.4000244141</ele>
        <time>2021-09-01T07:12:29.147Z</time>
      </trkpt>
      <trkpt lat="44.4299" lon="6.17018">
        <ele>1047.4000244141</ele>
        <time>2021-09-01T07:12:34.240Z</time>
      </trkpt>
      <trkpt lat="44.42899" lon="6.17023">
        <ele>1054.8000488281</ele>
        <time>2021-09-01T07:12:39.359Z</time>
      </trkpt>
      <trkpt lat="44.42879" lon="6.17026">
        <ele>1056.4000244141</ele>
        <time>2021-09-01T07:12:44.484Z</time>
      </trkpt>
      <trkpt lat="44.42864" lon="6.17034">
        <ele>1056.4000244141</ele>
        <time>2021-09-01T07:12:49.614Z</time>
      </trkpt>
      <trkpt lat="44.42841" lon="6.1705">
        <ele>1059.4000244141</ele>
        <time>2021-09-01T07:12:54.751Z</time>
      </trkpt>
      <trkpt lat="44.4282" lon="6.17062">
        <ele>1059.4000244141</ele>
        <time>2021-09-01T07:12:59.895Z</time>
      </trkpt>
      <trkpt lat="44.4281" lon="6.17071">
        <ele>1061.8000488281</ele>
        <time>2021-09-01T07:13:05.042Z</time>
      </trkpt>
      <trkpt lat="44.42805" lon="6.17077">
        <ele>1061.8000488281</ele>
        <time>2021-09-01T07:13:10.191Z</time>
      </trkpt>
      <trkpt lat="44.42793" lon="6.17105">
        <ele>1064.4000244141</ele>
        <time>2021-09-01T07:13:15.347Z</time>
      </trkpt>
      <trkpt lat="44.42783" lon="6.17131">
        <ele>1064.4000244141</ele>
        <time>2021-09-01T07:13:20.509Z</time>
      </trkpt>
      <trkpt lat="44.42776" lon="6.17175">
        <ele>1068.8000488281</ele>
        <time>2021-09-01T07:13:25.680Z</time>
      </trkpt>
      <trkpt lat="44.42774" lon="6.17176">
        <ele>1068.8000488281</ele>
        <time>2021-09-01T07:13:30.852Z</time>
      </trkpt>
      <trkpt lat="44.42768" lon="6.17172">
        <ele>1069.5999755859</ele>
        <time>2021-09-01T07:13:36.026Z</time>
      </trkpt>
      <trkpt lat="44.42769" lon="6.17156">
        <ele>1070</ele>
        <time>2021-09-01T07:13:41.203Z</time>
      </trkpt>
      <trkpt lat="44.42782" lon="6.17107">
        <ele>1071.8000488281</ele>
        <time>2021-09-01T07:13:46.391Z</time>
      </trkpt>
      <trkpt lat="44.428" lon="6.17057">
        <ele>1073</ele>
        <time>2021-09-01T07:13:51.591Z</time>
      </trkpt>
      <trkpt lat="44.42811" lon="6.17037">
        <ele>1074</ele>
        <time>2021-09-01T07:13:56.796Z</time>
      </trkpt>
      <trkpt lat="44.42852" lon="6.16987">
        <ele>1074</ele>
        <time>2021-09-01T07:14:02.017Z</time>
      </trkpt>
      <trkpt lat="44.42863" lon="6.16978">
        <ele>1074</ele>
        <time>2021-09-01T07:14:07.241Z</time>
      </trkpt>
      <trkpt lat="44.42913" lon="6.16963">
        <ele>1074</ele>
        <time>2021-09-01T07:14:12.480Z</time>
      </trkpt>
      <trkpt lat="44.42954" lon="6.16954">
        <ele>1083.5999755859</ele>
        <time>2021-09-01T07:14:17.731Z</time>
      </trkpt>
      <trkpt lat="44.43005" lon="6.16932">
        <ele>1086</ele>
        <time>2021-09-01T07:14:22.998Z</time>
      </trkpt>
      <trkpt lat="44.43018" lon="6.16923">
        <ele>1086</ele>
        <time>2021-09-01T07:14:28.269Z</time>
      </trkpt>
      <trkpt lat="44.43051" lon="6.16881">
        <ele>1089.4000244141</ele>
        <time>2021-09-01T07:14:33.553Z</time>
      </trkpt>
      <trkpt lat="44.43073" lon="6.1686">
        <ele>1090.8000488281</ele>
        <time>2021-09-01T07:14:38.845Z</time>
      </trkpt>
      <trkpt lat="44.43098" lon="6.16825">
        <ele>1092.8000488281</ele>
        <time>2021-09-01T07:14:44.147Z</time>
      </trkpt>
      <trkpt lat="44.43129" lon="6.16797">
        <ele>1095</ele>
        <time>2021-09-01T07:14:49.460Z</time>
      </trkpt>
      <trkpt lat="44.43152" lon="6.16781">
        <ele>1096.5999755859</ele>
        <time>2021-09-01T07:14:54.780Z</time>
      </trkpt>
      <trkpt lat="44.43157" lon="6.16772">
        <ele>1096.5999755859</ele>
        <time>2021-09-01T07:15:00.102Z</time>
      </trkpt>
      <trkpt lat="44.43159" lon="6.16762">
        <ele>1097.8000488281</ele>
        <time>2021-09-01T07:15:05.427Z</time>
      </trkpt>
      <trkpt lat="44.43159" lon="6.16752">
        <ele>1097.8000488281</ele>
        <time>2021-09-01T07:15:10.754Z</time>
      </trkpt>
      <trkpt lat="44.43156" lon="6.16738">
        <ele>1099.1999511719</ele>
        <time>2021-09-01T07:15:16.084Z</time>
      </trkpt>
      <trkpt lat="44.43146" lon="6.16706">
        <ele>1099.1999511719</ele>
        <time>2021-09-01T07:15:21.421Z</time>
      </trkpt>
      <trkpt lat="44.4314" lon="6.16694">
        <ele>1101.5999755859</ele>
        <time>2021-09-01T07:15:26.761Z</time>
      </trkpt>
      <trkpt lat="44.43118" lon="6.16664">
        <ele>1101.5999755859</ele>
        <time>2021-09-01T07:15:32.110Z</time>
      </trkpt>
      <trkpt lat="44.43116" lon="6.1666">
        <ele>1103.8000488281</ele>
        <time>2021-09-01T07:15:37.460Z</time>
      </trkpt>
      <trkpt lat="44.43115" lon="6.16641">
        <ele>1103.8000488281</ele>
        <time>2021-09-01T07:15:42.814Z</time>
      </trkpt>
      <trkpt lat="44.43116" lon="6.16622">
        <ele>1105.4000244141</ele>
        <time>2021-09-01T07:15:48.172Z</time>
      </trkpt>
      <trkpt lat="44.43111" lon="6.16598">
        <ele>1106.1999511719</ele>
        <time>2021-09-01T07:15:53.535Z</time>
      </trkpt>
      <trkpt lat="44.43099" lon="6.16572">
        <ele>1106.1999511719</ele>
        <time>2021-09-01T07:15:58.905Z</time>
      </trkpt>
      <trkpt lat="44.43087" lon="6.16551">
        <ele>1106.1999511719</ele>
        <time>2021-09-01T07:16:04.280Z</time>
      </trkpt>
      <trkpt lat="44.43072" lon="6.16531">
        <ele>1109.4000244141</ele>
        <time>2021-09-01T07:16:09.661Z</time>
      </trkpt>
      <trkpt lat="44.43045" lon="6.16505">
        <ele>1109.4000244141</ele>
        <time>2021-09-01T07:16:15.052Z</time>
      </trkpt>
      <trkpt lat="44.43021" lon="6.16473">
        <ele>1113.4000244141</ele>
        <time>2021-09-01T07:16:20.452Z</time>
      </trkpt>
      <trkpt lat="44.42995" lon="6.16445">
        <ele>1113.4000244141</ele>
        <time>2021-09-01T07:16:25.862Z</time>
      </trkpt>
      <trkpt lat="44.42958" lon="6.16389">
        <ele>1113.4000244141</ele>
        <time>2021-09-01T07:16:31.288Z</time>
      </trkpt>
      <trkpt lat="44.42926" lon="6.16305">
        <ele>1113.4000244141</ele>
        <time>2021-09-01T07:16:36.734Z</time>
      </trkpt>
      <trkpt lat="44.42898" lon="6.16245">
        <ele>1113.4000244141</ele>
        <time>2021-09-01T07:16:42.194Z</time>
      </trkpt>
      <trkpt lat="44.42865" lon="6.16165">
        <ele>1127.4000244141</ele>
        <time>2021-09-01T07:16:47.674Z</time>
      </trkpt>
      <trkpt lat="44.42864" lon="6.1616">
        <ele>1127.4000244141</ele>
        <time>2021-09-01T07:16:53.155Z</time>
      </trkpt>
      <trkpt lat="44.42862" lon="6.1612">
        <ele>1128.5999755859</ele>
        <time>2021-09-01T07:16:58.644Z</time>
      </trkpt>
      <trkpt lat="44.42858" lon="6.16088">
        <ele>1128.5999755859</ele>
        <time>2021-09-01T07:17:04.140Z</time>
      </trkpt>
      <trkpt lat="44.42848" lon="6.16071">
        <ele>1131</ele>
        <time>2021-09-01T07:17:09.640Z</time>
      </trkpt>
      <trkpt lat="44.42833" lon="6.16059">
        <ele>1132.1999511719</ele>
        <time>2021-09-01T07:17:15.145Z</time>
      </trkpt>
      <trkpt lat="44.42825" lon="6.16051">
        <ele>1132.1999511719</ele>
        <time>2021-09-01T07:17:20.653Z</time>
      </trkpt>
      <trkpt lat="44.428" lon="6.1601">
        <ele>1135.4000244141</ele>
        <time>2021-09-01T07:17:26.172Z</time>
      </trkpt>
      <trkpt lat="44.42796" lon="6.16003">
        <ele>1135.4000244141</ele>
        <time>2021-09-01T07:17:31.693Z</time>
      </trkpt>
      <trkpt lat="44.42789" lon="6.15977">
        <ele>1135.4000244141</ele>
        <time>2021-09-01T07:17:37.220Z</time>
      </trkpt>
      <trkpt lat="44.42783" lon="6.15948">
        <ele>1133.5999755859</ele>
        <time>2021-09-01T07:17:42.753Z</time>
      </trkpt>
      <trkpt lat="44.42783" lon="6.15901">
        <ele>1133.5999755859</ele>
        <time>2021-09-01T07:17:48.296Z</time>
      </trkpt>
      <trkpt lat="44.42785" lon="6.15894">
        <ele>1128.4000244141</ele>
        <time>2021-09-01T07:17:53.841Z</time>
      </trkpt>
      <trkpt lat="44.42788" lon="6.15889">
        <ele>1128.4000244141</ele>
        <time>2021-09-01T07:17:59.387Z</time>
      </trkpt>
      <trkpt lat="44.42825" lon="6.15865">
        <ele>1123</ele>
        <time>2021-09-01T07:18:04.945Z</time>
      </trkpt>
      <trkpt lat="44.42834" lon="6.15865">
        <ele>1123</ele>
        <time>2021-09-01T07:18:10.505Z</time>
      </trkpt>
      <trkpt lat="44.42842" lon="6.15868">
        <ele>1123</ele>
        <time>2021-09-01T07:18:16.068Z</time>
      </trkpt>
      <trkpt lat="44.42859" lon="6.15869">
        <ele>1127</ele>
        <time>2021-09-01T07:18:21.636Z</time>
      </trkpt>
      <trkpt lat="44.42873" lon="6.15872">
        <ele>1127.4000244141</ele>
        <time>2021-09-01T07:18:27.208Z</time>
      </trkpt>
      <trkpt lat="44.42878" lon="6.1587">
        <ele>1127.4000244141</ele>
        <time>2021-09-01T07:18:32.781Z</time>
      </trkpt>
      <trkpt lat="44.42889" lon="6.15872">
        <ele>1127.4000244141</ele>
        <time>2021-09-01T07:18:38.358Z</time>
      </trkpt>
      <trkpt lat="44.42895" lon="6.15871">
        <ele>1130</ele>
        <time>2021-09-01T07:18:43.936Z</time>
      </trkpt>
      <trkpt lat="44.42905" lon="6.15866">
        <ele>1131.1999511719</ele>
        <time>2021-09-01T07:18:49.517Z</time>
      </trkpt>
      <trkpt lat="44.42919" lon="6.15828">
        <ele>1130.4000244141</ele>
        <time>2021-09-01T07:18:55.107Z</time>
      </trkpt>
      <trkpt lat="44.42925" lon="6.15801">
        <ele>1130.4000244141</ele>
        <time>2021-09-01T07:19:00.703Z</time>
      </trkpt>
      <trkpt lat="44.42932" lon="6.15786">
        <ele>1130.4000244141</ele>
        <time>2021-09-01T07:19:06.303Z</time>
      </trkpt>
      <trkpt lat="44.42937" lon="6.1577">
        <ele>1130.4000244141</ele>
        <time>2021-09-01T07:19:11.906Z</time>
      </trkpt>
      <trkpt lat="44.42938" lon="6.15756">
        <ele>1130.4000244141</ele>
        <time>2021-09-01T07:19:17.513Z</time>
      </trkpt>
      <trkpt lat="44.42942" lon="6.15732">
        <ele>1130.4000244141</ele>
        <time>2021-09-01T07:19:23.125Z</time>
      </trkpt>
      <trkpt lat="44.42948" lon="6.1572">
        <ele>1135.1999511719</ele>
        <time>2021-09-01T07:19:28.740Z</time>
      </trkpt>
      <trkpt lat="44.42968" lon="6.15691">
        <ele>1135.1999511719</ele>
        <time>2021-09-01T07:19:34.363Z</time>
      </trkpt>
      <trkpt lat="44.42977" lon="6.15667">
        <ele>1141.5999755859</ele>
        <time>2021-09-01T07:19:39.992Z</time>
      </trkpt>
      <trkpt lat="44.42981" lon="6.15652">
        <ele>1143.5999755859</ele>
        <time>2021-09-01T07:19:45.624Z</time>
      </trkpt>
      <trkpt lat="44.42987" lon="6.15639">
        <ele>1143.5999755859</ele>
        <time>2021-09-01T07:19:51.259Z</time>
      </trkpt>
      <trkpt lat="44.42996" lon="6.1561">
        <ele>1149.1999511719</ele>
        <time>2021-09-01T07:19:56.901Z</time>
      </trkpt>
      <trkpt lat="44.43026" lon="6.15538">
        <ele>1154.5999755859</ele>
        <time>2021-09-01T07:20:02.560Z</time>
      </trkpt>
      <trkpt lat="44.43038" lon="6.15525">
        <ele>1154.5999755859</ele>
        <time>2021-09-01T07:20:08.224Z</time>
      </trkpt>
      <trkpt lat="44.43044" lon="6.15515">
        <ele>1154.1999511719</ele>
        <time>2021-09-01T07:20:13.890Z</time>
      </trkpt>
      <trkpt lat="44.4309" lon="6.15398">
        <ele>1154.1999511719</ele>
        <time>2021-09-01T07:20:19.584Z</time>
      </trkpt>
      <trkpt lat="44.43097" lon="6.15385">
        <ele>1154.1999511719</ele>
        <time>2021-09-01T07:20:25.281Z</time>
      </trkpt>
      <trkpt lat="44.4311" lon="6.15368">
        <ele>1154.1999511719</ele>
        <time>2021-09-01T07:20:30.983Z</time>
      </trkpt>
      <trkpt lat="44.43116" lon="6.15357">
        <ele>1154.1999511719</ele>
        <time>2021-09-01T07:20:36.688Z</time>
      </trkpt>
      <trkpt lat="44.43119" lon="6.1534">
        <ele>1177.8000488281</ele>
        <time>2021-09-01T07:20:42.397Z</time>
      </trkpt>
      <trkpt lat="44.43125" lon="6.15332">
        <ele>1180.4000244141</ele>
        <time>2021-09-01T07:20:48.109Z</time>
      </trkpt>
      <trkpt lat="44.43127" lon="6.15327">
        <ele>1180.4000244141</ele>
        <time>2021-09-01T07:20:53.822Z</time>
      </trkpt>
      <trkpt lat="44.43132" lon="6.15299">
        <ele>1180.4000244141</ele>
        <time>2021-09-01T07:20:59.541Z</time>
      </trkpt>
      <trkpt lat="44.43139" lon="6.15291">
        <ele>1180.4000244141</ele>
        <time>2021-09-01T07:21:05.262Z</time>
      </trkpt>
      <trkpt lat="44.43155" lon="6.15281">
        <ele>1180.4000244141</ele>
        <time>2021-09-01T07:21:10.988Z</time>
      </trkpt>
      <trkpt lat="44.43161" lon="6.15283">
        <ele>1190</ele>
        <time>2021-09-01T07:21:16.716Z</time>
      </trkpt>
      <trkpt lat="44.4318" lon="6.15296">
        <ele>1194.8000488281</ele>
        <time>2021-09-01T07:21:22.450Z</time>
      </trkpt>
      <trkpt lat="44.43194" lon="6.15302">
        <ele>1197.1999511719</ele>
        <time>2021-09-01T07:21:28.188Z</time>
      </trkpt>
      <trkpt lat="44.43221" lon="6.153">
        <ele>1203.1999511719</ele>
        <time>2021-09-01T07:21:33.934Z</time>
      </trkpt>
      <trkpt lat="44.43228" lon="6.15292">
        <ele>1205.4000244141</ele>
        <time>2021-09-01T07:21:39.683Z</time>
      </trkpt>
      <trkpt lat="44.43235" lon="6.15289">
        <ele>1205.8000488281</ele>
        <time>2021-09-01T07:21:45.434Z</time>
      </trkpt>
      <trkpt lat="44.43241" lon="6.15283">
        <ele>1205.8000488281</ele>
        <time>2021-09-01T07:21:51.187Z</time>
      </trkpt>
      <trkpt lat="44.43251" lon="6.15283">
        <ele>1209</ele>
        <time>2021-09-01T07:21:56.943Z</time>
      </trkpt>
      <trkpt lat="44.43257" lon="6.15279">
        <ele>1209</ele>
        <time>2021-09-01T07:22:02.701Z</time>
      </trkpt>
      <trkpt lat="44.43272" lon="6.15265">
        <ele>1210.5999755859</ele>
        <time>2021-09-01T07:22:08.464Z</time>
      </trkpt>
      <trkpt lat="44.43282" lon="6.15253">
        <ele>1210.5999755859</ele>
        <time>2021-09-01T07:22:14.231Z</time>
      </trkpt>
      <trkpt lat="44.43291" lon="6.15237">
        <ele>1210.5999755859</ele>
        <time>2021-09-01T07:22:20.003Z</time>
      </trkpt>
      <trkpt lat="44.43333" lon="6.15183">
        <ele>1214</ele>
        <time>2021-09-01T07:22:25.791Z</time>
      </trkpt>
      <trkpt lat="44.43354" lon="6.15163">
        <ele>1214</ele>
        <time>2021-09-01T07:22:31.586Z</time>
      </trkpt>
      <trkpt lat="44.43364" lon="6.15146">
        <ele>1219</ele>
        <time>2021-09-01T07:22:37.386Z</time>
      </trkpt>
      <trkpt lat="44.43399" lon="6.15119">
        <ele>1219</ele>
        <time>2021-09-01T07:22:43.198Z</time>
      </trkpt>
      <trkpt lat="44.43414" lon="6.1511">
        <ele>1219</ele>
        <time>2021-09-01T07:22:49.014Z</time>
      </trkpt>
      <trkpt lat="44.43431" lon="6.15093">
        <ele>1219</ele>
        <time>2021-09-01T07:22:54.836Z</time>
      </trkpt>
      <trkpt lat="44.43455" lon="6.15074">
        <ele>1219</ele>
        <time>2021-09-01T07:23:00.666Z</time>
      </trkpt>
      <trkpt lat="44.43475" lon="6.15055">
        <ele>1219</ele>
        <time>2021-09-01T07:23:06.503Z</time>
      </trkpt>
      <trkpt lat="44.435" lon="6.15021">
        <ele>1231.5999755859</ele>
        <time>2021-09-01T07:23:12.351Z</time>
      </trkpt>
      <trkpt lat="44.43503" lon="6.15008">
        <ele>1231.5999755859</ele>
        <time>2021-09-01T07:23:18.201Z</time>
      </trkpt>
      <trkpt lat="44.43513" lon="6.14991">
        <ele>1231.5999755859</ele>
        <time>2021-09-01T07:23:24.056Z</time>
      </trkpt>
      <trkpt lat="44.43519" lon="6.14973">
        <ele>1231.1999511719</ele>
        <time>2021-09-01T07:23:29.915Z</time>
      </trkpt>
      <trkpt lat="44.4352" lon="6.14949">
        <ele>1230.4000244141</ele>
        <time>2021-09-01T07:23:35.779Z</time>
      </trkpt>
      <trkpt lat="44.43528" lon="6.14924">
        <ele>1230.4000244141</ele>
        <time>2021-09-01T07:23:41.649Z</time>
      </trkpt>
      <trkpt lat="44.43537" lon="6.14907">
        <ele>1231.1999511719</ele>
        <time>2021-09-01T07:23:47.523Z</time>
      </trkpt>
      <trkpt lat="44.43548" lon="6.14854">
        <ele>1232.5999755859</ele>
        <time>2021-09-01T07:23:53.409Z</time>
      </trkpt>
      <trkpt lat="44.43566" lon="6.14814">
        <ele>1237.5999755859</ele>
        <time>2021-09-01T07:23:59.304Z</time>
      </trkpt>
      <trkpt lat="44.43599" lon="6.14772">
        <ele>1237.5999755859</ele>
        <time>2021-09-01T07:24:05.212Z</time>
      </trkpt>
      <trkpt lat="44.43616" lon="6.14736">
        <ele>1253</ele>
        <time>2021-09-01T07:24:11.129Z</time>
      </trkpt>
      <trkpt lat="44.43624" lon="6.14706">
        <ele>1253</ele>
        <time>2021-09-01T07:24:17.053Z</time>
      </trkpt>
      <trkpt lat="44.43628" lon="6.14675">
        <ele>1253</ele>
        <time>2021-09-01T07:24:22.984Z</time>
      </trkpt>
      <trkpt lat="44.43642" lon="6.14641">
        <ele>1253</ele>
        <time>2021-09-01T07:24:28.923Z</time>
      </trkpt>
      <trkpt lat="44.43666" lon="6.14608">
        <ele>1253</ele>
        <time>2021-09-01T07:24:34.871Z</time>
      </trkpt>
      <trkpt lat="44.43689" lon="6.14591">
        <ele>1253</ele>
        <time>2021-09-01T07:24:40.827Z</time>
      </trkpt>
      <trkpt lat="44.43706" lon="6.14569">
        <ele>1253</ele>
        <time>2021-09-01T07:24:46.790Z</time>
      </trkpt>
      <trkpt lat="44.43712" lon="6.14558">
        <ele>1275.4000244141</ele>
        <time>2021-09-01T07:24:52.756Z</time>
      </trkpt>
      <trkpt lat="44.43716" lon="6.14536">
        <ele>1275.4000244141</ele>
        <time>2021-09-01T07:24:58.726Z</time>
      </trkpt>
      <trkpt lat="44.43721" lon="6.14526">
        <ele>1279.1999511719</ele>
        <time>2021-09-01T07:25:04.699Z</time>
      </trkpt>
      <trkpt lat="44.43724" lon="6.14515">
        <ele>1280.5999755859</ele>
        <time>2021-09-01T07:25:10.674Z</time>
      </trkpt>
      <trkpt lat="44.43756" lon="6.14488">
        <ele>1286.4000244141</ele>
        <time>2021-09-01T07:25:16.660Z</time>
      </trkpt>
      <trkpt lat="44.43781" lon="6.14474">
        <ele>1292.4000244141</ele>
        <time>2021-09-01T07:25:22.654Z</time>
      </trkpt>
      <trkpt lat="44.43785" lon="6.14475">
        <ele>1293.8000488281</ele>
        <time>2021-09-01T07:25:28.649Z</time>
      </trkpt>
      <trkpt lat="44.43793" lon="6.14482">
        <ele>1295.8000488281</ele>
        <time>2021-09-01T07:25:34.647Z</time>
      </trkpt>
      <trkpt lat="44.43799" lon="6.14481">
        <ele>1295.8000488281</ele>
        <time>2021-09-01T07:25:40.647Z</time>
      </trkpt>
      <trkpt lat="44.43803" lon="6.14486">
        <ele>1295.8000488281</ele>
        <time>2021-09-01T07:25:46.648Z</time>
      </trkpt>
      <trkpt lat="44.43804" lon="6.14486">
        <ele>1297.8000488281</ele>
        <time>2021-09-01T07:25:52.650Z</time>
      </trkpt>
      <trkpt lat="44.43794" lon="6.14473">
        <ele>1297.8000488281</ele>
        <time>2021-09-01T07:25:58.655Z</time>
      </trkpt>
      <trkpt lat="44.43788" lon="6.14453">
        <ele>1298.1999511719</ele>
        <time>2021-09-01T07:26:04.665Z</time>
      </trkpt>
      <trkpt lat="44.43791" lon="6.14423">
        <ele>1298.1999511719</ele>
        <time>2021-09-01T07:26:10.681Z</time>
      </trkpt>
      <trkpt lat="44.43802" lon="6.14396">
        <ele>1298.4000244141</ele>
        <time>2021-09-01T07:26:16.704Z</time>
      </trkpt>
      <trkpt lat="44.43812" lon="6.14354">
        <ele>1300.1999511719</ele>
        <time>2021-09-01T07:26:22.736Z</time>
      </trkpt>
      <trkpt lat="44.43809" lon="6.14349">
        <ele>1300.1999511719</ele>
        <time>2021-09-01T07:26:28.769Z</time>
      </trkpt>
      <trkpt lat="44.43775" lon="6.14332">
        <ele>1300.1999511719</ele>
        <time>2021-09-01T07:26:34.813Z</time>
      </trkpt>
      <trkpt lat="44.43751" lon="6.14315">
        <ele>1301.4000244141</ele>
        <time>2021-09-01T07:26:40.865Z</time>
      </trkpt>
      <trkpt lat="44.43744" lon="6.14295">
        <ele>1301.4000244141</ele>
        <time>2021-09-01T07:26:46.921Z</time>
      </trkpt>
      <trkpt lat="44.43748" lon="6.14239">
        <ele>1301.4000244141</ele>
        <time>2021-09-01T07:26:52.989Z</time>
      </trkpt>
      <trkpt lat="44.43754" lon="6.14207">
        <ele>1306.1999511719</ele>
        <time>2021-09-01T07:26:59.064Z</time>
      </trkpt>
      <trkpt lat="44.43783" lon="6.14127">
        <ele>1312</ele>
        <time>2021-09-01T07:27:05.158Z</time>
      </trkpt>
      <trkpt lat="44.43788" lon="6.14084">
        <ele>1314.5999755859</ele>
        <time>2021-09-01T07:27:11.261Z</time>
      </trkpt>
      <trkpt lat="44.43794" lon="6.14075">
        <ele>1314.5999755859</ele>
        <time>2021-09-01T07:27:17.366Z</time>
      </trkpt>
      <trkpt lat="44.43808" lon="6.14065">
        <ele>1314.5999755859</ele>
        <time>2021-09-01T07:27:23.476Z</time>
      </trkpt>
      <trkpt lat="44.43834" lon="6.14042">
        <ele>1319.5999755859</ele>
        <time>2021-09-01T07:27:29.595Z</time>
      </trkpt>
      <trkpt lat="44.43855" lon="6.14011">
        <ele>1319.5999755859</ele>
        <time>2021-09-01T07:27:35.723Z</time>
      </trkpt>
      <trkpt lat="44.43855" lon="6.14006">
        <ele>1321.4000244141</ele>
        <time>2021-09-01T07:27:41.852Z</time>
      </trkpt>
      <trkpt lat="44.43854" lon="6.14002">
        <ele>1321.4000244141</ele>
        <time>2021-09-01T07:27:47.981Z</time>
      </trkpt>
      <trkpt lat="44.43849" lon="6.13999">
        <ele>1322</ele>
        <time>2021-09-01T07:27:54.112Z</time>
      </trkpt>
      <trkpt lat="44.43812" lon="6.13998">
        <ele>1326.1999511719</ele>
        <time>2021-09-01T07:28:00.254Z</time>
      </trkpt>
      <trkpt lat="44.43792" lon="6.13993">
        <ele>1326.1999511719</ele>
        <time>2021-09-01T07:28:06.402Z</time>
      </trkpt>
      <trkpt lat="44.43771" lon="6.13983">
        <ele>1326.1999511719</ele>
        <time>2021-09-01T07:28:12.556Z</time>
      </trkpt>
      <trkpt lat="44.43764" lon="6.13978">
        <ele>1332</ele>
        <time>2021-09-01T07:28:18.712Z</time>
      </trkpt>
      <trkpt lat="44.43761" lon="6.13968">
        <ele>1332</ele>
        <time>2021-09-01T07:28:24.871Z</time>
      </trkpt>
      <trkpt lat="44.43769" lon="6.13937">
        <ele>1337</ele>
        <time>2021-09-01T07:28:31.036Z</time>
      </trkpt>
      <trkpt lat="44.43771" lon="6.13923">
        <ele>1338</ele>
        <time>2021-09-01T07:28:37.204Z</time>
      </trkpt>
      <trkpt lat="44.43769" lon="6.13914">
        <ele>1338.4000244141</ele>
        <time>2021-09-01T07:28:43.374Z</time>
      </trkpt>
      <trkpt lat="44.43718" lon="6.13901">
        <ele>1341.5999755859</ele>
        <time>2021-09-01T07:28:49.559Z</time>
      </trkpt>
      <trkpt lat="44.43702" lon="6.13891">
        <ele>1343.1999511719</ele>
        <time>2021-09-01T07:28:55.749Z</time>
      </trkpt>
      <trkpt lat="44.43691" lon="6.13872">
        <ele>1344.5999755859</ele>
        <time>2021-09-01T07:29:01.945Z</time>
      </trkpt>
      <trkpt lat="44.43683" lon="6.13843">
        <ele>1345.8000488281</ele>
        <time>2021-09-01T07:29:08.147Z</time>
      </trkpt>
      <trkpt lat="44.43682" lon="6.13811">
        <ele>1345.8000488281</ele>
        <time>2021-09-01T07:29:14.356Z</time>
      </trkpt>
      <trkpt lat="44.4369" lon="6.13728">
        <ele>1345.8000488281</ele>
        <time>2021-09-01T07:29:20.582Z</time>
      </trkpt>
      <trkpt lat="44.43685" lon="6.13713">
        <ele>1348</ele>
        <time>2021-09-01T07:29:26.811Z</time>
      </trkpt>
      <trkpt lat="44.43685" lon="6.13698">
        <ele>1348</ele>
        <time>2021-09-01T07:29:33.043Z</time>
      </trkpt>
      <trkpt lat="44.43689" lon="6.13682">
        <ele>1347</ele>
        <time>2021-09-01T07:29:39.279Z</time>
      </trkpt>
      <trkpt lat="44.43703" lon="6.13671">
        <ele>1347</ele>
        <time>2021-09-01T07:29:45.520Z</time>
      </trkpt>
      <trkpt lat="44.43717" lon="6.13664">
        <ele>1348.4000244141</ele>
        <time>2021-09-01T07:29:51.765Z</time>
      </trkpt>
      <trkpt lat="44.43744" lon="6.13656">
        <ele>1348.4000244141</ele>
        <time>2021-09-01T07:29:58.018Z</time>
      </trkpt>
      <trkpt lat="44.43757" lon="6.13654">
        <ele>1348.4000244141</ele>
        <time>2021-09-01T07:30:04.275Z</time>
      </trkpt>
      <trkpt lat="44.43766" lon="6.13655">
        <ele>1353.1999511719</ele>
        <time>2021-09-01T07:30:10.534Z</time>
      </trkpt>
      <trkpt lat="44.43778" lon="6.13661">
        <ele>1354.1999511719</ele>
        <time>2021-09-01T07:30:16.797Z</time>
      </trkpt>
      <trkpt lat="44.43789" lon="6.13661">
        <ele>1354.1999511719</ele>
        <time>2021-09-01T07:30:23.063Z</time>
      </trkpt>
      <trkpt lat="44.43811" lon="6.13635">
        <ele>1354.1999511719</ele>
        <time>2021-09-01T07:30:29.338Z</time>
      </trkpt>
      <trkpt lat="44.43815" lon="6.13624">
        <ele>1355.8000488281</ele>
        <time>2021-09-01T07:30:35.615Z</time>
      </trkpt>
      <trkpt lat="44.43817" lon="6.136">
        <ele>1355.8000488281</ele>
        <time>2021-09-01T07:30:41.897Z</time>
      </trkpt>
      <trkpt lat="44.43821" lon="6.13591">
        <ele>1355.1999511719</ele>
        <time>2021-09-01T07:30:48.181Z</time>
      </trkpt>
      <trkpt lat="44.43822" lon="6.13575">
        <ele>1355.1999511719</ele>
        <time>2021-09-01T07:30:54.469Z</time>
      </trkpt>
      <trkpt lat="44.43816" lon="6.13538">
        <ele>1355.1999511719</ele>
        <time>2021-09-01T07:31:00.765Z</time>
      </trkpt>
      <trkpt lat="44.43808" lon="6.13527">
        <ele>1356.1999511719</ele>
        <time>2021-09-01T07:31:07.064Z</time>
      </trkpt>
      <trkpt lat="44.4379" lon="6.13523">
        <ele>1356.5999755859</ele>
        <time>2021-09-01T07:31:13.368Z</time>
      </trkpt>
      <trkpt lat="44.43779" lon="6.1351">
        <ele>1356.5999755859</ele>
        <time>2021-09-01T07:31:19.677Z</time>
      </trkpt>
      <trkpt lat="44.43775" lon="6.13493">
        <ele>1356.4000244141</ele>
        <time>2021-09-01T07:31:25.989Z</time>
      </trkpt>
      <trkpt lat="44.43774" lon="6.13479">
        <ele>1356.4000244141</ele>
        <time>2021-09-01T07:31:32.304Z</time>
      </trkpt>
      <trkpt lat="44.43772" lon="6.13475">
        <ele>1357.5999755859</ele>
        <time>2021-09-01T07:31:38.620Z</time>
      </trkpt>
      <trkpt lat="44.43763" lon="6.13467">
        <ele>1357.5999755859</ele>
        <time>2021-09-01T07:31:44.939Z</time>
      </trkpt>
      <trkpt lat="44.43747" lon="6.13459">
        <ele>1357.5999755859</ele>
        <time>2021-09-01T07:31:51.263Z</time>
      </trkpt>
      <trkpt lat="44.4374" lon="6.13451">
        <ele>1358.4000244141</ele>
        <time>2021-09-01T07:31:57.590Z</time>
      </trkpt>
      <trkpt lat="44.43724" lon="6.13431">
        <ele>1358.4000244141</ele>
        <time>2021-09-01T07:32:03.923Z</time>
      </trkpt>
      <trkpt lat="44.43721" lon="6.1342">
        <ele>1359.1999511719</ele>
        <time>2021-09-01T07:32:10.259Z</time>
      </trkpt>
      <trkpt lat="44.43721" lon="6.13414">
        <ele>1359.1999511719</ele>
        <time>2021-09-01T07:32:16.596Z</time>
      </trkpt>
      <trkpt lat="44.43726" lon="6.13385">
        <ele>1359.1999511719</ele>
        <time>2021-09-01T07:32:22.939Z</time>
      </trkpt>
      <trkpt lat="44.43736" lon="6.1336">
        <ele>1359.1999511719</ele>
        <time>2021-09-01T07:32:29.288Z</time>
      </trkpt>
      <trkpt lat="44.43751" lon="6.13334">
        <ele>1363</ele>
        <time>2021-09-01T07:32:35.644Z</time>
      </trkpt>
      <trkpt lat="44.4381" lon="6.13275">
        <ele>1363</ele>
        <time>2021-09-01T07:32:42.021Z</time>
      </trkpt>
      <trkpt lat="44.4383" lon="6.13275">
        <ele>1363</ele>
        <time>2021-09-01T07:32:48.404Z</time>
      </trkpt>
      <trkpt lat="44.43837" lon="6.13281">
        <ele>1363.1999511719</ele>
        <time>2021-09-01T07:32:54.789Z</time>
      </trkpt>
      <trkpt lat="44.43846" lon="6.13275">
        <ele>1361.5999755859</ele>
        <time>2021-09-01T07:33:01.177Z</time>
      </trkpt>
      <trkpt lat="44.43852" lon="6.13279">
        <ele>1359.8000488281</ele>
        <time>2021-09-01T07:33:07.567Z</time>
      </trkpt>
      <trkpt lat="44.43854" lon="6.13279">
        <ele>1359.8000488281</ele>
        <time>2021-09-01T07:33:13.958Z</time>
      </trkpt>
      <trkpt lat="44.43853" lon="6.13265">
        <ele>1355.8000488281</ele>
        <time>2021-09-01T07:33:20.352Z</time>
      </trkpt>
      <trkpt lat="44.4386" lon="6.13269">
        <ele>1355.8000488281</ele>
        <time>2021-09-01T07:33:26.748Z</time>
      </trkpt>
      <trkpt lat="44.43868" lon="6.13293">
        <ele>1352.1999511719</ele>
        <time>2021-09-01T07:33:33.149Z</time>
      </trkpt>
      <trkpt lat="44.43878" lon="6.13305">
        <ele>1352.1999511719</ele>
        <time>2021-09-01T07:33:39.554Z</time>
      </trkpt>
      <trkpt lat="44.43888" lon="6.1331">
        <ele>1352.1999511719</ele>
        <time>2021-09-01T07:33:45.962Z</time>
      </trkpt>
      <trkpt lat="44.43905" lon="6.13309">
        <ele>1347.8000488281</ele>
        <time>2021-09-01T07:33:52.375Z</time>
      </trkpt>
      <trkpt lat="44.43927" lon="6.13311">
        <ele>1344.8000488281</ele>
        <time>2021-09-01T07:33:58.794Z</time>
      </trkpt>
      <trkpt lat="44.43936" lon="6.13314">
        <ele>1344.8000488281</ele>
        <time>2021-09-01T07:34:05.216Z</time>
      </trkpt>
      <trkpt lat="44.43952" lon="6.13326">
        <ele>1340.5999755859</ele>
        <time>2021-09-01T07:34:11.643Z</time>
      </trkpt>
      <trkpt lat="44.43962" lon="6.13329">
        <ele>1339.4000244141</ele>
        <time>2021-09-01T07:34:18.074Z</time>
      </trkpt>
      <trkpt lat="44.43982" lon="6.13329">
        <ele>1339.4000244141</ele>
        <time>2021-09-01T07:34:24.510Z</time>
      </trkpt>
      <trkpt lat="44.43997" lon="6.13324">
        <ele>1339.4000244141</ele>
        <time>2021-09-01T07:34:30.951Z</time>
      </trkpt>
      <trkpt lat="44.44052" lon="6.13325">
        <ele>1339.4000244141</ele>
        <time>2021-09-01T07:34:37.408Z</time>
      </trkpt>
      <trkpt lat="44.44061" lon="6.13328">
        <ele>1339.4000244141</ele>
        <time>2021-09-01T07:34:43.867Z</time>
      </trkpt>
      <trkpt lat="44.44059" lon="6.13322">
        <ele>1339.4000244141</ele>
        <time>2021-09-01T07:34:50.328Z</time>
      </trkpt>
      <trkpt lat="44.44052" lon="6.13316">
        <ele>1321.8000488281</ele>
        <time>2021-09-01T07:34:56.791Z</time>
      </trkpt>
      <trkpt lat="44.44016" lon="6.13302">
        <ele>1321.8000488281</ele>
        <time>2021-09-01T07:35:03.265Z</time>
      </trkpt>
      <trkpt lat="44.44013" lon="6.13299">
        <ele>1321.8000488281</ele>
        <time>2021-09-01T07:35:09.740Z</time>
      </trkpt>
      <trkpt lat="44.44019" lon="6.13294">
        <ele>1314.1999511719</ele>
        <time>2021-09-01T07:35:16.217Z</time>
      </trkpt>
      <trkpt lat="44.44055" lon="6.13284">
        <ele>1307.5999755859</ele>
        <time>2021-09-01T07:35:22.705Z</time>
      </trkpt>
      <trkpt lat="44.44068" lon="6.13282">
        <ele>1304.5999755859</ele>
        <time>2021-09-01T07:35:29.197Z</time>
      </trkpt>
      <trkpt lat="44.44076" lon="6.13282">
        <ele>1301.8000488281</ele>
        <time>2021-09-01T07:35:35.691Z</time>
      </trkpt>
      <trkpt lat="44.44069" lon="6.13273">
        <ele>1301.8000488281</ele>
        <time>2021-09-01T07:35:42.188Z</time>
      </trkpt>
      <trkpt lat="44.44073" lon="6.13268">
        <ele>1297.5999755859</ele>
        <time>2021-09-01T07:35:48.686Z</time>
      </trkpt>
      <trkpt lat="44.44076" lon="6.13267">
        <ele>1297.5999755859</ele>
        <time>2021-09-01T07:35:55.185Z</time>
      </trkpt>
      <trkpt lat="44.44096" lon="6.13265">
        <ele>1293.8000488281</ele>
        <time>2021-09-01T07:36:01.690Z</time>
      </trkpt>
      <trkpt lat="44.44101" lon="6.13264">
        <ele>1293.8000488281</ele>
        <time>2021-09-01T07:36:08.196Z</time>
      </trkpt>
      <trkpt lat="44.44109" lon="6.13259">
        <ele>1293.8000488281</ele>
        <time>2021-09-01T07:36:14.705Z</time>
      </trkpt>
      <trkpt lat="44.44113" lon="6.13259">
        <ele>1289.4000244141</ele>
        <time>2021-09-01T07:36:21.215Z</time>
      </trkpt>
      <trkpt lat="44.44124" lon="6.13266">
        <ele>1289.4000244141</ele>
        <time>2021-09-01T07:36:27.728Z</time>
      </trkpt>
      <trkpt lat="44.44126" lon="6.13263">
        <ele>1285</ele>
        <time>2021-09-01T07:36:34.242Z</time>
      </trkpt>
      <trkpt lat="44.44133" lon="6.13248">
        <ele>1285</ele>
        <time>2021-09-01T07:36:40.760Z</time>
      </trkpt>
      <trkpt lat="44.44133" lon="6.13243">
        <ele>1281.5999755859</ele>
        <time>2021-09-01T07:36:47.279Z</time>
      </trkpt>
      <trkpt lat="44.44128" lon="6.13236">
        <ele>1279.5999755859</ele>
        <time>2021-09-01T07:36:53.800Z</time>
      </trkpt>
      <trkpt lat="44.44117" lon="6.1323">
        <ele>1277.8000488281</ele>
        <time>2021-09-01T07:37:00.325Z</time>
      </trkpt>
      <trkpt lat="44.44115" lon="6.13228">
        <ele>1277.8000488281</ele>
        <time>2021-09-01T07:37:06.850Z</time>
      </trkpt>
      <trkpt lat="44.44115" lon="6.13226">
        <ele>1276.5999755859</ele>
        <time>2021-09-01T07:37:13.376Z</time>
      </trkpt>
      <trkpt lat="44.44138" lon="6.13211">
        <ele>1276.5999755859</ele>
        <time>2021-09-01T07:37:19.909Z</time>
      </trkpt>
      <trkpt lat="44.44153" lon="6.13211">
        <ele>1268.8000488281</ele>
        <time>2021-09-01T07:37:26.446Z</time>
      </trkpt>
      <trkpt lat="44.44165" lon="6.13215">
        <ele>1268.8000488281</ele>
        <time>2021-09-01T07:37:32.987Z</time>
      </trkpt>
      <trkpt lat="44.44179" lon="6.13204">
        <ele>1261.4000244141</ele>
        <time>2021-09-01T07:37:39.533Z</time>
      </trkpt>
      <trkpt lat="44.4418" lon="6.13201">
        <ele>1261.4000244141</ele>
        <time>2021-09-01T07:37:46.079Z</time>
      </trkpt>
      <trkpt lat="44.44178" lon="6.13194">
        <ele>1261.4000244141</ele>
        <time>2021-09-01T07:37:52.627Z</time>
      </trkpt>
      <trkpt lat="44.44179" lon="6.13192">
        <ele>1257.5999755859</ele>
        <time>2021-09-01T07:37:59.175Z</time>
      </trkpt>
      <trkpt lat="44.44187" lon="6.13194">
        <ele>1256.1999511719</ele>
        <time>2021-09-01T07:38:05.726Z</time>
      </trkpt>
      <trkpt lat="44.44188" lon="6.13192">
        <ele>1256.1999511719</ele>
        <time>2021-09-01T07:38:12.277Z</time>
      </trkpt>
      <trkpt lat="44.44185" lon="6.13187">
        <ele>1254.4000244141</ele>
        <time>2021-09-01T07:38:18.829Z</time>
      </trkpt>
      <trkpt lat="44.44179" lon="6.13182">
        <ele>1254.4000244141</ele>
        <time>2021-09-01T07:38:25.384Z</time>
      </trkpt>
      <trkpt lat="44.4416" lon="6.13174">
        <ele>1250.5999755859</ele>
        <time>2021-09-01T07:38:31.944Z</time>
      </trkpt>
      <trkpt lat="44.44187" lon="6.1316">
        <ele>1246.5999755859</ele>
        <time>2021-09-01T07:38:38.513Z</time>
      </trkpt>
      <trkpt lat="44.44201" lon="6.13156">
        <ele>1246.5999755859</ele>
        <time>2021-09-01T07:38:45.086Z</time>
      </trkpt>
      <trkpt lat="44.44203" lon="6.13155">
        <ele>1241.5999755859</ele>
        <time>2021-09-01T07:38:51.659Z</time>
      </trkpt>
      <trkpt lat="44.442" lon="6.13149">
        <ele>1239.8000488281</ele>
        <time>2021-09-01T07:38:58.234Z</time>
      </trkpt>
      <trkpt lat="44.44186" lon="6.13136">
        <ele>1239.8000488281</ele>
        <time>2021-09-01T07:39:04.814Z</time>
      </trkpt>
      <trkpt lat="44.44184" lon="6.13134">
        <ele>1236.4000244141</ele>
        <time>2021-09-01T07:39:11.394Z</time>
      </trkpt>
      <trkpt lat="44.44186" lon="6.13128">
        <ele>1236.4000244141</ele>
        <time>2021-09-01T07:39:17.976Z</time>
      </trkpt>
      <trkpt lat="44.44197" lon="6.13124">
        <ele>1233.4000244141</ele>
        <time>2021-09-01T07:39:24.561Z</time>
      </trkpt>
      <trkpt lat="44.44206" lon="6.13127">
        <ele>1233.4000244141</ele>
        <time>2021-09-01T07:39:31.149Z</time>
      </trkpt>
      <trkpt lat="44.44207" lon="6.13124">
        <ele>1229.5999755859</ele>
        <time>2021-09-01T07:39:37.737Z</time>
      </trkpt>
      <trkpt lat="44.44199" lon="6.13111">
        <ele>1227</ele>
        <time>2021-09-01T07:39:44.329Z</time>
      </trkpt>
      <trkpt lat="44.442" lon="6.13108">
        <ele>1227</ele>
        <time>2021-09-01T07:39:50.921Z</time>
      </trkpt>
      <trkpt lat="44.44212" lon="6.13109">
        <ele>1227</ele>
        <time>2021-09-01T07:39:57.517Z</time>
      </trkpt>
      <trkpt lat="44.44205" lon="6.13093">
        <ele>1220.4000244141</ele>
        <time>2021-09-01T07:40:04.117Z</time>
      </trkpt>
      <trkpt lat="44.44206" lon="6.13089">
        <ele>1220.4000244141</ele>
        <time>2021-09-01T07:40:10.718Z</time>
      </trkpt>
      <trkpt lat="44.44209" lon="6.13083">
        <ele>1220.4000244141</ele>
        <time>2021-09-01T07:40:17.320Z</time>
      </trkpt>
      <trkpt lat="44.44213" lon="6.13083">
        <ele>1216</ele>
        <time>2021-09-01T07:40:23.923Z</time>
      </trkpt>
      <trkpt lat="44.44219" lon="6.13087">
        <ele>1216</ele>
        <time>2021-09-01T07:40:30.528Z</time>
      </trkpt>
      <trkpt lat="44.44216" lon="6.13075">
        <ele>1211.8000488281</ele>
        <time>2021-09-01T07:40:37.136Z</time>
      </trkpt>
      <trkpt lat="44.44219" lon="6.13074">
        <ele>1211.8000488281</ele>
        <time>2021-09-01T07:40:43.745Z</time>
      </trkpt>
      <trkpt lat="44.44229" lon="6.13084">
        <ele>1211.8000488281</ele>
        <time>2021-09-01T07:40:50.357Z</time>
      </trkpt>
      <trkpt lat="44.44236" lon="6.13076">
        <ele>1204.8000488281</ele>
        <time>2021-09-01T07:40:56.972Z</time>
      </trkpt>
      <trkpt lat="44.44255" lon="6.13084">
        <ele>1204.8000488281</ele>
        <time>2021-09-01T07:41:03.593Z</time>
      </trkpt>
      <trkpt lat="44.44274" lon="6.13083">
        <ele>1204.8000488281</ele>
        <time>2021-09-01T07:41:10.219Z</time>
      </trkpt>
      <trkpt lat="44.44293" lon="6.13089">
        <ele>1193.4000244141</ele>
        <time>2021-09-01T07:41:16.851Z</time>
      </trkpt>
      <trkpt lat="44.44323" lon="6.13083">
        <ele>1193.4000244141</ele>
        <time>2021-09-01T07:41:23.492Z</time>
      </trkpt>
      <trkpt lat="44.44333" lon="6.13084">
        <ele>1193.4000244141</ele>
        <time>2021-09-01T07:41:30.136Z</time>
      </trkpt>
      <trkpt lat="44.44348" lon="6.13088">
        <ele>1193.4000244141</ele>
        <time>2021-09-01T07:41:36.784Z</time>
      </trkpt>
      <trkpt lat="44.44364" lon="6.13083">
        <ele>1179.8000488281</ele>
        <time>2021-09-01T07:41:43.437Z</time>
      </trkpt>
      <trkpt lat="44.44374" lon="6.13077">
        <ele>1177.8000488281</ele>
        <time>2021-09-01T07:41:50.093Z</time>
      </trkpt>
      <trkpt lat="44.44377" lon="6.13074">
        <ele>1177.8000488281</ele>
        <time>2021-09-01T07:41:56.750Z</time>
      </trkpt>
      <trkpt lat="44.44378" lon="6.13069">
        <ele>1175.1999511719</ele>
        <time>2021-09-01T07:42:03.408Z</time>
      </trkpt>
      <trkpt lat="44.44377" lon="6.13063">
        <ele>1175.1999511719</ele>
        <time>2021-09-01T07:42:10.067Z</time>
      </trkpt>
      <trkpt lat="44.44362" lon="6.13041">
        <ele>1170.4000244141</ele>
        <time>2021-09-01T07:42:16.733Z</time>
      </trkpt>
      <trkpt lat="44.44344" lon="6.13021">
        <ele>1170.4000244141</ele>
        <time>2021-09-01T07:42:23.405Z</time>
      </trkpt>
      <trkpt lat="44.44333" lon="6.13004">
        <ele>1165.4000244141</ele>
        <time>2021-09-01T07:42:30.082Z</time>
      </trkpt>
      <trkpt lat="44.44323" lon="6.12992">
        <ele>1163.1999511719</ele>
        <time>2021-09-01T07:42:36.763Z</time>
      </trkpt>
      <trkpt lat="44.44319" lon="6.12984">
        <ele>1163.1999511719</ele>
        <time>2021-09-01T07:42:43.446Z</time>
      </trkpt>
      <trkpt lat="44.44319" lon="6.1298">
        <ele>1163.1999511719</ele>
        <time>2021-09-01T07:42:50.130Z</time>
      </trkpt>
      <trkpt lat="44.44327" lon="6.12983">
        <ele>1163.1999511719</ele>
        <time>2021-09-01T07:42:56.816Z</time>
      </trkpt>
      <trkpt lat="44.44337" lon="6.12983">
        <ele>1163.1999511719</ele>
        <time>2021-09-01T07:43:03.505Z</time>
      </trkpt>
      <trkpt lat="44.44346" lon="6.12987">
        <ele>1155</ele>
        <time>2021-09-01T07:43:10.197Z</time>
      </trkpt>
      <trkpt lat="44.44356" lon="6.12994">
        <ele>1155</ele>
        <time>2021-09-01T07:43:16.892Z</time>
      </trkpt>
      <trkpt lat="44.44378" lon="6.13003">
        <ele>1155</ele>
        <time>2021-09-01T07:43:23.594Z</time>
      </trkpt>
      <trkpt lat="44.44385" lon="6.13009">
        <ele>1149.5999755859</ele>
        <time>2021-09-01T07:43:30.298Z</time>
      </trkpt>
      <trkpt lat="44.44409" lon="6.13005">
        <ele>1146.4000244141</ele>
        <time>2021-09-01T07:43:37.009Z</time>
      </trkpt>
      <trkpt lat="44.44428" lon="6.13004">
        <ele>1146.4000244141</ele>
        <time>2021-09-01T07:43:43.725Z</time>
      </trkpt>
      <trkpt lat="44.4444" lon="6.13008">
        <ele>1146.4000244141</ele>
        <time>2021-09-01T07:43:50.445Z</time>
      </trkpt>
      <trkpt lat="44.4445" lon="6.13007">
        <ele>1146.4000244141</ele>
        <time>2021-09-01T07:43:57.168Z</time>
      </trkpt>
      <trkpt lat="44.44461" lon="6.1301">
        <ele>1146.4000244141</ele>
        <time>2021-09-01T07:44:03.894Z</time>
      </trkpt>
      <trkpt lat="44.44463" lon="6.12998">
        <ele>1146.4000244141</ele>
        <time>2021-09-01T07:44:10.623Z</time>
      </trkpt>
      <trkpt lat="44.44464" lon="6.12998">
        <ele>1128.8000488281</ele>
        <time>2021-09-01T07:44:17.352Z</time>
      </trkpt>
      <trkpt lat="44.44473" lon="6.13004">
        <ele>1127.1999511719</ele>
        <time>2021-09-01T07:44:24.084Z</time>
      </trkpt>
      <trkpt lat="44.44479" lon="6.13011">
        <ele>1125.5999755859</ele>
        <time>2021-09-01T07:44:30.818Z</time>
      </trkpt>
      <trkpt lat="44.44484" lon="6.13013">
        <ele>1125.5999755859</ele>
        <time>2021-09-01T07:44:37.554Z</time>
      </trkpt>
      <trkpt lat="44.44484" lon="6.13002">
        <ele>1125.5999755859</ele>
        <time>2021-09-01T07:44:44.292Z</time>
      </trkpt>
      <trkpt lat="44.44486" lon="6.13">
        <ele>1121.1999511719</ele>
        <time>2021-09-01T07:44:51.031Z</time>
      </trkpt>
      <trkpt lat="44.4449" lon="6.13004">
        <ele>1121.1999511719</ele>
        <time>2021-09-01T07:44:57.771Z</time>
      </trkpt>
      <trkpt lat="44.44497" lon="6.13018">
        <ele>1118</ele>
        <time>2021-09-01T07:45:04.515Z</time>
      </trkpt>
      <trkpt lat="44.44506" lon="6.13021">
        <ele>1118</ele>
        <time>2021-09-01T07:45:11.261Z</time>
      </trkpt>
      <trkpt lat="44.44514" lon="6.13018">
        <ele>1118</ele>
        <time>2021-09-01T07:45:18.010Z</time>
      </trkpt>
      <trkpt lat="44.44519" lon="6.1302">
        <ele>1113.8000488281</ele>
        <time>2021-09-01T07:45:24.760Z</time>
      </trkpt>
      <trkpt lat="44.44524" lon="6.13024">
        <ele>1113.8000488281</ele>
        <time>2021-09-01T07:45:31.512Z</time>
      </trkpt>
      <trkpt lat="44.44531" lon="6.13021">
        <ele>1113.8000488281</ele>
        <time>2021-09-01T07:45:38.266Z</time>
      </trkpt>
      <trkpt lat="44.44553" lon="6.13021">
        <ele>1107.5999755859</ele>
        <time>2021-09-01T07:45:45.027Z</time>
      </trkpt>
      <trkpt lat="44.44602" lon="6.13012">
        <ele>1100</ele>
        <time>2021-09-01T07:45:51.802Z</time>
      </trkpt>
      <trkpt lat="44.44608" lon="6.13013">
        <ele>1100</ele>
        <time>2021-09-01T07:45:58.579Z</time>
      </trkpt>
      <trkpt lat="44.44633" lon="6.1302">
        <ele>1096.1999511719</ele>
        <time>2021-09-01T07:46:05.363Z</time>
      </trkpt>
      <trkpt lat="44.44648" lon="6.13027">
        <ele>1093.8000488281</ele>
        <time>2021-09-01T07:46:12.152Z</time>
      </trkpt>
      <trkpt lat="44.4466" lon="6.13029">
        <ele>1093.8000488281</ele>
        <time>2021-09-01T07:46:18.944Z</time>
      </trkpt>
      <trkpt lat="44.44666" lon="6.13027">
        <ele>1092.1999511719</ele>
        <time>2021-09-01T07:46:25.738Z</time>
      </trkpt>
      <trkpt lat="44.44673" lon="6.13022">
        <ele>1092.1999511719</ele>
        <time>2021-09-01T07:46:32.534Z</time>
      </trkpt>
      <trkpt lat="44.44677" lon="6.13002">
        <ele>1092.1999511719</ele>
        <time>2021-09-01T07:46:39.335Z</time>
      </trkpt>
      <trkpt lat="44.44679" lon="6.13002">
        <ele>1087.4000244141</ele>
        <time>2021-09-01T07:46:46.136Z</time>
      </trkpt>
      <trkpt lat="44.44683" lon="6.13009">
        <ele>1087.4000244141</ele>
        <time>2021-09-01T07:46:52.939Z</time>
      </trkpt>
      <trkpt lat="44.44688" lon="6.13013">
        <ele>1084.5999755859</ele>
        <time>2021-09-01T07:46:59.744Z</time>
      </trkpt>
      <trkpt lat="44.44691" lon="6.13007">
        <ele>1084.5999755859</ele>
        <time>2021-09-01T07:47:06.550Z</time>
      </trkpt>
      <trkpt lat="44.44693" lon="6.13005">
        <ele>1082.1999511719</ele>
        <time>2021-09-01T07:47:13.357Z</time>
      </trkpt>
      <trkpt lat="44.44698" lon="6.13013">
        <ele>1080</ele>
        <time>2021-09-01T07:47:20.166Z</time>
      </trkpt>
      <trkpt lat="44.44702" lon="6.13011">
        <ele>1080</ele>
        <time>2021-09-01T07:47:26.976Z</time>
      </trkpt>
      <trkpt lat="44.44702" lon="6.13001">
        <ele>1080</ele>
        <time>2021-09-01T07:47:33.788Z</time>
      </trkpt>
      <trkpt lat="44.447" lon="6.12992">
        <ele>1076.4000244141</ele>
        <time>2021-09-01T07:47:40.602Z</time>
      </trkpt>
      <trkpt lat="44.447" lon="6.1299">
        <ele>1076.4000244141</ele>
        <time>2021-09-01T07:47:47.417Z</time>
      </trkpt>
      <trkpt lat="44.44702" lon="6.12989">
        <ele>1075.4000244141</ele>
        <time>2021-09-01T07:47:54.233Z</time>
      </trkpt>
      <trkpt lat="44.44713" lon="6.12999">
        <ele>1075.4000244141</ele>
        <time>2021-09-01T07:48:01.052Z</time>
      </trkpt>
      <trkpt lat="44.44724" lon="6.13018">
        <ele>1075.4000244141</ele>
        <time>2021-09-01T07:48:07.877Z</time>
      </trkpt>
      <trkpt lat="44.44726" lon="6.13021">
        <ele>1067</ele>
        <time>2021-09-01T07:48:14.702Z</time>
      </trkpt>
      <trkpt lat="44.44728" lon="6.13021">
        <ele>1067</ele>
        <time>2021-09-01T07:48:21.528Z</time>
      </trkpt>
      <trkpt lat="44.44732" lon="6.13013">
        <ele>1067</ele>
        <time>2021-09-01T07:48:28.356Z</time>
      </trkpt>
      <trkpt lat="44.44733" lon="6.12988">
        <ele>1067</ele>
        <time>2021-09-01T07:48:35.189Z</time>
      </trkpt>
      <trkpt lat="44.44736" lon="6.12985">
        <ele>1059.4000244141</ele>
        <time>2021-09-01T07:48:42.023Z</time>
      </trkpt>
      <trkpt lat="44.44738" lon="6.12999">
        <ele>1059.4000244141</ele>
        <time>2021-09-01T07:48:48.860Z</time>
      </trkpt>
      <trkpt lat="44.44748" lon="6.13019">
        <ele>1059.4000244141</ele>
        <time>2021-09-01T07:48:55.702Z</time>
      </trkpt>
      <trkpt lat="44.44752" lon="6.13022">
        <ele>1058.4000244141</ele>
        <time>2021-09-01T07:49:02.545Z</time>
      </trkpt>
      <trkpt lat="44.4476" lon="6.13026">
        <ele>1058.4000244141</ele>
        <time>2021-09-01T07:49:09.391Z</time>
      </trkpt>
      <trkpt lat="44.44766" lon="6.13027">
        <ele>1056.8000488281</ele>
        <time>2021-09-01T07:49:16.239Z</time>
      </trkpt>
      <trkpt lat="44.44814" lon="6.13018">
        <ele>1051.8000488281</ele>
        <time>2021-09-01T07:49:23.101Z</time>
      </trkpt>
      <trkpt lat="44.44844" lon="6.13021">
        <ele>1051.4000244141</ele>
        <time>2021-09-01T07:49:29.971Z</time>
      </trkpt>
      <trkpt lat="44.44854" lon="6.13021">
        <ele>1051.4000244141</ele>
        <time>2021-09-01T07:49:36.844Z</time>
      </trkpt>
      <trkpt lat="44.44908" lon="6.13011">
        <ele>1051.4000244141</ele>
        <time>2021-09-01T07:49:43.733Z</time>
      </trkpt>
      <trkpt lat="44.44932" lon="6.13003">
        <ele>1049.8000488281</ele>
        <time>2021-09-01T07:49:50.629Z</time>
      </trkpt>
      <trkpt lat="44.4495" lon="6.12995">
        <ele>1049.8000488281</ele>
        <time>2021-09-01T07:49:57.531Z</time>
      </trkpt>
      <trkpt lat="44.44977" lon="6.12988">
        <ele>1049.8000488281</ele>
        <time>2021-09-01T07:50:04.441Z</time>
      </trkpt>
      <trkpt lat="44.45033" lon="6.1297">
        <ele>1049.8000488281</ele>
        <time>2021-09-01T07:50:11.367Z</time>
      </trkpt>
      <trkpt lat="44.45038" lon="6.1297">
        <ele>1041.1999511719</ele>
        <time>2021-09-01T07:50:18.295Z</time>
      </trkpt>
      <trkpt lat="44.45056" lon="6.12974">
        <ele>1040.1999511719</ele>
        <time>2021-09-01T07:50:25.228Z</time>
      </trkpt>
      <trkpt lat="44.45072" lon="6.12962">
        <ele>1040.1999511719</ele>
        <time>2021-09-01T07:50:32.166Z</time>
      </trkpt>
      <trkpt lat="44.45079" lon="6.12963">
        <ele>1036.5999755859</ele>
        <time>2021-09-01T07:50:39.106Z</time>
      </trkpt>
      <trkpt lat="44.45082" lon="6.1297">
        <ele>1036.5999755859</ele>
        <time>2021-09-01T07:50:46.048Z</time>
      </trkpt>
      <trkpt lat="44.4508" lon="6.12973">
        <ele>1034.8000488281</ele>
        <time>2021-09-01T07:50:52.991Z</time>
      </trkpt>
      <trkpt lat="44.45051" lon="6.13001">
        <ele>1031.4000244141</ele>
        <time>2021-09-01T07:50:59.944Z</time>
      </trkpt>
      <trkpt lat="44.44977" lon="6.13051">
        <ele>1022.200012207</ele>
        <time>2021-09-01T07:51:06.921Z</time>
      </trkpt>
      <trkpt lat="44.44934" lon="6.13088">
        <ele>1022.200012207</ele>
        <time>2021-09-01T07:51:13.913Z</time>
      </trkpt>
      <trkpt lat="44.44917" lon="6.13096">
        <ele>1022.200012207</ele>
        <time>2021-09-01T07:51:20.910Z</time>
      </trkpt>
      <trkpt lat="44.44883" lon="6.13107">
        <ele>1013.5999755859</ele>
        <time>2021-09-01T07:51:27.917Z</time>
      </trkpt>
      <trkpt lat="44.44853" lon="6.13128">
        <ele>1013.5999755859</ele>
        <time>2021-09-01T07:51:34.934Z</time>
      </trkpt>
      <trkpt lat="44.44835" lon="6.13137">
        <ele>1007</ele>
        <time>2021-09-01T07:51:41.956Z</time>
      </trkpt>
      <trkpt lat="44.44793" lon="6.13145">
        <ele>999.79998779297</ele>
        <time>2021-09-01T07:51:48.991Z</time>
      </trkpt>
      <trkpt lat="44.4477" lon="6.13161">
        <ele>996.20001220703</ele>
        <time>2021-09-01T07:51:56.033Z</time>
      </trkpt>
      <trkpt lat="44.44764" lon="6.13171">
        <ele>993</ele>
        <time>2021-09-01T07:52:03.078Z</time>
      </trkpt>
      <trkpt lat="44.44766" lon="6.13176">
        <ele>991</ele>
        <time>2021-09-01T07:52:10.124Z</time>
      </trkpt>
      <trkpt lat="44.44776" lon="6.13181">
        <ele>990.40002441406</ele>
        <time>2021-09-01T07:52:17.173Z</time>
      </trkpt>
      <trkpt lat="44.44785" lon="6.13191">
        <ele>986.40002441406</ele>
        <time>2021-09-01T07:52:24.226Z</time>
      </trkpt>
      <trkpt lat="44.44793" lon="6.13223">
        <ele>983.40002441406</ele>
        <time>2021-09-01T07:52:31.286Z</time>
      </trkpt>
      <trkpt lat="44.44793" lon="6.13245">
        <ele>983.40002441406</ele>
        <time>2021-09-01T07:52:38.350Z</time>
      </trkpt>
      <trkpt lat="44.44787" lon="6.13266">
        <ele>983.40002441406</ele>
        <time>2021-09-01T07:52:45.419Z</time>
      </trkpt>
      <trkpt lat="44.44788" lon="6.13281">
        <ele>980.40002441406</ele>
        <time>2021-09-01T07:52:52.491Z</time>
      </trkpt>
      <trkpt lat="44.44794" lon="6.13305">
        <ele>980.40002441406</ele>
        <time>2021-09-01T07:52:59.568Z</time>
      </trkpt>
      <trkpt lat="44.44783" lon="6.13329">
        <ele>980.40002441406</ele>
        <time>2021-09-01T07:53:06.651Z</time>
      </trkpt>
      <trkpt lat="44.44783" lon="6.13339">
        <ele>980.40002441406</ele>
        <time>2021-09-01T07:53:13.736Z</time>
      </trkpt>
      <trkpt lat="44.44795" lon="6.13354">
        <ele>969.40002441406</ele>
        <time>2021-09-01T07:53:20.826Z</time>
      </trkpt>
      <trkpt lat="44.44807" lon="6.13358">
        <ele>969.59997558594</ele>
        <time>2021-09-01T07:53:27.920Z</time>
      </trkpt>
      <trkpt lat="44.44815" lon="6.13363">
        <ele>969.40002441406</ele>
        <time>2021-09-01T07:53:35.016Z</time>
      </trkpt>
      <trkpt lat="44.44827" lon="6.13368">
        <ele>969.40002441406</ele>
        <time>2021-09-01T07:53:42.116Z</time>
      </trkpt>
      <trkpt lat="44.44841" lon="6.13388">
        <ele>969.40002441406</ele>
        <time>2021-09-01T07:53:49.221Z</time>
      </trkpt>
      <trkpt lat="44.44862" lon="6.13401">
        <ele>969.40002441406</ele>
        <time>2021-09-01T07:53:56.333Z</time>
      </trkpt>
      <trkpt lat="44.44888" lon="6.13412">
        <ele>966.79998779297</ele>
        <time>2021-09-01T07:54:03.453Z</time>
      </trkpt>
      <trkpt lat="44.44894" lon="6.13421">
        <ele>966.20001220703</ele>
        <time>2021-09-01T07:54:10.576Z</time>
      </trkpt>
      <trkpt lat="44.44911" lon="6.13477">
        <ele>963.40002441406</ele>
        <time>2021-09-01T07:54:17.711Z</time>
      </trkpt>
      <trkpt lat="44.44942" lon="6.13512">
        <ele>963.40002441406</ele>
        <time>2021-09-01T07:54:24.858Z</time>
      </trkpt>
      <trkpt lat="44.45006" lon="6.1354">
        <ele>963.40002441406</ele>
        <time>2021-09-01T07:54:32.024Z</time>
      </trkpt>
      <trkpt lat="44.45035" lon="6.13543">
        <ele>966</ele>
        <time>2021-09-01T07:54:39.199Z</time>
      </trkpt>
      <trkpt lat="44.45043" lon="6.13546">
        <ele>966</ele>
        <time>2021-09-01T07:54:46.376Z</time>
      </trkpt>
      <trkpt lat="44.45046" lon="6.1356">
        <ele>966.20001220703</ele>
        <time>2021-09-01T07:54:53.556Z</time>
      </trkpt>
      <trkpt lat="44.4504" lon="6.1359">
        <ele>966.20001220703</ele>
        <time>2021-09-01T07:55:00.743Z</time>
      </trkpt>
      <trkpt lat="44.45037" lon="6.1364">
        <ele>961.40002441406</ele>
        <time>2021-09-01T07:55:07.940Z</time>
      </trkpt>
      <trkpt lat="44.45037" lon="6.13659">
        <ele>959.59997558594</ele>
        <time>2021-09-01T07:55:15.141Z</time>
      </trkpt>
      <trkpt lat="44.45029" lon="6.13696">
        <ele>959.59997558594</ele>
        <time>2021-09-01T07:55:22.350Z</time>
      </trkpt>
      <trkpt lat="44.4502" lon="6.13759">
        <ele>955.20001220703</ele>
        <time>2021-09-01T07:55:29.573Z</time>
      </trkpt>
      <trkpt lat="44.45016" lon="6.1377">
        <ele>954.20001220703</ele>
        <time>2021-09-01T07:55:36.798Z</time>
      </trkpt>
      <trkpt lat="44.45002" lon="6.13784">
        <ele>953.20001220703</ele>
        <time>2021-09-01T07:55:44.028Z</time>
      </trkpt>
      <trkpt lat="44.45" lon="6.13793">
        <ele>953.20001220703</ele>
        <time>2021-09-01T07:55:51.260Z</time>
      </trkpt>
      <trkpt lat="44.45" lon="6.13813">
        <ele>953.59997558594</ele>
        <time>2021-09-01T07:55:58.496Z</time>
      </trkpt>
      <trkpt lat="44.45003" lon="6.13823">
        <ele>953.59997558594</ele>
        <time>2021-09-01T07:56:05.734Z</time>
      </trkpt>
      <trkpt lat="44.45018" lon="6.13838">
        <ele>953.59997558594</ele>
        <time>2021-09-01T07:56:12.978Z</time>
      </trkpt>
      <trkpt lat="44.45023" lon="6.13836">
        <ele>956.20001220703</ele>
        <time>2021-09-01T07:56:20.223Z</time>
      </trkpt>
      <trkpt lat="44.45044" lon="6.13811">
        <ele>956.20001220703</ele>
        <time>2021-09-01T07:56:27.476Z</time>
      </trkpt>
      <trkpt lat="44.45055" lon="6.13808">
        <ele>955.40002441406</ele>
        <time>2021-09-01T07:56:34.732Z</time>
      </trkpt>
      <trkpt lat="44.4506" lon="6.13813">
        <ele>955.40002441406</ele>
        <time>2021-09-01T07:56:41.990Z</time>
      </trkpt>
      <trkpt lat="44.45066" lon="6.13823">
        <ele>955.40002441406</ele>
        <time>2021-09-01T07:56:49.251Z</time>
      </trkpt>
      <trkpt lat="44.4507" lon="6.13825">
        <ele>954.40002441406</ele>
        <time>2021-09-01T07:56:56.513Z</time>
      </trkpt>
      <trkpt lat="44.45075" lon="6.13823">
        <ele>954.40002441406</ele>
        <time>2021-09-01T07:57:03.776Z</time>
      </trkpt>
      <trkpt lat="44.45094" lon="6.13796">
        <ele>954.40002441406</ele>
        <time>2021-09-01T07:57:11.047Z</time>
      </trkpt>
      <trkpt lat="44.45114" lon="6.13773">
        <ele>954.40002441406</ele>
        <time>2021-09-01T07:57:18.326Z</time>
      </trkpt>
      <trkpt lat="44.45138" lon="6.13769">
        <ele>954.20001220703</ele>
        <time>2021-09-01T07:57:25.612Z</time>
      </trkpt>
      <trkpt lat="44.45175" lon="6.13765">
        <ele>954.20001220703</ele>
        <time>2021-09-01T07:57:32.909Z</time>
      </trkpt>
      <trkpt lat="44.45184" lon="6.13776">
        <ele>954.20001220703</ele>
        <time>2021-09-01T07:57:40.209Z</time>
      </trkpt>
      <trkpt lat="44.45209" lon="6.13796">
        <ele>955.20001220703</ele>
        <time>2021-09-01T07:57:47.518Z</time>
      </trkpt>
      <trkpt lat="44.45235" lon="6.13803">
        <ele>955.20001220703</ele>
        <time>2021-09-01T07:57:54.834Z</time>
      </trkpt>
      <trkpt lat="44.45246" lon="6.13803">
        <ele>955.20001220703</ele>
        <time>2021-09-01T07:58:02.154Z</time>
      </trkpt>
      <trkpt lat="44.45264" lon="6.138">
        <ele>955.20001220703</ele>
        <time>2021-09-01T07:58:09.479Z</time>
      </trkpt>
      <trkpt lat="44.45267" lon="6.13801">
        <ele>955.20001220703</ele>
        <time>2021-09-01T07:58:16.805Z</time>
      </trkpt>
      <trkpt lat="44.45275" lon="6.13793">
        <ele>963.79998779297</ele>
        <time>2021-09-01T07:58:24.133Z</time>
      </trkpt>
      <trkpt lat="44.45283" lon="6.13788">
        <ele>963.79998779297</ele>
        <time>2021-09-01T07:58:31.464Z</time>
      </trkpt>
      <trkpt lat="44.45289" lon="6.1379">
        <ele>963.79998779297</ele>
        <time>2021-09-01T07:58:38.797Z</time>
      </trkpt>
      <trkpt lat="44.45307" lon="6.13788">
        <ele>963.79998779297</ele>
        <time>2021-09-01T07:58:46.135Z</time>
      </trkpt>
      <trkpt lat="44.45318" lon="6.13791">
        <ele>954.79998779297</ele>
        <time>2021-09-01T07:58:53.476Z</time>
      </trkpt>
      <trkpt lat="44.45333" lon="6.13797">
        <ele>952.79998779297</ele>
        <time>2021-09-01T07:59:00.822Z</time>
      </trkpt>
      <trkpt lat="44.4534" lon="6.13795">
        <ele>952.79998779297</ele>
        <time>2021-09-01T07:59:08.170Z</time>
      </trkpt>
      <trkpt lat="44.45339" lon="6.13788">
        <ele>950.40002441406</ele>
        <time>2021-09-01T07:59:15.519Z</time>
      </trkpt>
      <trkpt lat="44.45333" lon="6.13773">
        <ele>947.20001220703</ele>
        <time>2021-09-01T07:59:22.872Z</time>
      </trkpt>
      <trkpt lat="44.45298" lon="6.1373">
        <ele>947.20001220703</ele>
        <time>2021-09-01T07:59:30.238Z</time>
      </trkpt>
      <trkpt lat="44.45301" lon="6.13726">
        <ele>938.20001220703</ele>
        <time>2021-09-01T07:59:37.606Z</time>
      </trkpt>
      <trkpt lat="44.45311" lon="6.13725">
        <ele>938.20001220703</ele>
        <time>2021-09-01T07:59:44.976Z</time>
      </trkpt>
      <trkpt lat="44.45318" lon="6.13726">
        <ele>938.20001220703</ele>
        <time>2021-09-01T07:59:52.349Z</time>
      </trkpt>
      <trkpt lat="44.45344" lon="6.13736">
        <ele>933.20001220703</ele>
        <time>2021-09-01T07:59:59.729Z</time>
      </trkpt>
      <trkpt lat="44.45353" lon="6.13742">
        <ele>931.59997558594</ele>
        <time>2021-09-01T08:00:07.112Z</time>
      </trkpt>
      <trkpt lat="44.45365" lon="6.13754">
        <ele>931.59997558594</ele>
        <time>2021-09-01T08:00:14.499Z</time>
      </trkpt>
      <trkpt lat="44.45377" lon="6.13759">
        <ele>931.59997558594</ele>
        <time>2021-09-01T08:00:21.890Z</time>
      </trkpt>
      <trkpt lat="44.454" lon="6.13762">
        <ele>925.20001220703</ele>
        <time>2021-09-01T08:00:29.288Z</time>
      </trkpt>
      <trkpt lat="44.45426" lon="6.13777">
        <ele>925.20001220703</ele>
        <time>2021-09-01T08:00:36.694Z</time>
      </trkpt>
      <trkpt lat="44.45432" lon="6.13776">
        <ele>925.20001220703</ele>
        <time>2021-09-01T08:00:44.102Z</time>
      </trkpt>
      <trkpt lat="44.45443" lon="6.13778">
        <ele>921.79998779297</ele>
        <time>2021-09-01T08:00:51.513Z</time>
      </trkpt>
      <trkpt lat="44.45469" lon="6.1379">
        <ele>918.79998779297</ele>
        <time>2021-09-01T08:00:58.932Z</time>
      </trkpt>
      <trkpt lat="44.45471" lon="6.13786">
        <ele>918.79998779297</ele>
        <time>2021-09-01T08:01:06.352Z</time>
      </trkpt>
      <trkpt lat="44.4547" lon="6.13783">
        <ele>917.79998779297</ele>
        <time>2021-09-01T08:01:13.773Z</time>
      </trkpt>
      <trkpt lat="44.4546" lon="6.13767">
        <ele>917.79998779297</ele>
        <time>2021-09-01T08:01:21.198Z</time>
      </trkpt>
      <trkpt lat="44.45452" lon="6.13747">
        <ele>917.79998779297</ele>
        <time>2021-09-01T08:01:28.628Z</time>
      </trkpt>
      <trkpt lat="44.45442" lon="6.13737">
        <ele>908.79998779297</ele>
        <time>2021-09-01T08:01:36.062Z</time>
      </trkpt>
      <trkpt lat="44.45416" lon="6.13692">
        <ele>908.79998779297</ele>
        <time>2021-09-01T08:01:43.507Z</time>
      </trkpt>
      <trkpt lat="44.45412" lon="6.13678">
        <ele>908.79998779297</ele>
        <time>2021-09-01T08:01:50.956Z</time>
      </trkpt>
      <trkpt lat="44.45407" lon="6.13671">
        <ele>897.40002441406</ele>
        <time>2021-09-01T08:01:58.407Z</time>
      </trkpt>
      <trkpt lat="44.45408" lon="6.13669">
        <ele>897.40002441406</ele>
        <time>2021-09-01T08:02:05.858Z</time>
      </trkpt>
      <trkpt lat="44.45415" lon="6.13668">
        <ele>897.40002441406</ele>
        <time>2021-09-01T08:02:13.311Z</time>
      </trkpt>
      <trkpt lat="44.4543" lon="6.1367">
        <ele>892.40002441406</ele>
        <time>2021-09-01T08:02:20.769Z</time>
      </trkpt>
      <trkpt lat="44.45433" lon="6.13675">
        <ele>891.20001220703</ele>
        <time>2021-09-01T08:02:28.228Z</time>
      </trkpt>
      <trkpt lat="44.45444" lon="6.13681">
        <ele>891.20001220703</ele>
        <time>2021-09-01T08:02:35.690Z</time>
      </trkpt>
      <trkpt lat="44.45448" lon="6.13686">
        <ele>886.79998779297</ele>
        <time>2021-09-01T08:02:43.154Z</time>
      </trkpt>
      <trkpt lat="44.45458" lon="6.13686">
        <ele>886.79998779297</ele>
        <time>2021-09-01T08:02:50.621Z</time>
      </trkpt>
      <trkpt lat="44.45471" lon="6.13689">
        <ele>886.79998779297</ele>
        <time>2021-09-01T08:02:58.092Z</time>
      </trkpt>
      <trkpt lat="44.45478" lon="6.13694">
        <ele>886.79998779297</ele>
        <time>2021-09-01T08:03:05.565Z</time>
      </trkpt>
      <trkpt lat="44.45491" lon="6.13699">
        <ele>886.79998779297</ele>
        <time>2021-09-01T08:03:13.042Z</time>
      </trkpt>
      <trkpt lat="44.45505" lon="6.13701">
        <ele>886.79998779297</ele>
        <time>2021-09-01T08:03:20.523Z</time>
      </trkpt>
      <trkpt lat="44.45508" lon="6.137">
        <ele>875.20001220703</ele>
        <time>2021-09-01T08:03:28.005Z</time>
      </trkpt>
      <trkpt lat="44.45513" lon="6.13696">
        <ele>875.20001220703</ele>
        <time>2021-09-01T08:03:35.488Z</time>
      </trkpt>
      <trkpt lat="44.45519" lon="6.13697">
        <ele>871.79998779297</ele>
        <time>2021-09-01T08:03:42.973Z</time>
      </trkpt>
      <trkpt lat="44.45533" lon="6.13706">
        <ele>868</ele>
        <time>2021-09-01T08:03:50.463Z</time>
      </trkpt>
      <trkpt lat="44.45537" lon="6.13711">
        <ele>868</ele>
        <time>2021-09-01T08:03:57.954Z</time>
      </trkpt>
      <trkpt lat="44.45542" lon="6.13711">
        <ele>868</ele>
        <time>2021-09-01T08:04:05.447Z</time>
      </trkpt>
      <trkpt lat="44.45552" lon="6.13716">
        <ele>868</ele>
        <time>2021-09-01T08:04:12.943Z</time>
      </trkpt>
      <trkpt lat="44.45563" lon="6.13717">
        <ele>868</ele>
        <time>2021-09-01T08:04:20.442Z</time>
      </trkpt>
      <trkpt lat="44.45572" lon="6.1372">
        <ele>859</ele>
        <time>2021-09-01T08:04:27.944Z</time>
      </trkpt>
      <trkpt lat="44.45581" lon="6.13725">
        <ele>859</ele>
        <time>2021-09-01T08:04:35.449Z</time>
      </trkpt>
      <trkpt lat="44.45586" lon="6.13733">
        <ele>859</ele>
        <time>2021-09-01T08:04:42.956Z</time>
      </trkpt>
      <trkpt lat="44.45599" lon="6.13737">
        <ele>859</ele>
        <time>2021-09-01T08:04:50.467Z</time>
      </trkpt>
      <trkpt lat="44.45613" lon="6.13746">
        <ele>859</ele>
        <time>2021-09-01T08:04:57.982Z</time>
      </trkpt>
      <trkpt lat="44.45622" lon="6.13758">
        <ele>859</ele>
        <time>2021-09-01T08:05:05.501Z</time>
      </trkpt>
      <trkpt lat="44.45635" lon="6.1377">
        <ele>859</ele>
        <time>2021-09-01T08:05:13.024Z</time>
      </trkpt>
      <trkpt lat="44.45647" lon="6.13786">
        <ele>841.79998779297</ele>
        <time>2021-09-01T08:05:20.552Z</time>
      </trkpt>
      <trkpt lat="44.45656" lon="6.13789">
        <ele>841</ele>
        <time>2021-09-01T08:05:28.083Z</time>
      </trkpt>
      <trkpt lat="44.45673" lon="6.138">
        <ele>838.59997558594</ele>
        <time>2021-09-01T08:05:35.619Z</time>
      </trkpt>
      <trkpt lat="44.45676" lon="6.13799">
        <ele>838.59997558594</ele>
        <time>2021-09-01T08:05:43.156Z</time>
      </trkpt>
      <trkpt lat="44.45679" lon="6.13794">
        <ele>838.59997558594</ele>
        <time>2021-09-01T08:05:50.694Z</time>
      </trkpt>
      <trkpt lat="44.45687" lon="6.13795">
        <ele>834.59997558594</ele>
        <time>2021-09-01T08:05:58.235Z</time>
      </trkpt>
      <trkpt lat="44.457" lon="6.13804">
        <ele>832.40002441406</ele>
        <time>2021-09-01T08:06:05.780Z</time>
      </trkpt>
      <trkpt lat="44.45775" lon="6.13831">
        <ele>819.20001220703</ele>
        <time>2021-09-01T08:06:13.347Z</time>
      </trkpt>
      <trkpt lat="44.45776" lon="6.13827">
        <ele>819.20001220703</ele>
        <time>2021-09-01T08:06:20.915Z</time>
      </trkpt>
      <trkpt lat="44.4577" lon="6.1381">
        <ele>815.79998779297</ele>
        <time>2021-09-01T08:06:28.487Z</time>
      </trkpt>
      <trkpt lat="44.45756" lon="6.13785">
        <ele>812</ele>
        <time>2021-09-01T08:06:36.066Z</time>
      </trkpt>
      <trkpt lat="44.4575" lon="6.13768">
        <ele>809.20001220703</ele>
        <time>2021-09-01T08:06:43.649Z</time>
      </trkpt>
      <trkpt lat="44.4575" lon="6.13759">
        <ele>806.40002441406</ele>
        <time>2021-09-01T08:06:51.233Z</time>
      </trkpt>
      <trkpt lat="44.45752" lon="6.13758">
        <ele>806.40002441406</ele>
        <time>2021-09-01T08:06:58.818Z</time>
      </trkpt>
      <trkpt lat="44.45778" lon="6.13752">
        <ele>800.79998779297</ele>
        <time>2021-09-01T08:07:06.411Z</time>
      </trkpt>
      <trkpt lat="44.45797" lon="6.13755">
        <ele>800.79998779297</ele>
        <time>2021-09-01T08:07:14.009Z</time>
      </trkpt>
      <trkpt lat="44.45813" lon="6.13753">
        <ele>800.79998779297</ele>
        <time>2021-09-01T08:07:21.612Z</time>
      </trkpt>
      <trkpt lat="44.45833" lon="6.13755">
        <ele>785.79998779297</ele>
        <time>2021-09-01T08:07:29.221Z</time>
      </trkpt>
      <trkpt lat="44.45842" lon="6.13753">
        <ele>784</ele>
        <time>2021-09-01T08:07:36.832Z</time>
      </trkpt>
      <trkpt lat="44.45865" lon="6.13755">
        <ele>784</ele>
        <time>2021-09-01T08:07:44.450Z</time>
      </trkpt>
      <trkpt lat="44.45909" lon="6.13754">
        <ele>784</ele>
        <time>2021-09-01T08:07:52.081Z</time>
      </trkpt>
      <trkpt lat="44.45922" lon="6.13757">
        <ele>759.59997558594</ele>
        <time>2021-09-01T08:07:59.716Z</time>
      </trkpt>
      <trkpt lat="44.4595" lon="6.13761">
        <ele>754.79998779297</ele>
        <time>2021-09-01T08:08:07.359Z</time>
      </trkpt>
      <trkpt lat="44.45956" lon="6.13765">
        <ele>754.79998779297</ele>
        <time>2021-09-01T08:08:15.004Z</time>
      </trkpt>
      <trkpt lat="44.45963" lon="6.13764">
        <ele>754.79998779297</ele>
        <time>2021-09-01T08:08:22.651Z</time>
      </trkpt>
      <trkpt lat="44.45971" lon="6.13767">
        <ele>747.79998779297</ele>
        <time>2021-09-01T08:08:30.300Z</time>
      </trkpt>
      <trkpt lat="44.45972" lon="6.13764">
        <ele>747</ele>
        <time>2021-09-01T08:08:37.950Z</time>
      </trkpt>
      <trkpt lat="44.4597" lon="6.13759">
        <ele>747</ele>
        <time>2021-09-01T08:08:45.601Z</time>
      </trkpt>
      <trkpt lat="44.4597" lon="6.13749">
        <ele>745.40002441406</ele>
        <time>2021-09-01T08:08:53.254Z</time>
      </trkpt>
      <trkpt lat="44.45967" lon="6.13738">
        <ele>743.59997558594</ele>
        <time>2021-09-01T08:09:00.910Z</time>
      </trkpt>
      <trkpt lat="44.45964" lon="6.13734">
        <ele>742.40002441406</ele>
        <time>2021-09-01T08:09:08.567Z</time>
      </trkpt>
      <trkpt lat="44.45966" lon="6.13728">
        <ele>741.20001220703</ele>
        <time>2021-09-01T08:09:16.225Z</time>
      </trkpt>
      <trkpt lat="44.45993" lon="6.13729">
        <ele>733.79998779297</ele>
        <time>2021-09-01T08:09:23.891Z</time>
      </trkpt>
      <trkpt lat="44.45995" lon="6.13728">
        <ele>733.79998779297</ele>
        <time>2021-09-01T08:09:31.558Z</time>
      </trkpt>
      <trkpt lat="44.45994" lon="6.13723">
        <ele>731.79998779297</ele>
        <time>2021-09-01T08:09:39.226Z</time>
      </trkpt>
      <trkpt lat="44.45987" lon="6.13705">
        <ele>728.20001220703</ele>
        <time>2021-09-01T08:09:46.898Z</time>
      </trkpt>
      <trkpt lat="44.45992" lon="6.13701">
        <ele>728.20001220703</ele>
        <time>2021-09-01T08:09:54.572Z</time>
      </trkpt>
      <trkpt lat="44.46006" lon="6.13707">
        <ele>728.20001220703</ele>
        <time>2021-09-01T08:10:02.250Z</time>
      </trkpt>
      <trkpt lat="44.46017" lon="6.13717">
        <ele>718.20001220703</ele>
        <time>2021-09-01T08:10:09.932Z</time>
      </trkpt>
      <trkpt lat="44.4602" lon="6.13717">
        <ele>716.20001220703</ele>
        <time>2021-09-01T08:10:17.615Z</time>
      </trkpt>
      <trkpt lat="44.46023" lon="6.13702">
        <ele>712.59997558594</ele>
        <time>2021-09-01T08:10:25.301Z</time>
      </trkpt>
      <trkpt lat="44.46022" lon="6.13688">
        <ele>708.59997558594</ele>
        <time>2021-09-01T08:10:32.990Z</time>
      </trkpt>
      <trkpt lat="44.4602" lon="6.13678">
        <ele>708.59997558594</ele>
        <time>2021-09-01T08:10:40.681Z</time>
      </trkpt>
      <trkpt lat="44.46022" lon="6.13669">
        <ele>703.20001220703</ele>
        <time>2021-09-01T08:10:48.374Z</time>
      </trkpt>
      <trkpt lat="44.46029" lon="6.13662">
        <ele>703.20001220703</ele>
        <time>2021-09-01T08:10:56.070Z</time>
      </trkpt>
      <trkpt lat="44.4605" lon="6.13653">
        <ele>699.59997558594</ele>
        <time>2021-09-01T08:11:03.772Z</time>
      </trkpt>
      <trkpt lat="44.46065" lon="6.13649">
        <ele>698.59997558594</ele>
        <time>2021-09-01T08:11:11.479Z</time>
      </trkpt>
      <trkpt lat="44.4607" lon="6.13649">
        <ele>698.59997558594</ele>
        <time>2021-09-01T08:11:19.187Z</time>
      </trkpt>
      <trkpt lat="44.46083" lon="6.13655">
        <ele>696.79998779297</ele>
        <time>2021-09-01T08:11:26.899Z</time>
      </trkpt>
      <trkpt lat="44.46106" lon="6.13668">
        <ele>694.79998779297</ele>
        <time>2021-09-01T08:11:34.618Z</time>
      </trkpt>
      <trkpt lat="44.46113" lon="6.13678">
        <ele>693.20001220703</ele>
        <time>2021-09-01T08:11:42.340Z</time>
      </trkpt>
      <trkpt lat="44.46118" lon="6.13707">
        <ele>693.20001220703</ele>
        <time>2021-09-01T08:11:50.068Z</time>
      </trkpt>
      <trkpt lat="44.46124" lon="6.13716">
        <ele>691.20001220703</ele>
        <time>2021-09-01T08:11:57.799Z</time>
      </trkpt>
      <trkpt lat="44.46135" lon="6.13725">
        <ele>690</ele>
        <time>2021-09-01T08:12:05.533Z</time>
      </trkpt>
      <trkpt lat="44.46149" lon="6.13745">
        <ele>690</ele>
        <time>2021-09-01T08:12:13.273Z</time>
      </trkpt>
      <trkpt lat="44.46165" lon="6.13753">
        <ele>690</ele>
        <time>2021-09-01T08:12:21.018Z</time>
      </trkpt>
      <trkpt lat="44.4619" lon="6.13771">
        <ele>684.20001220703</ele>
        <time>2021-09-01T08:12:28.771Z</time>
      </trkpt>
      <trkpt lat="44.46203" lon="6.13777">
        <ele>684.20001220703</ele>
        <time>2021-09-01T08:12:36.528Z</time>
      </trkpt>
      <trkpt lat="44.46216" lon="6.13779">
        <ele>681.79998779297</ele>
        <time>2021-09-01T08:12:44.289Z</time>
      </trkpt>
      <trkpt lat="44.46273" lon="6.13764">
        <ele>676</ele>
        <time>2021-09-01T08:12:52.067Z</time>
      </trkpt>
      <trkpt lat="44.4628" lon="6.13765">
        <ele>676</ele>
        <time>2021-09-01T08:12:59.847Z</time>
      </trkpt>
      <trkpt lat="44.46283" lon="6.13768">
        <ele>674</ele>
        <time>2021-09-01T08:13:07.628Z</time>
      </trkpt>
      <trkpt lat="44.46283" lon="6.1378">
        <ele>673</ele>
        <time>2021-09-01T08:13:15.412Z</time>
      </trkpt>
      <trkpt lat="44.46263" lon="6.13856">
        <ele>671.79998779297</ele>
        <time>2021-09-01T08:13:23.212Z</time>
      </trkpt>
      <trkpt lat="44.46232" lon="6.13985">
        <ele>667.20001220703</ele>
        <time>2021-09-01T08:13:31.040Z</time>
      </trkpt>
      <trkpt lat="44.46225" lon="6.14009">
        <ele>667.20001220703</ele>
        <time>2021-09-01T08:13:38.874Z</time>
      </trkpt>
      <trkpt lat="44.46213" lon="6.14032">
        <ele>664.40002441406</ele>
        <time>2021-09-01T08:13:46.714Z</time>
      </trkpt>
      <trkpt lat="44.46196" lon="6.14045">
        <ele>664.40002441406</ele>
        <time>2021-09-01T08:13:54.559Z</time>
      </trkpt>
      <trkpt lat="44.46144" lon="6.14081">
        <ele>661.79998779297</ele>
        <time>2021-09-01T08:14:02.421Z</time>
      </trkpt>
      <trkpt lat="44.46115" lon="6.14107">
        <ele>661.79998779297</ele>
        <time>2021-09-01T08:14:10.293Z</time>
      </trkpt>
      <trkpt lat="44.46103" lon="6.14134">
        <ele>662.40002441406</ele>
        <time>2021-09-01T08:14:18.172Z</time>
      </trkpt>
      <trkpt lat="44.46094" lon="6.14168">
        <ele>662.40002441406</ele>
        <time>2021-09-01T08:14:26.059Z</time>
      </trkpt>
      <trkpt lat="44.46093" lon="6.14192">
        <ele>662.40002441406</ele>
        <time>2021-09-01T08:14:33.950Z</time>
      </trkpt>
      <trkpt lat="44.46102" lon="6.14259">
        <ele>659.59997558594</ele>
        <time>2021-09-01T08:14:41.856Z</time>
      </trkpt>
      <trkpt lat="44.46101" lon="6.1427">
        <ele>659.59997558594</ele>
        <time>2021-09-01T08:14:49.764Z</time>
      </trkpt>
      <trkpt lat="44.46088" lon="6.14323">
        <ele>659.59997558594</ele>
        <time>2021-09-01T08:14:57.684Z</time>
      </trkpt>
      <trkpt lat="44.46081" lon="6.14384">
        <ele>656.20001220703</ele>
        <time>2021-09-01T08:15:05.616Z</time>
      </trkpt>
      <trkpt lat="44.46088" lon="6.14451">
        <ele>655.20001220703</ele>
        <time>2021-09-01T08:15:13.563Z</time>
      </trkpt>
      <trkpt lat="44.46108" lon="6.14541">
        <ele>655.20001220703</ele>
        <time>2021-09-01T08:15:21.529Z</time>
      </trkpt>
      <trkpt lat="44.46116" lon="6.14592">
        <ele>653.59997558594</ele>
        <time>2021-09-01T08:15:29.506Z</time>
      </trkpt>
      <trkpt lat="44.46121" lon="6.1465">
        <ele>653.59997558594</ele>
        <time>2021-09-01T08:15:37.495Z</time>
      </trkpt>
      <trkpt lat="44.46124" lon="6.14702">
        <ele>655</ele>
        <time>2021-09-01T08:15:45.495Z</time>
      </trkpt>
      <trkpt lat="44.46128" lon="6.14808">
        <ele>655</ele>
        <time>2021-09-01T08:15:53.517Z</time>
      </trkpt>
      <trkpt lat="44.46128" lon="6.14844">
        <ele>655</ele>
        <time>2021-09-01T08:16:01.546Z</time>
      </trkpt>
      <trkpt lat="44.46123" lon="6.1487">
        <ele>655</ele>
        <time>2021-09-01T08:16:09.581Z</time>
      </trkpt>
      <trkpt lat="44.46116" lon="6.14888">
        <ele>655</ele>
        <time>2021-09-01T08:16:17.620Z</time>
      </trkpt>
      <trkpt lat="44.46106" lon="6.14903">
        <ele>659.79998779297</ele>
        <time>2021-09-01T08:16:25.663Z</time>
      </trkpt>
      <trkpt lat="44.46061" lon="6.14963">
        <ele>659.20001220703</ele>
        <time>2021-09-01T08:16:33.725Z</time>
      </trkpt>
      <trkpt lat="44.46055" lon="6.14976">
        <ele>659.20001220703</ele>
        <time>2021-09-01T08:16:41.790Z</time>
      </trkpt>
      <trkpt lat="44.46048" lon="6.15004">
        <ele>659.20001220703</ele>
        <time>2021-09-01T08:16:49.861Z</time>
      </trkpt>
      <trkpt lat="44.46048" lon="6.1504">
        <ele>659.20001220703</ele>
        <time>2021-09-01T08:16:57.939Z</time>
      </trkpt>
      <trkpt lat="44.46071" lon="6.15214">
        <ele>647.59997558594</ele>
        <time>2021-09-01T08:17:06.054Z</time>
      </trkpt>
      <trkpt lat="44.46077" lon="6.15279">
        <ele>647.79998779297</ele>
        <time>2021-09-01T08:17:14.183Z</time>
      </trkpt>
      <trkpt lat="44.46079" lon="6.15336">
        <ele>647.79998779297</ele>
        <time>2021-09-01T08:17:22.324Z</time>
      </trkpt>
      <trkpt lat="44.46078" lon="6.15359">
        <ele>648.20001220703</ele>
        <time>2021-09-01T08:17:30.470Z</time>
      </trkpt>
      <trkpt lat="44.46084" lon="6.15414">
        <ele>648.20001220703</ele>
        <time>2021-09-01T08:17:38.627Z</time>
      </trkpt>
      <trkpt lat="44.46082" lon="6.15472">
        <ele>648.20001220703</ele>
        <time>2021-09-01T08:17:46.796Z</time>
      </trkpt>
      <trkpt lat="44.46083" lon="6.15496">
        <ele>647.79998779297</ele>
        <time>2021-09-01T08:17:54.970Z</time>
      </trkpt>
      <trkpt lat="44.46087" lon="6.15525">
        <ele>647.79998779297</ele>
        <time>2021-09-01T08:18:03.150Z</time>
      </trkpt>
      <trkpt lat="44.46093" lon="6.15534">
        <ele>647.79998779297</ele>
        <time>2021-09-01T08:18:11.333Z</time>
      </trkpt>
      <trkpt lat="44.46101" lon="6.15558">
        <ele>647.79998779297</ele>
        <time>2021-09-01T08:18:19.521Z</time>
      </trkpt>
      <trkpt lat="44.461" lon="6.15574">
        <ele>648.20001220703</ele>
        <time>2021-09-01T08:18:27.713Z</time>
      </trkpt>
      <trkpt lat="44.46097" lon="6.15586">
        <ele>648.40002441406</ele>
        <time>2021-09-01T08:18:35.908Z</time>
      </trkpt>
      <trkpt lat="44.46099" lon="6.15626">
        <ele>648.40002441406</ele>
        <time>2021-09-01T08:18:44.111Z</time>
      </trkpt>
      <trkpt lat="44.46087" lon="6.15656">
        <ele>648.40002441406</ele>
        <time>2021-09-01T08:18:52.321Z</time>
      </trkpt>
      <trkpt lat="44.46076" lon="6.15704">
        <ele>649.40002441406</ele>
        <time>2021-09-01T08:19:00.541Z</time>
      </trkpt>
      <trkpt lat="44.4606" lon="6.1574">
        <ele>649.40002441406</ele>
        <time>2021-09-01T08:19:08.770Z</time>
      </trkpt>
      <trkpt lat="44.46054" lon="6.15764">
        <ele>648.59997558594</ele>
        <time>2021-09-01T08:19:17.005Z</time>
      </trkpt>
      <trkpt lat="44.4605" lon="6.15795">
        <ele>648.59997558594</ele>
        <time>2021-09-01T08:19:25.246Z</time>
      </trkpt>
      <trkpt lat="44.46048" lon="6.15853">
        <ele>648.40002441406</ele>
        <time>2021-09-01T08:19:33.499Z</time>
      </trkpt>
      <trkpt lat="44.46048" lon="6.15867">
        <ele>648.40002441406</ele>
        <time>2021-09-01T08:19:41.755Z</time>
      </trkpt>
      <trkpt lat="44.46059" lon="6.15914">
        <ele>649.40002441406</ele>
        <time>2021-09-01T08:19:50.021Z</time>
      </trkpt>
      <trkpt lat="44.4606" lon="6.1594">
        <ele>649.79998779297</ele>
        <time>2021-09-01T08:19:58.293Z</time>
      </trkpt>
      <trkpt lat="44.46088" lon="6.16021">
        <ele>650.79998779297</ele>
        <time>2021-09-01T08:20:06.583Z</time>
      </trkpt>
      <trkpt lat="44.46175" lon="6.16198">
        <ele>651.40002441406</ele>
        <time>2021-09-01T08:20:14.918Z</time>
      </trkpt>
      <trkpt lat="44.46186" lon="6.16226">
        <ele>651.40002441406</ele>
        <time>2021-09-01T08:20:23.260Z</time>
      </trkpt>
      <trkpt lat="44.46185" lon="6.1626">
        <ele>651</ele>
        <time>2021-09-01T08:20:31.609Z</time>
      </trkpt>
      <trkpt lat="44.46165" lon="6.16337">
        <ele>651</ele>
        <time>2021-09-01T08:20:39.975Z</time>
      </trkpt>
      <trkpt lat="44.46149" lon="6.16429">
        <ele>651</ele>
        <time>2021-09-01T08:20:48.361Z</time>
      </trkpt>
      <trkpt lat="44.46139" lon="6.1645">
        <ele>651</ele>
        <time>2021-09-01T08:20:56.752Z</time>
      </trkpt>
      <trkpt lat="44.46128" lon="6.16465">
        <ele>651.59997558594</ele>
        <time>2021-09-01T08:21:05.147Z</time>
      </trkpt>
      <trkpt lat="44.4612" lon="6.16489">
        <ele>651.59997558594</ele>
        <time>2021-09-01T08:21:13.548Z</time>
      </trkpt>
      <trkpt lat="44.46118" lon="6.16502">
        <ele>651.59997558594</ele>
        <time>2021-09-01T08:21:21.951Z</time>
      </trkpt>
      <trkpt lat="44.46123" lon="6.16556">
        <ele>651.59997558594</ele>
        <time>2021-09-01T08:21:30.366Z</time>
      </trkpt>
      <trkpt lat="44.46132" lon="6.16605">
        <ele>652.59997558594</ele>
        <time>2021-09-01T08:21:38.791Z</time>
      </trkpt>
      <trkpt lat="44.46133" lon="6.16632">
        <ele>652.59997558594</ele>
        <time>2021-09-01T08:21:47.222Z</time>
      </trkpt>
      <trkpt lat="44.46138" lon="6.16676">
        <ele>652.59997558594</ele>
        <time>2021-09-01T08:21:55.662Z</time>
      </trkpt>
      <trkpt lat="44.46139" lon="6.16701">
        <ele>652.59997558594</ele>
        <time>2021-09-01T08:22:04.107Z</time>
      </trkpt>
      <trkpt lat="44.46136" lon="6.16727">
        <ele>652.59997558594</ele>
        <time>2021-09-01T08:22:12.558Z</time>
      </trkpt>
      <trkpt lat="44.46118" lon="6.16788">
        <ele>651</ele>
        <time>2021-09-01T08:22:21.022Z</time>
      </trkpt>
      <trkpt lat="44.46107" lon="6.16835">
        <ele>651</ele>
        <time>2021-09-01T08:22:29.497Z</time>
      </trkpt>
      <trkpt lat="44.46106" lon="6.16865">
        <ele>651</ele>
        <time>2021-09-01T08:22:37.978Z</time>
      </trkpt>
      <trkpt lat="44.46102" lon="6.16914">
        <ele>653.79998779297</ele>
        <time>2021-09-01T08:22:46.469Z</time>
      </trkpt>
      <trkpt lat="44.46107" lon="6.16962">
        <ele>653.79998779297</ele>
        <time>2021-09-01T08:22:54.970Z</time>
      </trkpt>
      <trkpt lat="44.46114" lon="6.16977">
        <ele>653.79998779297</ele>
        <time>2021-09-01T08:23:03.475Z</time>
      </trkpt>
      <trkpt lat="44.46121" lon="6.16999">
        <ele>654.79998779297</ele>
        <time>2021-09-01T08:23:11.985Z</time>
      </trkpt>
      <trkpt lat="44.46122" lon="6.1702">
        <ele>654.59997558594</ele>
        <time>2021-09-01T08:23:20.499Z</time>
      </trkpt>
      <trkpt lat="44.46132" lon="6.17059">
        <ele>654.59997558594</ele>
        <time>2021-09-01T08:23:29.022Z</time>
      </trkpt>
      <trkpt lat="44.46138" lon="6.17072">
        <ele>654.59997558594</ele>
        <time>2021-09-01T08:23:37.548Z</time>
      </trkpt>
      <trkpt lat="44.4615" lon="6.17109">
        <ele>654.59997558594</ele>
        <time>2021-09-01T08:23:46.083Z</time>
      </trkpt>
      <trkpt lat="44.46161" lon="6.17108">
        <ele>652.79998779297</ele>
        <time>2021-09-01T08:23:54.621Z</time>
      </trkpt>
      <trkpt lat="44.46168" lon="6.17115">
        <ele>652.79998779297</ele>
        <time>2021-09-01T08:24:03.161Z</time>
      </trkpt>
      <trkpt lat="44.46181" lon="6.17134">
        <ele>652.40002441406</ele>
        <time>2021-09-01T08:24:11.707Z</time>
      </trkpt>
      <trkpt lat="44.46194" lon="6.17149">
        <ele>652.40002441406</ele>
        <time>2021-09-01T08:24:20.258Z</time>
      </trkpt>
      <trkpt lat="44.46194" lon="6.1718">
        <ele>653.79998779297</ele>
        <time>2021-09-01T08:24:28.815Z</time>
      </trkpt>
      <trkpt lat="44.46198" lon="6.17206">
        <ele>653.79998779297</ele>
        <time>2021-09-01T08:24:37.378Z</time>
      </trkpt>
      <trkpt lat="44.46192" lon="6.17252">
        <ele>654.40002441406</ele>
        <time>2021-09-01T08:24:45.950Z</time>
      </trkpt>
      <trkpt lat="44.46196" lon="6.17278">
        <ele>654</ele>
        <time>2021-09-01T08:24:54.528Z</time>
      </trkpt>
      <trkpt lat="44.46195" lon="6.17339">
        <ele>653.40002441406</ele>
        <time>2021-09-01T08:25:03.118Z</time>
      </trkpt>
      <trkpt lat="44.46193" lon="6.17382">
        <ele>653.40002441406</ele>
        <time>2021-09-01T08:25:11.718Z</time>
      </trkpt>
      <trkpt lat="44.46184" lon="6.17466">
        <ele>653.40002441406</ele>
        <time>2021-09-01T08:25:20.335Z</time>
      </trkpt>
      <trkpt lat="44.46181" lon="6.17479">
        <ele>654.79998779297</ele>
        <time>2021-09-01T08:25:28.955Z</time>
      </trkpt>
      <trkpt lat="44.46174" lon="6.1749">
        <ele>654.40002441406</ele>
        <time>2021-09-01T08:25:37.578Z</time>
      </trkpt>
      <trkpt lat="44.46164" lon="6.17516">
        <ele>655</ele>
        <time>2021-09-01T08:25:46.207Z</time>
      </trkpt>
      <trkpt lat="44.46162" lon="6.1754">
        <ele>655</ele>
        <time>2021-09-01T08:25:54.841Z</time>
      </trkpt>
      <trkpt lat="44.46155" lon="6.17565">
        <ele>655</ele>
        <time>2021-09-01T08:26:03.481Z</time>
      </trkpt>
      <trkpt lat="44.46146" lon="6.17655">
        <ele>655.79998779297</ele>
        <time>2021-09-01T08:26:12.140Z</time>
      </trkpt>
      <trkpt lat="44.46143" lon="6.17714">
        <ele>656</ele>
        <time>2021-09-01T08:26:20.811Z</time>
      </trkpt>
      <trkpt lat="44.46134" lon="6.17762">
        <ele>656.40002441406</ele>
        <time>2021-09-01T08:26:29.492Z</time>
      </trkpt>
      <trkpt lat="44.46123" lon="6.17831">
        <ele>657</ele>
        <time>2021-09-01T08:26:38.188Z</time>
      </trkpt>
      <trkpt lat="44.46114" lon="6.17882">
        <ele>657</ele>
        <time>2021-09-01T08:26:46.895Z</time>
      </trkpt>
      <trkpt lat="44.46098" lon="6.17933">
        <ele>657</ele>
        <time>2021-09-01T08:26:55.613Z</time>
      </trkpt>
      <trkpt lat="44.46088" lon="6.1798">
        <ele>657</ele>
        <time>2021-09-01T08:27:04.341Z</time>
      </trkpt>
      <trkpt lat="44.46085" lon="6.18045">
        <ele>657</ele>
        <time>2021-09-01T08:27:13.083Z</time>
      </trkpt>
      <trkpt lat="44.46076" lon="6.18151">
        <ele>657</ele>
        <time>2021-09-01T08:27:21.847Z</time>
      </trkpt>
      <trkpt lat="44.4606" lon="6.18284">
        <ele>658.40002441406</ele>
        <time>2021-09-01T08:27:30.639Z</time>
      </trkpt>
      <trkpt lat="44.46059" lon="6.18337">
        <ele>658.40002441406</ele>
        <time>2021-09-01T08:27:39.442Z</time>
      </trkpt>
      <trkpt lat="44.46053" lon="6.18391">
        <ele>658.40002441406</ele>
        <time>2021-09-01T08:27:48.257Z</time>
      </trkpt>
      <trkpt lat="44.4605" lon="6.18462">
        <ele>658.40002441406</ele>
        <time>2021-09-01T08:27:57.087Z</time>
      </trkpt>
      <trkpt lat="44.46045" lon="6.18493">
        <ele>658.20001220703</ele>
        <time>2021-09-01T08:28:05.923Z</time>
      </trkpt>
      <trkpt lat="44.46036" lon="6.18591">
        <ele>658.20001220703</ele>
        <time>2021-09-01T08:28:14.780Z</time>
      </trkpt>
      <trkpt lat="44.46026" lon="6.18667">
        <ele>658.59997558594</ele>
        <time>2021-09-01T08:28:23.653Z</time>
      </trkpt>
      <trkpt lat="44.46028" lon="6.18692">
        <ele>658.59997558594</ele>
        <time>2021-09-01T08:28:32.531Z</time>
      </trkpt>
      <trkpt lat="44.46028" lon="6.18727">
        <ele>658.59997558594</ele>
        <time>2021-09-01T08:28:41.416Z</time>
      </trkpt>
      <trkpt lat="44.46025" lon="6.18793">
        <ele>659.40002441406</ele>
        <time>2021-09-01T08:28:50.315Z</time>
      </trkpt>
      <trkpt lat="44.46022" lon="6.18824">
        <ele>659.40002441406</ele>
        <time>2021-09-01T08:28:59.220Z</time>
      </trkpt>
      <trkpt lat="44.46023" lon="6.18838">
        <ele>659.79998779297</ele>
        <time>2021-09-01T08:29:08.128Z</time>
      </trkpt>
      <trkpt lat="44.46027" lon="6.18852">
        <ele>659.79998779297</ele>
        <time>2021-09-01T08:29:17.039Z</time>
      </trkpt>
      <trkpt lat="44.46029" lon="6.18867">
        <ele>659.79998779297</ele>
        <time>2021-09-01T08:29:25.954Z</time>
      </trkpt>
      <trkpt lat="44.46007" lon="6.19229">
        <ele>661.79998779297</ele>
        <time>2021-09-01T08:29:34.944Z</time>
      </trkpt>
      <trkpt lat="44.4598" lon="6.19621">
        <ele>661.79998779297</ele>
        <time>2021-09-01T08:29:44.016Z</time>
      </trkpt>
      <trkpt lat="44.45972" lon="6.19659">
        <ele>661.79998779297</ele>
        <time>2021-09-01T08:29:53.096Z</time>
      </trkpt>
      <trkpt lat="44.45965" lon="6.1968">
        <ele>661.79998779297</ele>
        <time>2021-09-01T08:30:02.181Z</time>
      </trkpt>
      <trkpt lat="44.45939" lon="6.1971">
        <ele>661.79998779297</ele>
        <time>2021-09-01T08:30:11.276Z</time>
      </trkpt>
      <trkpt lat="44.45928" lon="6.19736">
        <ele>661.79998779297</ele>
        <time>2021-09-01T08:30:20.377Z</time>
      </trkpt>
      <trkpt lat="44.45926" lon="6.19758">
        <ele>661.79998779297</ele>
        <time>2021-09-01T08:30:29.483Z</time>
      </trkpt>
      <trkpt lat="44.45925" lon="6.1979">
        <ele>666.20001220703</ele>
        <time>2021-09-01T08:30:38.595Z</time>
      </trkpt>
      <trkpt lat="44.45926" lon="6.19816">
        <ele>666.20001220703</ele>
        <time>2021-09-01T08:30:47.713Z</time>
      </trkpt>
      <trkpt lat="44.45949" lon="6.19835">
        <ele>666.20001220703</ele>
        <time>2021-09-01T08:30:56.838Z</time>
      </trkpt>
      <trkpt lat="44.46013" lon="6.19854">
        <ele>666.20001220703</ele>
        <time>2021-09-01T08:31:05.982Z</time>
      </trkpt>
      <trkpt lat="44.4605" lon="6.19862">
        <ele>666.20001220703</ele>
        <time>2021-09-01T08:31:15.137Z</time>
      </trkpt>
      <trkpt lat="44.46055" lon="6.19865">
        <ele>666.20001220703</ele>
        <time>2021-09-01T08:31:24.294Z</time>
      </trkpt>
      <trkpt lat="44.46056" lon="6.19874">
        <ele>665.79998779297</ele>
        <time>2021-09-01T08:31:33.453Z</time>
      </trkpt>
      <trkpt lat="44.46054" lon="6.19888">
        <ele>665.79998779297</ele>
        <time>2021-09-01T08:31:42.615Z</time>
      </trkpt>
      <trkpt lat="44.46052" lon="6.19926">
        <ele>664</ele>
        <time>2021-09-01T08:31:51.785Z</time>
      </trkpt>
      <trkpt lat="44.46054" lon="6.19991">
        <ele>664</ele>
        <time>2021-09-01T08:32:00.968Z</time>
      </trkpt>
      <trkpt lat="44.46051" lon="6.20057">
        <ele>665.20001220703</ele>
        <time>2021-09-01T08:32:10.165Z</time>
      </trkpt>
      <trkpt lat="44.46053" lon="6.20092">
        <ele>665.20001220703</ele>
        <time>2021-09-01T08:32:19.369Z</time>
      </trkpt>
      <trkpt lat="44.46069" lon="6.20195">
        <ele>665</ele>
        <time>2021-09-01T08:32:28.595Z</time>
      </trkpt>
      <trkpt lat="44.46071" lon="6.20224">
        <ele>665</ele>
        <time>2021-09-01T08:32:37.827Z</time>
      </trkpt>
      <trkpt lat="44.46069" lon="6.20373">
        <ele>666</ele>
        <time>2021-09-01T08:32:47.090Z</time>
      </trkpt>
      <trkpt lat="44.46073" lon="6.20429">
        <ele>666</ele>
        <time>2021-09-01T08:32:56.365Z</time>
      </trkpt>
      <trkpt lat="44.46115" lon="6.20677">
        <ele>667.59997558594</ele>
        <time>2021-09-01T08:33:05.693Z</time>
      </trkpt>
      <trkpt lat="44.46158" lon="6.20912">
        <ele>667.59997558594</ele>
        <time>2021-09-01T08:33:15.071Z</time>
      </trkpt>
      <trkpt lat="44.46164" lon="6.20958">
        <ele>668.79998779297</ele>
        <time>2021-09-01T08:33:24.459Z</time>
      </trkpt>
      <trkpt lat="44.46195" lon="6.21073">
        <ele>671.40002441406</ele>
        <time>2021-09-01T08:33:33.872Z</time>
      </trkpt>
      <trkpt lat="44.46196" lon="6.21109">
        <ele>671.40002441406</ele>
        <time>2021-09-01T08:33:43.293Z</time>
      </trkpt>
      <trkpt lat="44.46199" lon="6.21134">
        <ele>671.40002441406</ele>
        <time>2021-09-01T08:33:52.719Z</time>
      </trkpt>
      <trkpt lat="44.46197" lon="6.21153">
        <ele>673.20001220703</ele>
        <time>2021-09-01T08:34:02.149Z</time>
      </trkpt>
      <trkpt lat="44.46202" lon="6.21191">
        <ele>673.59997558594</ele>
        <time>2021-09-01T08:34:11.587Z</time>
      </trkpt>
      <trkpt lat="44.46203" lon="6.21223">
        <ele>673.59997558594</ele>
        <time>2021-09-01T08:34:21.032Z</time>
      </trkpt>
      <trkpt lat="44.46207" lon="6.21234">
        <ele>674.59997558594</ele>
        <time>2021-09-01T08:34:30.479Z</time>
      </trkpt>
      <trkpt lat="44.46211" lon="6.21237">
        <ele>674.59997558594</ele>
        <time>2021-09-01T08:34:39.928Z</time>
      </trkpt>
      <trkpt lat="44.46239" lon="6.21237">
        <ele>674.59997558594</ele>
        <time>2021-09-01T08:34:49.385Z</time>
      </trkpt>
      <trkpt lat="44.46261" lon="6.2124">
        <ele>681.79998779297</ele>
        <time>2021-09-01T08:34:58.848Z</time>
      </trkpt>
      <trkpt lat="44.46269" lon="6.21239">
        <ele>683</ele>
        <time>2021-09-01T08:35:08.314Z</time>
      </trkpt>
      <trkpt lat="44.46275" lon="6.21243">
        <ele>683</ele>
        <time>2021-09-01T08:35:17.781Z</time>
      </trkpt>
      <trkpt lat="44.46276" lon="6.21246">
        <ele>683.79998779297</ele>
        <time>2021-09-01T08:35:27.249Z</time>
      </trkpt>
      <trkpt lat="44.46439" lon="6.22577">
        <ele>683.79998779297</ele>
        <time>2021-09-01T08:35:36.998Z</time>
      </trkpt>
      <trkpt lat="44.46453" lon="6.22716">
        <ele>683.79998779297</ele>
        <time>2021-09-01T08:35:46.776Z</time>
      </trkpt>
      <trkpt lat="44.46464" lon="6.22785">
        <ele>684</ele>
        <time>2021-09-01T08:35:56.569Z</time>
      </trkpt>
      <trkpt lat="44.46494" lon="6.2303">
        <ele>689.20001220703</ele>
        <time>2021-09-01T08:36:06.413Z</time>
      </trkpt>
      <trkpt lat="44.46496" lon="6.23045">
        <ele>689.20001220703</ele>
        <time>2021-09-01T08:36:16.260Z</time>
      </trkpt>
      <trkpt lat="44.46504" lon="6.23063">
        <ele>689.40002441406</ele>
        <time>2021-09-01T08:36:26.112Z</time>
      </trkpt>
      <trkpt lat="44.46509" lon="6.23088">
        <ele>689.40002441406</ele>
        <time>2021-09-01T08:36:35.969Z</time>
      </trkpt>
      <trkpt lat="44.46505" lon="6.23107">
        <ele>689.40002441406</ele>
        <time>2021-09-01T08:36:45.830Z</time>
      </trkpt>
      <trkpt lat="44.46506" lon="6.23128">
        <ele>689.79998779297</ele>
        <time>2021-09-01T08:36:55.696Z</time>
      </trkpt>
      <trkpt lat="44.46519" lon="6.2325">
        <ele>689.79998779297</ele>
        <time>2021-09-01T08:37:05.587Z</time>
      </trkpt>
      <trkpt lat="44.4652" lon="6.23302">
        <ele>689.79998779297</ele>
        <time>2021-09-01T08:37:15.489Z</time>
      </trkpt>
      <trkpt lat="44.46528" lon="6.23341">
        <ele>689.20001220703</ele>
        <time>2021-09-01T08:37:25.399Z</time>
      </trkpt>
      <trkpt lat="44.46528" lon="6.23379">
        <ele>688.20001220703</ele>
        <time>2021-09-01T08:37:35.317Z</time>
      </trkpt>
      <trkpt lat="44.46523" lon="6.23393">
        <ele>687.79998779297</ele>
        <time>2021-09-01T08:37:45.239Z</time>
      </trkpt>
      <trkpt lat="44.46514" lon="6.23403">
        <ele>687.79998779297</ele>
        <time>2021-09-01T08:37:55.164Z</time>
      </trkpt>
      <trkpt lat="44.46503" lon="6.2341">
        <ele>687.79998779297</ele>
        <time>2021-09-01T08:38:05.092Z</time>
      </trkpt>
      <trkpt lat="44.46501" lon="6.2341">
        <ele>686.79998779297</ele>
        <time>2021-09-01T08:38:15.021Z</time>
      </trkpt>
      <trkpt lat="44.46498" lon="6.23406">
        <ele>686.79998779297</ele>
        <time>2021-09-01T08:38:24.951Z</time>
      </trkpt>
      <trkpt lat="44.46494" lon="6.23407">
        <ele>686.79998779297</ele>
        <time>2021-09-01T08:38:34.883Z</time>
      </trkpt>
      <trkpt lat="44.46493" lon="6.2341">
        <ele>686.79998779297</ele>
        <time>2021-09-01T08:38:44.815Z</time>
      </trkpt>
    </trkseg>
  </trk>
</gpx>